Time,TemperatureF,DewpointF,PressureIn,WindDirection,WindDirectionDegrees,WindSpeedMPH,WindSpeedGustMPH,Humidity,HourlyPrecipIn,Conditions,Clouds,dailyrainin,SoftwareType,DateUTC
2013-01-13 00:00:00,65.6,54.0,29.98,SW,230,9.0,15.0,66,0.00,,---,0.01,VWS V14.01,2013-01-13 05:00:00,
2013-01-13 00:01:00,65.6,53.5,29.98,West,265,6.0,6.0,65,0.00,,---,0.00,VWS V14.01,2013-01-13 05:01:00,
2013-01-13 00:02:00,65.6,54.0,29.98,West,259,7.0,12.0,66,0.00,,---,0.00,VWS V14.01,2013-01-13 05:02:00,
2013-01-13 00:03:00,65.6,54.0,29.98,SW,223,3.0,12.0,66,0.00,,---,0.00,VWS V14.01,2013-01-13 05:03:00,
2013-01-13 00:04:00,65.5,53.8,29.98,WSW,244,2.0,12.0,66,0.00,,---,0.00,VWS V14.01,2013-01-13 05:04:00,
2013-01-13 00:05:00,65.6,54.0,29.98,West,276,3.0,12.0,66,0.00,,---,0.00,VWS V14.01,2013-01-13 05:05:00,
2013-01-13 00:06:00,65.6,54.0,29.98,West,262,7.0,12.0,66,0.00,,---,0.00,VWS V14.01,2013-01-13 05:06:00,
2013-01-13 00:07:00,65.6,54.0,29.98,WSW,252,5.0,12.0,66,0.00,,---,0.00,VWS V14.01,2013-01-13 05:07:00,
2013-01-13 00:08:00,65.6,54.4,29.98,WNW,293,3.0,12.0,67,0.00,,---,0.00,VWS V14.01,2013-01-13 05:08:00,
2013-01-13 00:09:00,65.6,54.8,29.98,WNW,290,6.0,12.0,68,0.00,,---,0.00,VWS V14.01,2013-01-13 05:09:00,
2013-01-13 00:10:00,65.6,54.4,29.98,WNW,286,6.0,12.0,67,0.00,,---,0.00,VWS V14.01,2013-01-13 05:10:00,
2013-01-13 00:11:00,65.6,54.0,29.98,West,272,6.0,7.0,66,0.00,,---,0.00,VWS V14.01,2013-01-13 05:11:00,
2013-01-13 00:12:00,65.6,54.0,29.98,West,269,11.0,11.0,66,0.00,,---,0.00,VWS V14.01,2013-01-13 05:12:00,
2013-01-13 00:13:00,65.6,54.0,29.98,WNW,298,6.0,11.0,66,0.00,,---,0.00,VWS V14.01,2013-01-13 05:13:00,
2013-01-13 00:14:00,65.6,54.0,29.98,West,264,10.0,11.0,66,0.00,,---,0.00,VWS V14.01,2013-01-13 05:14:00,
2013-01-13 00:15:00,65.6,54.0,29.98,WNW,282,9.0,12.0,66,0.00,,---,0.00,VWS V14.01,2013-01-13 05:15:00,
2013-01-13 00:16:00,65.6,54.4,29.98,NW,310,3.0,12.0,67,0.00,,---,0.00,VWS V14.01,2013-01-13 05:16:00,
2013-01-13 00:17:00,65.6,54.4,29.98,West,278,5.0,12.0,67,0.00,,---,0.00,VWS V14.01,2013-01-13 05:17:00,
2013-01-13 00:18:00,65.6,54.4,29.98,West,275,7.0,12.0,67,0.00,,---,0.00,VWS V14.01,2013-01-13 05:18:00,
2013-01-13 00:19:00,65.6,54.4,29.98,WNW,300,2.0,12.0,67,0.00,,---,0.00,VWS V14.01,2013-01-13 05:19:00,
2013-01-13 00:20:00,65.6,54.4,29.98,WNW,290,7.0,12.0,67,0.00,,---,0.00,VWS V14.01,2013-01-13 05:20:00,
2013-01-13 00:21:00,65.6,54.4,29.98,West,265,3.0,7.0,67,0.00,,---,0.00,VWS V14.01,2013-01-13 05:21:00,
2013-01-13 00:22:00,65.6,54.8,29.98,West,265,2.0,7.0,68,0.00,,---,0.00,VWS V14.01,2013-01-13 05:22:00,
2013-01-13 00:23:00,65.6,54.8,29.98,West,266,5.0,7.0,68,0.00,,---,0.00,VWS V14.01,2013-01-13 05:23:00,
2013-01-13 00:24:00,65.6,55.2,29.98,West,265,0.0,7.0,69,0.00,,---,0.00,VWS V14.01,2013-01-13 05:24:00,
2013-01-13 00:25:00,65.6,54.8,29.98,West,271,2.0,7.0,68,0.00,,---,0.00,VWS V14.01,2013-01-13 05:25:00,
2013-01-13 00:26:00,65.6,54.4,29.98,West,271,2.0,7.0,67,0.00,,---,0.00,VWS V14.01,2013-01-13 05:26:00,
2013-01-13 00:27:00,65.6,54.4,29.98,NW,305,7.0,9.0,67,0.00,,---,0.00,VWS V14.01,2013-01-13 05:27:00,
2013-01-13 00:28:00,65.6,54.4,29.98,West,274,7.0,9.0,67,0.00,,---,0.00,VWS V14.01,2013-01-13 05:28:00,
2013-01-13 00:29:00,65.6,54.4,29.98,WNW,282,6.0,13.0,67,0.00,,---,0.00,VWS V14.01,2013-01-13 05:29:00,
2013-01-13 00:30:00,65.6,54.4,29.97,West,278,2.0,13.0,67,0.00,,---,0.00,VWS V14.01,2013-01-13 05:30:00,
2013-01-13 00:31:00,65.5,54.3,29.97,NW,309,5.0,6.0,67,0.00,,---,0.00,VWS V14.01,2013-01-13 05:31:00,
2013-01-13 00:32:00,65.5,54.7,29.97,West,281,2.0,6.0,68,0.00,,---,0.00,VWS V14.01,2013-01-13 05:32:00,
2013-01-13 00:33:00,65.5,54.7,29.97,West,266,6.0,12.0,68,0.00,,---,0.00,VWS V14.01,2013-01-13 05:33:00,
2013-01-13 00:34:00,65.5,54.7,29.97,WSW,237,2.0,12.0,68,0.00,,---,0.00,VWS V14.01,2013-01-13 05:34:00,
2013-01-13 00:35:00,65.3,54.5,29.97,West,281,11.0,12.0,68,0.00,,---,0.00,VWS V14.01,2013-01-13 05:35:00,
2013-01-13 00:36:00,65.3,54.5,29.97,WNW,285,11.0,12.0,68,0.00,,---,0.00,VWS V14.01,2013-01-13 05:36:00,
2013-01-13 00:37:00,65.3,54.5,29.97,West,268,4.0,12.0,68,0.00,,---,0.00,VWS V14.01,2013-01-13 05:37:00,
2013-01-13 00:38:00,65.2,54.4,29.97,West,281,2.0,12.0,68,0.00,,---,0.00,VWS V14.01,2013-01-13 05:38:00,
2013-01-13 00:39:00,65.2,54.4,29.97,WNW,283,6.0,12.0,68,0.00,,---,0.00,VWS V14.01,2013-01-13 05:39:00,
2013-01-13 00:40:00,65.2,54.4,29.97,WNW,292,2.0,12.0,68,0.00,,---,0.00,VWS V14.01,2013-01-13 05:40:00,
2013-01-13 00:41:00,65.2,54.8,29.97,West,264,3.0,11.0,69,0.00,,---,0.00,VWS V14.01,2013-01-13 05:41:00,
2013-01-13 00:42:00,65.0,54.2,29.97,WSW,248,5.0,11.0,68,0.00,,---,0.00,VWS V14.01,2013-01-13 05:42:00,
2013-01-13 00:43:00,65.0,54.6,29.97,West,266,5.0,11.0,69,0.00,,---,0.00,VWS V14.01,2013-01-13 05:43:00,
2013-01-13 00:44:00,65.0,54.6,29.97,West,279,5.0,11.0,69,0.00,,---,0.00,VWS V14.01,2013-01-13 05:44:00,
2013-01-13 00:45:00,65.0,54.6,29.96,West,279,6.0,11.0,69,0.00,,---,0.00,VWS V14.01,2013-01-13 05:45:00,
2013-01-13 00:46:00,65.0,54.6,29.96,WSW,257,3.0,11.0,69,0.00,,---,0.00,VWS V14.01,2013-01-13 05:46:00,
2013-01-13 00:47:00,65.0,54.6,29.96,SW,228,3.0,11.0,69,0.00,,---,0.00,VWS V14.01,2013-01-13 05:47:00,
2013-01-13 00:48:00,65.0,54.6,29.96,WNW,293,5.0,11.0,69,0.00,,---,0.00,VWS V14.01,2013-01-13 05:48:00,
2013-01-13 00:49:00,65.0,54.6,29.96,West,266,2.0,11.0,69,0.00,,---,0.00,VWS V14.01,2013-01-13 05:49:00,
2013-01-13 00:50:00,65.0,54.6,29.96,West,261,2.0,11.0,69,0.00,,---,0.00,VWS V14.01,2013-01-13 05:50:00,
2013-01-13 00:51:00,65.0,54.6,29.96,West,275,6.0,6.0,69,0.00,,---,0.00,VWS V14.01,2013-01-13 05:51:00,
2013-01-13 00:52:00,64.8,54.4,29.96,WNW,282,4.0,8.0,69,0.00,,---,0.00,VWS V14.01,2013-01-13 05:52:00,
2013-01-13 00:53:00,64.8,54.4,29.96,West,261,11.0,11.0,69,0.00,,---,0.00,VWS V14.01,2013-01-13 05:53:00,
2013-01-13 00:54:00,64.8,54.4,29.96,WNW,283,6.0,11.0,69,0.00,,---,0.00,VWS V14.01,2013-01-13 05:54:00,
2013-01-13 00:55:00,64.8,54.8,29.96,West,259,7.0,11.0,70,0.00,,---,0.00,VWS V14.01,2013-01-13 05:55:00,
2013-01-13 00:56:00,64.8,54.8,29.96,WNW,302,10.0,14.0,70,0.00,,---,0.00,VWS V14.01,2013-01-13 05:56:00,
2013-01-13 00:57:00,64.8,54.8,29.96,NNW,329,8.0,14.0,70,0.00,,---,0.00,VWS V14.01,2013-01-13 05:57:00,
2013-01-13 00:58:00,64.8,54.8,29.96,West,272,6.0,14.0,70,0.00,,---,0.00,VWS V14.01,2013-01-13 05:58:00,
2013-01-13 00:59:00,64.8,54.8,29.96,WNW,296,5.0,14.0,70,0.00,,---,0.00,VWS V14.01,2013-01-13 05:59:00,
2013-01-13 01:00:00,64.8,54.8,29.97,WNW,296,3.0,14.0,70,0.00,,---,0.00,VWS V14.01,2013-01-13 06:00:00,
2013-01-13 01:01:00,64.8,54.8,29.97,West,275,4.0,7.0,70,0.00,,---,0.00,VWS V14.01,2013-01-13 06:01:00,
2013-01-13 01:02:00,65.0,55.0,29.97,West,272,5.0,7.0,70,0.00,,---,0.00,VWS V14.01,2013-01-13 06:02:00,
2013-01-13 01:03:00,65.0,55.0,29.97,WSW,257,6.0,8.0,70,0.00,,---,0.00,VWS V14.01,2013-01-13 06:03:00,
2013-01-13 01:04:00,65.0,55.0,29.97,West,276,6.0,8.0,70,0.00,,---,0.00,VWS V14.01,2013-01-13 06:04:00,
2013-01-13 01:05:00,65.0,54.6,29.97,WNW,288,2.0,9.0,69,0.00,,---,0.00,VWS V14.01,2013-01-13 06:05:00,
2013-01-13 01:06:00,65.0,55.0,29.97,WNW,296,2.0,9.0,70,0.00,,---,0.00,VWS V14.01,2013-01-13 06:06:00,
2013-01-13 01:07:00,65.0,55.0,29.97,WNW,296,4.0,9.0,70,0.00,,---,0.00,VWS V14.01,2013-01-13 06:07:00,
2013-01-13 01:08:00,65.2,55.2,29.97,West,259,6.0,9.0,70,0.00,,---,0.00,VWS V14.01,2013-01-13 06:08:00,
2013-01-13 01:09:00,65.2,55.2,29.97,West,259,11.0,11.0,70,0.00,,---,0.00,VWS V14.01,2013-01-13 06:09:00,
2013-01-13 01:10:00,65.2,55.2,29.97,West,266,4.0,11.0,70,0.00,,---,0.00,VWS V14.01,2013-01-13 06:10:00,
2013-01-13 01:11:00,65.2,55.2,29.97,West,262,4.0,10.0,70,0.00,,---,0.00,VWS V14.01,2013-01-13 06:11:00,
2013-01-13 01:12:00,65.2,55.2,29.97,SW,231,8.0,15.0,70,0.00,,---,0.00,VWS V14.01,2013-01-13 06:12:00,
2013-01-13 01:13:00,65.2,55.2,29.97,WNW,283,6.0,15.0,70,0.00,,---,0.00,VWS V14.01,2013-01-13 06:13:00,
2013-01-13 01:14:00,65.2,54.8,29.97,WNW,300,7.0,15.0,69,0.00,,---,0.00,VWS V14.01,2013-01-13 06:14:00,
2013-01-13 01:15:00,65.2,54.8,29.96,WSW,247,10.0,15.0,69,0.00,,---,0.00,VWS V14.01,2013-01-13 06:15:00,
2013-01-13 01:16:00,65.2,54.8,29.96,WNW,295,6.0,15.0,69,0.00,,---,0.00,VWS V14.01,2013-01-13 06:16:00,
2013-01-13 01:17:00,65.0,55.0,29.96,WNW,293,12.0,17.0,70,0.00,,---,0.00,VWS V14.01,2013-01-13 06:17:00,
2013-01-13 01:18:00,65.0,55.0,29.96,West,281,9.0,17.0,70,0.00,,---,0.00,VWS V14.01,2013-01-13 06:18:00,
2013-01-13 01:19:00,65.0,55.0,29.96,WNW,289,7.0,17.0,70,0.00,,---,0.00,VWS V14.01,2013-01-13 06:19:00,
2013-01-13 01:20:00,64.8,54.8,29.96,WNW,296,6.0,17.0,70,0.00,,---,0.00,VWS V14.01,2013-01-13 06:20:00,
2013-01-13 01:21:00,64.8,54.8,29.96,WSW,241,5.0,10.0,70,0.00,,---,0.00,VWS V14.01,2013-01-13 06:21:00,
2013-01-13 01:22:00,65.0,55.4,29.96,WSW,245,5.0,10.0,71,0.00,,---,0.00,VWS V14.01,2013-01-13 06:22:00,
2013-01-13 01:23:00,65.0,55.4,29.96,West,278,4.0,10.0,71,0.00,,---,0.00,VWS V14.01,2013-01-13 06:23:00,
2013-01-13 01:24:00,65.0,55.4,29.96,WNW,290,4.0,10.0,71,0.00,,---,0.00,VWS V14.01,2013-01-13 06:24:00,
2013-01-13 01:25:00,65.0,55.4,29.96,WNW,292,7.0,10.0,71,0.00,,---,0.00,VWS V14.01,2013-01-13 06:25:00,
2013-01-13 01:26:00,65.0,55.4,29.96,WNW,290,6.0,10.0,71,0.00,,---,0.00,VWS V14.01,2013-01-13 06:26:00,
2013-01-13 01:27:00,65.0,55.4,29.96,NW,310,8.0,10.0,71,0.00,,---,0.00,VWS V14.01,2013-01-13 06:27:00,
2013-01-13 01:28:00,65.0,55.4,29.96,SSW,210,8.0,11.0,71,0.00,,---,0.00,VWS V14.01,2013-01-13 06:28:00,
2013-01-13 01:29:00,65.0,55.4,29.96,NW,314,10.0,11.0,71,0.00,,---,0.00,VWS V14.01,2013-01-13 06:29:00,
2013-01-13 01:30:00,65.2,55.6,29.95,WNW,292,15.0,15.0,71,0.00,,---,0.00,VWS V14.01,2013-01-13 06:30:00,
2013-01-13 01:31:00,65.2,55.2,29.95,NW,307,11.0,11.0,70,0.00,,---,0.00,VWS V14.01,2013-01-13 06:31:00,
2013-01-13 01:32:00,65.2,55.2,29.95,WNW,293,10.0,13.0,70,0.00,,---,0.00,VWS V14.01,2013-01-13 06:32:00,
2013-01-13 01:33:00,65.0,55.0,29.95,West,279,2.0,13.0,70,0.00,,---,0.00,VWS V14.01,2013-01-13 06:33:00,
2013-01-13 01:34:00,65.0,55.0,29.95,WNW,292,11.0,13.0,70,0.00,,---,0.00,VWS V14.01,2013-01-13 06:34:00,
2013-01-13 01:35:00,65.0,55.0,29.95,SW,233,11.0,18.0,70,0.00,,---,0.00,VWS V14.01,2013-01-13 06:35:00,
2013-01-13 01:36:00,64.8,55.2,29.95,WNW,303,8.0,18.0,71,0.00,,---,0.00,VWS V14.01,2013-01-13 06:36:00,
2013-01-13 01:37:00,64.8,55.2,29.95,West,272,13.0,18.0,71,0.00,,---,0.00,VWS V14.01,2013-01-13 06:37:00,
2013-01-13 01:38:00,64.8,55.2,29.95,West,275,6.0,18.0,71,0.00,,---,0.00,VWS V14.01,2013-01-13 06:38:00,
2013-01-13 01:39:00,64.8,55.2,29.95,SW,223,4.0,18.0,71,0.00,,---,0.00,VWS V14.01,2013-01-13 06:39:00,
2013-01-13 01:40:00,64.8,55.2,29.95,WNW,299,11.0,18.0,71,0.00,,---,0.00,VWS V14.01,2013-01-13 06:40:00,
2013-01-13 01:41:00,64.8,55.2,29.95,West,274,7.0,11.0,71,0.00,,---,0.00,VWS V14.01,2013-01-13 06:41:00,
2013-01-13 01:42:00,64.8,55.2,29.95,West,268,7.0,12.0,71,0.00,,---,0.00,VWS V14.01,2013-01-13 06:42:00,
2013-01-13 01:43:00,64.8,55.2,29.95,West,271,10.0,12.0,71,0.00,,---,0.00,VWS V14.01,2013-01-13 06:43:00,
2013-01-13 01:44:00,64.8,55.2,29.95,West,271,10.0,12.0,71,0.00,,---,0.00,VWS V14.01,2013-01-13 06:44:00,
2013-01-13 01:45:00,64.7,55.1,29.95,WNW,289,5.0,12.0,71,0.00,,---,0.00,VWS V14.01,2013-01-13 06:45:00,
2013-01-13 01:46:00,64.5,54.9,29.95,WNW,296,7.0,12.0,71,0.00,,---,0.00,VWS V14.01,2013-01-13 06:46:00,
2013-01-13 01:47:00,64.5,54.9,29.95,West,269,7.0,12.0,71,0.00,,---,0.00,VWS V14.01,2013-01-13 06:47:00,
2013-01-13 01:48:00,64.5,55.3,29.95,WNW,293,3.0,12.0,72,0.00,,---,0.00,VWS V14.01,2013-01-13 06:48:00,
2013-01-13 01:49:00,64.5,55.3,29.95,West,281,5.0,12.0,72,0.00,,---,0.00,VWS V14.01,2013-01-13 06:49:00,
2013-01-13 01:50:00,64.5,55.3,29.95,WSW,250,3.0,12.0,72,0.00,,---,0.00,VWS V14.01,2013-01-13 06:50:00,
2013-01-13 01:51:00,64.5,55.3,29.95,WNW,289,10.0,10.0,72,0.00,,---,0.00,VWS V14.01,2013-01-13 06:51:00,
2013-01-13 01:52:00,64.3,55.1,29.95,West,272,5.0,12.0,72,0.00,,---,0.00,VWS V14.01,2013-01-13 06:52:00,
2013-01-13 01:53:00,64.3,55.1,29.95,WSW,244,3.0,12.0,72,0.00,,---,0.00,VWS V14.01,2013-01-13 06:53:00,
2013-01-13 01:54:00,64.3,55.1,29.95,West,281,5.0,12.0,72,0.00,,---,0.00,VWS V14.01,2013-01-13 06:54:00,
2013-01-13 01:55:00,64.3,55.1,29.95,WSW,254,6.0,12.0,72,0.00,,---,0.00,VWS V14.01,2013-01-13 06:55:00,
2013-01-13 01:56:00,64.3,55.1,29.95,West,281,3.0,12.0,72,0.00,,---,0.00,VWS V14.01,2013-01-13 06:56:00,
2013-01-13 01:57:00,64.3,55.1,29.95,WNW,290,12.0,12.0,72,0.00,,---,0.00,VWS V14.01,2013-01-13 06:57:00,
2013-01-13 01:58:00,64.2,55.0,29.95,West,281,3.0,12.0,72,0.00,,---,0.00,VWS V14.01,2013-01-13 06:58:00,
2013-01-13 01:59:00,64.2,55.0,29.95,SW,227,3.0,12.0,72,0.00,,---,0.00,VWS V14.01,2013-01-13 06:59:00,
2013-01-13 02:00:00,64.2,55.0,29.95,SW,231,3.0,12.0,72,0.00,,---,0.00,VWS V14.01,2013-01-13 07:00:00,
2013-01-13 02:01:00,64.2,55.4,29.95,West,279,5.0,6.0,73,0.00,,---,0.00,VWS V14.01,2013-01-13 07:01:00,
2013-01-13 02:02:00,64.2,55.4,29.95,WNW,286,5.0,6.0,73,0.00,,---,0.00,VWS V14.01,2013-01-13 07:02:00,
2013-01-13 02:03:00,64.2,55.4,29.95,West,259,5.0,6.0,73,0.00,,---,0.00,VWS V14.01,2013-01-13 07:03:00,
2013-01-13 02:04:00,64.3,55.5,29.95,SW,234,4.0,6.0,73,0.00,,---,0.00,VWS V14.01,2013-01-13 07:04:00,
2013-01-13 02:05:00,64.3,55.1,29.95,West,278,4.0,6.0,72,0.00,,---,0.00,VWS V14.01,2013-01-13 07:05:00,
2013-01-13 02:06:00,64.3,55.1,29.95,WSW,251,8.0,12.0,72,0.00,,---,0.00,VWS V14.01,2013-01-13 07:06:00,
2013-01-13 02:07:00,64.3,55.1,29.95,WNW,285,13.0,13.0,72,0.00,,---,0.00,VWS V14.01,2013-01-13 07:07:00,
2013-01-13 02:08:00,64.2,55.0,29.95,WNW,282,6.0,13.0,72,0.00,,---,0.00,VWS V14.01,2013-01-13 07:08:00,
2013-01-13 02:09:00,64.2,55.0,29.95,West,264,8.0,13.0,72,0.00,,---,0.00,VWS V14.01,2013-01-13 07:09:00,
2013-01-13 02:10:00,64.2,55.0,29.95,NW,306,5.0,13.0,72,0.00,,---,0.00,VWS V14.01,2013-01-13 07:10:00,
2013-01-13 02:11:00,64.2,55.4,29.95,West,281,7.0,8.0,73,0.00,,---,0.00,VWS V14.01,2013-01-13 07:11:00,
2013-01-13 02:12:00,64.2,55.4,29.95,WNW,282,8.0,10.0,73,0.00,,---,0.00,VWS V14.01,2013-01-13 07:12:00,
2013-01-13 02:13:00,64.2,55.4,29.95,WNW,290,5.0,11.0,73,0.00,,---,0.00,VWS V14.01,2013-01-13 07:13:00,
2013-01-13 02:14:00,64.2,55.4,29.95,West,266,7.0,11.0,73,0.00,,---,0.00,VWS V14.01,2013-01-13 07:14:00,
2013-01-13 02:15:00,64.2,55.4,29.96,WSW,237,6.0,12.0,73,0.00,,---,0.00,VWS V14.01,2013-01-13 07:15:00,
2013-01-13 02:16:00,64.3,55.5,29.96,WNW,299,7.0,12.0,73,0.00,,---,0.00,VWS V14.01,2013-01-13 07:16:00,
2013-01-13 02:17:00,64.3,55.5,29.96,WNW,289,7.0,12.0,73,0.00,,---,0.00,VWS V14.01,2013-01-13 07:17:00,
2013-01-13 02:18:00,64.2,55.4,29.96,NW,309,6.0,12.0,73,0.00,,---,0.00,VWS V14.01,2013-01-13 07:18:00,
2013-01-13 02:19:00,64.2,55.4,29.96,WSW,255,4.0,12.0,73,0.00,,---,0.00,VWS V14.01,2013-01-13 07:19:00,
2013-01-13 02:20:00,64.2,55.0,29.96,West,276,7.0,12.0,72,0.00,,---,0.00,VWS V14.01,2013-01-13 07:20:00,
2013-01-13 02:21:00,64.2,55.0,29.96,WNW,282,7.0,9.0,72,0.00,,---,0.00,VWS V14.01,2013-01-13 07:21:00,
2013-01-13 02:22:00,64.2,55.0,29.96,WNW,295,6.0,10.0,72,0.00,,---,0.00,VWS V14.01,2013-01-13 07:22:00,
2013-01-13 02:23:00,64.2,55.0,29.96,NW,312,8.0,10.0,72,0.00,,---,0.00,VWS V14.01,2013-01-13 07:23:00,
2013-01-13 02:24:00,64.0,55.2,29.96,West,269,12.0,12.0,73,0.00,,---,0.00,VWS V14.01,2013-01-13 07:24:00,
2013-01-13 02:25:00,64.0,55.2,29.96,WNW,295,3.0,12.0,73,0.00,,---,0.00,VWS V14.01,2013-01-13 07:25:00,
2013-01-13 02:26:00,64.0,55.2,29.96,West,266,7.0,12.0,73,0.00,,---,0.00,VWS V14.01,2013-01-13 07:26:00,
2013-01-13 02:27:00,64.0,55.2,29.96,WSW,251,2.0,12.0,73,0.00,,---,0.00,VWS V14.01,2013-01-13 07:27:00,
2013-01-13 02:28:00,63.9,55.1,29.96,WNW,298,6.0,12.0,73,0.00,,---,0.00,VWS V14.01,2013-01-13 07:28:00,
2013-01-13 02:29:00,63.9,55.1,29.96,WNW,289,3.0,12.0,73,0.00,,---,0.00,VWS V14.01,2013-01-13 07:29:00,
2013-01-13 02:30:00,63.9,55.1,29.97,West,276,8.0,12.0,73,0.00,,---,0.00,VWS V14.01,2013-01-13 07:30:00,
2013-01-13 02:31:00,63.9,55.1,29.97,WNW,300,7.0,10.0,73,0.00,,---,0.00,VWS V14.01,2013-01-13 07:31:00,
2013-01-13 02:32:00,63.9,55.1,29.97,WNW,289,6.0,11.0,73,0.00,,---,0.00,VWS V14.01,2013-01-13 07:32:00,
2013-01-13 02:33:00,63.7,54.9,29.97,NW,319,5.0,11.0,73,0.00,,---,0.00,VWS V14.01,2013-01-13 07:33:00,
2013-01-13 02:34:00,63.7,54.9,29.97,WNW,298,6.0,13.0,73,0.00,,---,0.00,VWS V14.01,2013-01-13 07:34:00,
2013-01-13 02:35:00,63.7,55.3,29.97,West,279,7.0,13.0,74,0.00,,---,0.00,VWS V14.01,2013-01-13 07:35:00,
2013-01-13 02:36:00,63.7,55.3,29.97,NW,313,8.0,13.0,74,0.00,,---,0.00,VWS V14.01,2013-01-13 07:36:00,
2013-01-13 02:37:00,63.7,54.9,29.97,WNW,300,10.0,13.0,73,0.00,,---,0.00,VWS V14.01,2013-01-13 07:37:00,
2013-01-13 02:38:00,63.7,54.9,29.97,WNW,289,10.0,13.0,73,0.00,,---,0.00,VWS V14.01,2013-01-13 07:38:00,
2013-01-13 02:39:00,63.7,54.9,29.97,NW,324,13.0,13.0,73,0.00,,---,0.00,VWS V14.01,2013-01-13 07:39:00,
2013-01-13 02:40:00,63.7,54.9,29.97,WNW,298,5.0,13.0,73,0.00,,---,0.00,VWS V14.01,2013-01-13 07:40:00,
2013-01-13 02:41:00,63.5,54.7,29.97,North,8,6.0,8.0,73,0.00,,---,0.00,VWS V14.01,2013-01-13 07:41:00,
2013-01-13 02:42:00,63.7,55.3,29.97,NW,310,7.0,8.0,74,0.00,,---,0.00,VWS V14.01,2013-01-13 07:42:00,
2013-01-13 02:43:00,63.5,55.1,29.97,West,279,6.0,11.0,74,0.00,,---,0.00,VWS V14.01,2013-01-13 07:43:00,
2013-01-13 02:44:00,63.5,55.1,29.97,West,275,7.0,11.0,74,0.00,,---,0.00,VWS V14.01,2013-01-13 07:44:00,
2013-01-13 02:45:00,63.5,55.1,29.97,WNW,290,5.0,11.0,74,0.00,,---,0.00,VWS V14.01,2013-01-13 07:45:00,
2013-01-13 02:46:00,63.5,55.1,29.97,West,269,7.0,11.0,74,0.00,,---,0.00,VWS V14.01,2013-01-13 07:46:00,
2013-01-13 02:47:00,63.5,55.1,29.97,West,271,5.0,11.0,74,0.00,,---,0.00,VWS V14.01,2013-01-13 07:47:00,
2013-01-13 02:48:00,63.5,55.1,29.97,WSW,255,3.0,11.0,74,0.00,,---,0.00,VWS V14.01,2013-01-13 07:48:00,
2013-01-13 02:49:00,63.5,55.1,29.97,WNW,295,12.0,12.0,74,0.00,,---,0.00,VWS V14.01,2013-01-13 07:49:00,
2013-01-13 02:50:00,63.4,55.0,29.97,West,262,7.0,12.0,74,0.00,,---,0.00,VWS V14.01,2013-01-13 07:50:00,
2013-01-13 02:51:00,63.4,55.0,29.97,WNW,283,7.0,7.0,74,0.00,,---,0.00,VWS V14.01,2013-01-13 07:51:00,
2013-01-13 02:52:00,63.4,55.0,29.97,WNW,303,10.0,10.0,74,0.00,,---,0.00,VWS V14.01,2013-01-13 07:52:00,
2013-01-13 02:53:00,63.4,55.0,29.97,WNW,302,8.0,14.0,74,0.00,,---,0.00,VWS V14.01,2013-01-13 07:53:00,
2013-01-13 02:54:00,63.4,55.0,29.97,NW,314,6.0,14.0,74,0.00,,---,0.00,VWS V14.01,2013-01-13 07:54:00,
2013-01-13 02:55:00,63.4,55.0,29.97,WNW,286,8.0,14.0,74,0.00,,---,0.00,VWS V14.01,2013-01-13 07:55:00,
2013-01-13 02:56:00,63.4,55.0,29.97,West,279,5.0,14.0,74,0.00,,---,0.00,VWS V14.01,2013-01-13 07:56:00,
2013-01-13 02:57:00,63.4,55.0,29.97,WNW,295,6.0,14.0,74,0.00,,---,0.00,VWS V14.01,2013-01-13 07:57:00,
2013-01-13 02:58:00,63.4,55.0,29.97,WNW,289,6.0,14.0,74,0.00,,---,0.00,VWS V14.01,2013-01-13 07:58:00,
2013-01-13 02:59:00,63.4,55.0,29.97,NW,305,9.0,14.0,74,0.00,,---,0.00,VWS V14.01,2013-01-13 07:59:00,
2013-01-13 03:00:00,63.4,55.0,29.97,NW,326,7.0,16.0,74,0.00,,---,0.00,VWS V14.01,2013-01-13 08:00:00,
2013-01-13 03:01:00,63.4,55.0,29.97,NW,305,9.0,9.0,74,0.00,,---,0.00,VWS V14.01,2013-01-13 08:01:00,
2013-01-13 03:02:00,63.4,55.0,29.97,West,261,5.0,9.0,74,0.00,,---,0.00,VWS V14.01,2013-01-13 08:02:00,
2013-01-13 03:03:00,63.4,55.0,29.97,WNW,288,5.0,9.0,74,0.00,,---,0.00,VWS V14.01,2013-01-13 08:03:00,
2013-01-13 03:04:00,63.5,55.1,29.97,WNW,303,7.0,9.0,74,0.00,,---,0.00,VWS V14.01,2013-01-13 08:04:00,
2013-01-13 03:05:00,63.5,55.1,29.97,West,281,2.0,11.0,74,0.00,,---,0.00,VWS V14.01,2013-01-13 08:05:00,
2013-01-13 03:06:00,63.7,55.3,29.97,West,275,5.0,11.0,74,0.00,,---,0.00,VWS V14.01,2013-01-13 08:06:00,
2013-01-13 03:07:00,63.7,55.3,29.97,West,275,3.0,11.0,74,0.00,,---,0.00,VWS V14.01,2013-01-13 08:07:00,
2013-01-13 03:08:00,63.9,55.5,29.97,WNW,299,8.0,11.0,74,0.00,,---,0.00,VWS V14.01,2013-01-13 08:08:00,
2013-01-13 03:09:00,63.9,55.5,29.97,NW,307,11.0,11.0,74,0.00,,---,0.00,VWS V14.01,2013-01-13 08:09:00,
2013-01-13 03:10:00,64.0,55.2,29.97,WNW,298,11.0,11.0,73,0.00,,---,0.00,VWS V14.01,2013-01-13 08:10:00,
2013-01-13 03:11:00,64.0,54.8,29.97,NW,316,7.0,8.0,72,0.00,,---,0.00,VWS V14.01,2013-01-13 08:11:00,
2013-01-13 03:12:00,64.0,54.8,29.97,WNW,295,7.0,8.0,72,0.00,,---,0.00,VWS V14.01,2013-01-13 08:12:00,
2013-01-13 03:13:00,64.0,54.8,29.97,NW,306,6.0,8.0,72,0.00,,---,0.00,VWS V14.01,2013-01-13 08:13:00,
2013-01-13 03:14:00,64.0,54.8,29.97,NW,306,7.0,8.0,72,0.00,,---,0.00,VWS V14.01,2013-01-13 08:14:00,
2013-01-13 03:15:00,64.0,54.8,29.97,WSW,255,6.0,9.0,72,0.00,,---,0.00,VWS V14.01,2013-01-13 08:15:00,
2013-01-13 03:16:00,64.2,55.0,29.97,WNW,282,12.0,12.0,72,0.00,,---,0.00,VWS V14.01,2013-01-13 08:16:00,
2013-01-13 03:17:00,64.2,55.0,29.97,WNW,282,4.0,12.0,72,0.00,,---,0.00,VWS V14.01,2013-01-13 08:17:00,
2013-01-13 03:18:00,64.0,54.8,29.97,West,279,7.0,12.0,72,0.00,,---,0.00,VWS V14.01,2013-01-13 08:18:00,
2013-01-13 03:19:00,64.0,54.8,29.97,WNW,285,5.0,12.0,72,0.00,,---,0.00,VWS V14.01,2013-01-13 08:19:00,
2013-01-13 03:20:00,64.2,55.0,29.97,WNW,292,4.0,12.0,72,0.00,,---,0.00,VWS V14.01,2013-01-13 08:20:00,
2013-01-13 03:21:00,64.2,55.0,29.97,WNW,290,9.0,12.0,72,0.00,,---,0.00,VWS V14.01,2013-01-13 08:21:00,
2013-01-13 03:22:00,64.0,54.8,29.97,West,261,2.0,12.0,72,0.00,,---,0.00,VWS V14.01,2013-01-13 08:22:00,
2013-01-13 03:23:00,64.0,54.8,29.97,WSW,247,2.0,12.0,72,0.00,,---,0.00,VWS V14.01,2013-01-13 08:23:00,
2013-01-13 03:24:00,64.2,55.0,29.97,WSW,238,7.0,12.0,72,0.00,,---,0.00,VWS V14.01,2013-01-13 08:24:00,
2013-01-13 03:25:00,64.0,54.8,29.97,WNW,302,5.0,12.0,72,0.00,,---,0.00,VWS V14.01,2013-01-13 08:25:00,
2013-01-13 03:26:00,64.0,54.8,29.97,WNW,286,5.0,12.0,72,0.00,,---,0.00,VWS V14.01,2013-01-13 08:26:00,
2013-01-13 03:27:00,64.0,54.8,29.97,NW,306,7.0,12.0,72,0.00,,---,0.00,VWS V14.01,2013-01-13 08:27:00,
2013-01-13 03:28:00,64.0,54.8,29.97,WSW,252,10.0,12.0,72,0.00,,---,0.00,VWS V14.01,2013-01-13 08:28:00,
2013-01-13 03:29:00,64.0,54.8,29.97,WNW,285,5.0,12.0,72,0.00,,---,0.00,VWS V14.01,2013-01-13 08:29:00,
2013-01-13 03:30:00,64.0,54.8,29.98,NW,317,5.0,12.0,72,0.00,,---,0.00,VWS V14.01,2013-01-13 08:30:00,
2013-01-13 03:31:00,63.9,54.7,29.98,WNW,283,8.0,14.0,72,0.00,,---,0.00,VWS V14.01,2013-01-13 08:31:00,
2013-01-13 03:32:00,63.9,54.7,29.98,West,278,7.0,14.0,72,0.00,,---,0.00,VWS V14.01,2013-01-13 08:32:00,
2013-01-13 03:33:00,63.9,54.7,29.98,West,272,6.0,14.0,72,0.00,,---,0.00,VWS V14.01,2013-01-13 08:33:00,
2013-01-13 03:34:00,63.7,54.5,29.98,South,172,7.0,14.0,72,0.00,,---,0.00,VWS V14.01,2013-01-13 08:34:00,
2013-01-13 03:35:00,63.7,54.5,29.98,WNW,293,3.0,14.0,72,0.00,,---,0.00,VWS V14.01,2013-01-13 08:35:00,
2013-01-13 03:36:00,63.7,54.5,29.98,WNW,298,4.0,14.0,72,0.00,,---,0.00,VWS V14.01,2013-01-13 08:36:00,
2013-01-13 03:37:00,63.5,54.3,29.98,WNW,289,9.0,14.0,72,0.00,,---,0.00,VWS V14.01,2013-01-13 08:37:00,
2013-01-13 03:38:00,63.5,54.3,29.98,SSW,203,10.0,14.0,72,0.00,,---,0.00,VWS V14.01,2013-01-13 08:38:00,
2013-01-13 03:39:00,63.4,54.2,29.98,WSW,238,5.0,14.0,72,0.00,,---,0.00,VWS V14.01,2013-01-13 08:39:00,
2013-01-13 03:40:00,63.4,54.2,29.98,WNW,298,7.0,14.0,72,0.00,,---,0.00,VWS V14.01,2013-01-13 08:40:00,
2013-01-13 03:41:00,63.4,54.6,29.98,WNW,283,5.0,8.0,73,0.00,,---,0.00,VWS V14.01,2013-01-13 08:41:00,
2013-01-13 03:42:00,63.4,54.6,29.98,WNW,298,3.0,8.0,73,0.00,,---,0.00,VWS V14.01,2013-01-13 08:42:00,
2013-01-13 03:43:00,63.2,54.4,29.98,West,274,3.0,8.0,73,0.00,,---,0.00,VWS V14.01,2013-01-13 08:43:00,
2013-01-13 03:44:00,63.2,54.4,29.98,WSW,245,3.0,8.0,73,0.00,,---,0.00,VWS V14.01,2013-01-13 08:44:00,
2013-01-13 03:45:00,63.2,54.4,29.98,WNW,282,5.0,8.0,73,0.00,,---,0.00,VWS V14.01,2013-01-13 08:45:00,
2013-01-13 03:46:00,63.2,54.4,29.98,WNW,299,5.0,8.0,73,0.00,,---,0.00,VWS V14.01,2013-01-13 08:46:00,
2013-01-13 03:47:00,63.2,54.4,29.98,West,259,6.0,10.0,73,0.00,,---,0.00,VWS V14.01,2013-01-13 08:47:00,
2013-01-13 03:48:00,63.2,54.4,29.98,West,278,6.0,10.0,73,0.00,,---,0.00,VWS V14.01,2013-01-13 08:48:00,
2013-01-13 03:49:00,63.1,54.3,29.98,WNW,293,6.0,10.0,73,0.00,,---,0.00,VWS V14.01,2013-01-13 08:49:00,
2013-01-13 03:50:00,63.1,54.7,29.98,NW,307,4.0,10.0,74,0.00,,---,0.00,VWS V14.01,2013-01-13 08:50:00,
2013-01-13 03:51:00,63.1,54.7,29.98,West,275,6.0,8.0,74,0.00,,---,0.00,VWS V14.01,2013-01-13 08:51:00,
2013-01-13 03:52:00,63.1,54.7,29.98,WNW,288,8.0,11.0,74,0.00,,---,0.00,VWS V14.01,2013-01-13 08:52:00,
2013-01-13 03:53:00,63.1,54.7,29.98,West,266,7.0,11.0,74,0.00,,---,0.00,VWS V14.01,2013-01-13 08:53:00,
2013-01-13 03:54:00,63.1,54.7,29.98,West,266,7.0,11.0,74,0.00,,---,0.00,VWS V14.01,2013-01-13 08:54:00,
2013-01-13 03:55:00,62.9,54.5,29.98,WNW,286,7.0,11.0,74,0.00,,---,0.00,VWS V14.01,2013-01-13 08:55:00,
2013-01-13 03:56:00,62.9,54.5,29.98,WNW,283,6.0,11.0,74,0.00,,---,0.00,VWS V14.01,2013-01-13 08:56:00,
2013-01-13 03:57:00,62.9,54.5,29.98,WNW,283,6.0,11.0,74,0.00,,---,0.00,VWS V14.01,2013-01-13 08:57:00,
2013-01-13 03:58:00,62.7,54.3,29.98,West,281,2.0,11.0,74,0.00,,---,0.00,VWS V14.01,2013-01-13 08:58:00,
2013-01-13 03:59:00,62.7,54.3,29.98,West,281,6.0,11.0,74,0.00,,---,0.00,VWS V14.01,2013-01-13 08:59:00,
2013-01-13 04:00:00,62.7,54.3,29.98,West,281,2.0,11.0,74,0.00,,---,0.00,VWS V14.01,2013-01-13 09:00:00,
2013-01-13 04:01:00,62.7,54.7,29.98,NW,306,7.0,7.0,75,0.00,,---,0.00,VWS V14.01,2013-01-13 09:01:00,
2013-01-13 04:02:00,62.7,54.7,29.98,NW,306,2.0,7.0,75,0.00,,---,0.00,VWS V14.01,2013-01-13 09:02:00,
2013-01-13 04:03:00,62.7,54.7,29.98,WNW,293,3.0,7.0,75,0.00,,---,0.00,VWS V14.01,2013-01-13 09:03:00,
2013-01-13 04:04:00,62.7,54.7,29.98,NW,310,10.0,11.0,75,0.00,,---,0.00,VWS V14.01,2013-01-13 09:04:00,
2013-01-13 04:05:00,62.6,54.6,29.98,WNW,300,2.0,11.0,75,0.00,,---,0.00,VWS V14.01,2013-01-13 09:05:00,
2013-01-13 04:06:00,62.6,54.6,29.98,WNW,295,2.0,11.0,75,0.00,,---,0.00,VWS V14.01,2013-01-13 09:06:00,
2013-01-13 04:07:00,62.6,54.6,29.98,WNW,299,6.0,11.0,75,0.00,,---,0.00,VWS V14.01,2013-01-13 09:07:00,
2013-01-13 04:08:00,62.6,54.6,29.98,NW,305,7.0,11.0,75,0.00,,---,0.00,VWS V14.01,2013-01-13 09:08:00,
2013-01-13 04:09:00,62.4,54.4,29.98,West,269,6.0,11.0,75,0.00,,---,0.00,VWS V14.01,2013-01-13 09:09:00,
2013-01-13 04:10:00,62.4,54.4,29.98,WNW,293,5.0,11.0,75,0.00,,---,0.00,VWS V14.01,2013-01-13 09:10:00,
2013-01-13 04:11:00,62.4,54.4,29.98,West,279,11.0,11.0,75,0.00,,---,0.00,VWS V14.01,2013-01-13 09:11:00,
2013-01-13 04:12:00,62.4,54.4,29.98,West,279,7.0,11.0,75,0.00,,---,0.00,VWS V14.01,2013-01-13 09:12:00,
2013-01-13 04:13:00,62.3,54.3,29.98,West,268,5.0,11.0,75,0.00,,---,0.00,VWS V14.01,2013-01-13 09:13:00,
2013-01-13 04:14:00,62.3,54.3,29.98,WNW,303,2.0,11.0,75,0.00,,---,0.00,VWS V14.01,2013-01-13 09:14:00,
2013-01-13 04:15:00,62.3,54.3,29.99,WNW,292,2.0,11.0,75,0.00,,---,0.00,VWS V14.01,2013-01-13 09:15:00,
2013-01-13 04:16:00,62.3,54.3,29.99,West,264,8.0,11.0,75,0.00,,---,0.00,VWS V14.01,2013-01-13 09:16:00,
2013-01-13 04:17:00,62.3,54.7,29.99,West,276,5.0,11.0,76,0.00,,---,0.00,VWS V14.01,2013-01-13 09:17:00,
2013-01-13 04:18:00,62.1,54.5,29.99,West,276,4.0,11.0,76,0.00,,---,0.00,VWS V14.01,2013-01-13 09:18:00,
2013-01-13 04:19:00,62.1,54.5,29.99,WNW,298,5.0,11.0,76,0.00,,---,0.00,VWS V14.01,2013-01-13 09:19:00,
2013-01-13 04:20:00,62.1,54.5,29.99,West,266,2.0,11.0,76,0.00,,---,0.00,VWS V14.01,2013-01-13 09:20:00,
2013-01-13 04:21:00,62.1,54.5,29.99,West,266,0.0,2.0,76,0.00,,---,0.00,VWS V14.01,2013-01-13 09:21:00,
2013-01-13 04:22:00,62.1,54.5,29.99,West,266,2.0,2.0,76,0.00,,---,0.00,VWS V14.01,2013-01-13 09:22:00,
2013-01-13 04:23:00,62.1,54.5,29.99,WNW,303,7.0,7.0,76,0.00,,---,0.00,VWS V14.01,2013-01-13 09:23:00,
2013-01-13 04:24:00,62.0,54.4,29.99,WNW,300,0.0,7.0,76,0.00,,---,0.00,VWS V14.01,2013-01-13 09:24:00,
2013-01-13 04:25:00,62.0,54.4,29.99,WNW,300,4.0,7.0,76,0.00,,---,0.00,VWS V14.01,2013-01-13 09:25:00,
2013-01-13 04:26:00,62.0,54.4,29.99,West,271,2.0,7.0,76,0.00,,---,0.00,VWS V14.01,2013-01-13 09:26:00,
2013-01-13 04:27:00,62.0,54.4,29.99,WNW,290,3.0,11.0,76,0.00,,---,0.00,VWS V14.01,2013-01-13 09:27:00,
2013-01-13 04:28:00,62.0,54.4,29.99,WNW,290,3.0,11.0,76,0.00,,---,0.00,VWS V14.01,2013-01-13 09:28:00,
2013-01-13 04:29:00,62.0,54.4,29.99,WNW,290,3.0,11.0,76,0.00,,---,0.00,VWS V14.01,2013-01-13 09:29:00,
2013-01-13 04:30:00,62.0,54.4,29.99,WNW,290,1.0,11.0,76,0.00,,---,0.00,VWS V14.01,2013-01-13 09:30:00,
2013-01-13 04:31:00,62.0,54.4,29.99,WNW,290,0.0,3.0,76,0.00,,---,0.00,VWS V14.01,2013-01-13 09:31:00,
2013-01-13 04:32:00,62.0,54.4,29.99,WNW,290,1.0,3.0,76,0.00,,---,0.00,VWS V14.01,2013-01-13 09:32:00,
2013-01-13 04:33:00,61.8,54.2,29.99,WNW,290,1.0,4.0,76,0.00,,---,0.00,VWS V14.01,2013-01-13 09:33:00,
2013-01-13 04:34:00,61.8,54.2,29.99,WSW,250,6.0,7.0,76,0.00,,---,0.00,VWS V14.01,2013-01-13 09:34:00,
2013-01-13 04:35:00,61.8,54.2,29.99,WNW,282,4.0,7.0,76,0.00,,---,0.00,VWS V14.01,2013-01-13 09:35:00,
2013-01-13 04:36:00,61.8,54.2,29.99,NW,310,7.0,7.0,76,0.00,,---,0.00,VWS V14.01,2013-01-13 09:36:00,
2013-01-13 04:37:00,61.8,54.2,29.99,West,276,5.0,8.0,76,0.00,,---,0.00,VWS V14.01,2013-01-13 09:37:00,
2013-01-13 04:38:00,61.8,54.5,29.99,WSW,247,5.0,8.0,77,0.00,,---,0.00,VWS V14.01,2013-01-13 09:38:00,
2013-01-13 04:39:00,61.6,54.3,29.99,WNW,295,6.0,8.0,77,0.00,,---,0.00,VWS V14.01,2013-01-13 09:39:00,
2013-01-13 04:40:00,61.6,54.3,29.99,WNW,286,7.0,9.0,77,0.00,,---,0.00,VWS V14.01,2013-01-13 09:40:00,
2013-01-13 04:41:00,61.6,54.3,29.99,West,262,3.0,6.0,77,0.00,,---,0.00,VWS V14.01,2013-01-13 09:41:00,
2013-01-13 04:42:00,61.6,54.3,29.99,WNW,282,9.0,14.0,77,0.00,,---,0.00,VWS V14.01,2013-01-13 09:42:00,
2013-01-13 04:43:00,61.6,54.3,29.99,WNW,293,8.0,14.0,77,0.00,,---,0.00,VWS V14.01,2013-01-13 09:43:00,
2013-01-13 04:44:00,61.5,54.2,29.99,West,262,7.0,14.0,77,0.00,,---,0.00,VWS V14.01,2013-01-13 09:44:00,
2013-01-13 04:45:00,61.5,54.2,30.00,NW,314,7.0,14.0,77,0.00,,---,0.00,VWS V14.01,2013-01-13 09:45:00,
2013-01-13 04:46:00,61.5,54.2,30.00,WNW,300,3.0,14.0,77,0.00,,---,0.00,VWS V14.01,2013-01-13 09:46:00,
2013-01-13 04:47:00,61.5,54.2,30.00,SSW,203,5.0,14.0,77,0.00,,---,0.00,VWS V14.01,2013-01-13 09:47:00,
2013-01-13 04:48:00,61.5,54.2,30.00,WNW,286,6.0,14.0,77,0.00,,---,0.00,VWS V14.01,2013-01-13 09:48:00,
2013-01-13 04:49:00,61.3,54.0,30.00,WNW,285,5.0,14.0,77,0.00,,---,0.00,VWS V14.01,2013-01-13 09:49:00,
2013-01-13 04:50:00,61.3,54.0,30.00,WNW,293,7.0,14.0,77,0.00,,---,0.00,VWS V14.01,2013-01-13 09:50:00,
2013-01-13 04:51:00,61.3,54.0,30.00,WNW,295,3.0,8.0,77,0.00,,---,0.00,VWS V14.01,2013-01-13 09:51:00,
2013-01-13 04:52:00,61.3,54.0,30.00,WNW,303,3.0,8.0,77,0.00,,---,0.00,VWS V14.01,2013-01-13 09:52:00,
2013-01-13 04:53:00,61.3,54.0,30.00,NW,305,0.0,8.0,77,0.00,,---,0.00,VWS V14.01,2013-01-13 09:53:00,
2013-01-13 04:54:00,61.3,54.0,30.00,NW,314,2.0,8.0,77,0.00,,---,0.00,VWS V14.01,2013-01-13 09:54:00,
2013-01-13 04:55:00,61.3,54.0,30.00,NW,306,0.0,8.0,77,0.00,,---,0.00,VWS V14.01,2013-01-13 09:55:00,
2013-01-13 04:56:00,61.2,53.9,30.00,WNW,282,5.0,8.0,77,0.00,,---,0.00,VWS V14.01,2013-01-13 09:56:00,
2013-01-13 04:57:00,61.2,54.3,30.00,NW,314,2.0,8.0,78,0.00,,---,0.00,VWS V14.01,2013-01-13 09:57:00,
2013-01-13 04:58:00,61.2,54.3,30.00,NW,314,1.0,8.0,78,0.00,,---,0.00,VWS V14.01,2013-01-13 09:58:00,
2013-01-13 04:59:00,61.2,54.3,30.00,West,279,4.0,8.0,78,0.00,,---,0.00,VWS V14.01,2013-01-13 09:59:00,
2013-01-13 05:00:00,61.2,54.3,30.00,West,279,3.0,8.0,78,0.00,,---,0.00,VWS V14.01,2013-01-13 10:00:00,
2013-01-13 05:01:00,61.2,54.3,30.00,West,279,5.0,5.0,78,0.00,,---,0.00,VWS V14.01,2013-01-13 10:01:00,
2013-01-13 05:02:00,61.2,54.3,30.00,West,279,1.0,5.0,78,0.00,,---,0.00,VWS V14.01,2013-01-13 10:02:00,
2013-01-13 05:03:00,61.0,54.1,30.00,WNW,299,3.0,6.0,78,0.00,,---,0.00,VWS V14.01,2013-01-13 10:03:00,
2013-01-13 05:04:00,61.0,54.1,30.00,NW,310,7.0,7.0,78,0.00,,---,0.00,VWS V14.01,2013-01-13 10:04:00,
2013-01-13 05:05:00,61.0,54.1,30.00,WNW,286,7.0,7.0,78,0.00,,---,0.00,VWS V14.01,2013-01-13 10:05:00,
2013-01-13 05:06:00,61.0,54.1,30.00,WNW,289,4.0,8.0,78,0.00,,---,0.00,VWS V14.01,2013-01-13 10:06:00,
2013-01-13 05:07:00,61.0,54.1,30.00,WNW,303,5.0,8.0,78,0.00,,---,0.00,VWS V14.01,2013-01-13 10:07:00,
2013-01-13 05:08:00,60.9,54.0,30.00,West,274,3.0,8.0,78,0.00,,---,0.00,VWS V14.01,2013-01-13 10:08:00,
2013-01-13 05:09:00,60.9,54.0,30.00,NW,306,1.0,8.0,78,0.00,,---,0.00,VWS V14.01,2013-01-13 10:09:00,
2013-01-13 05:10:00,60.9,54.0,30.00,West,271,0.0,8.0,78,0.00,,---,0.00,VWS V14.01,2013-01-13 10:10:00,
2013-01-13 05:11:00,60.9,54.0,30.00,West,274,0.0,1.0,78,0.00,,---,0.00,VWS V14.01,2013-01-13 10:11:00,
2013-01-13 05:12:00,60.9,54.0,30.00,West,276,2.0,6.0,78,0.00,,---,0.00,VWS V14.01,2013-01-13 10:12:00,
2013-01-13 05:13:00,60.9,54.0,30.00,West,276,3.0,6.0,78,0.00,,---,0.00,VWS V14.01,2013-01-13 10:13:00,
2013-01-13 05:14:00,60.9,54.0,30.00,West,276,0.0,6.0,78,0.00,,---,0.00,VWS V14.01,2013-01-13 10:14:00,
2013-01-13 05:15:00,60.9,54.0,29.99,West,274,2.0,6.0,78,0.00,,---,0.00,VWS V14.01,2013-01-13 10:15:00,
2013-01-13 05:16:00,60.7,53.8,29.99,WNW,302,5.0,7.0,78,0.00,,---,0.00,VWS V14.01,2013-01-13 10:16:00,
2013-01-13 05:17:00,60.7,53.8,29.99,West,278,3.0,7.0,78,0.00,,---,0.00,VWS V14.01,2013-01-13 10:17:00,
2013-01-13 05:18:00,60.7,53.8,29.99,West,279,3.0,7.0,78,0.00,,---,0.00,VWS V14.01,2013-01-13 10:18:00,
2013-01-13 05:19:00,60.7,53.8,29.99,WNW,292,5.0,7.0,78,0.00,,---,0.00,VWS V14.01,2013-01-13 10:19:00,
2013-01-13 05:20:00,60.7,53.8,29.99,WNW,299,5.0,10.0,78,0.00,,---,0.00,VWS V14.01,2013-01-13 10:20:00,
2013-01-13 05:21:00,60.7,53.8,29.99,WNW,289,3.0,5.0,78,0.00,,---,0.00,VWS V14.01,2013-01-13 10:21:00,
2013-01-13 05:22:00,60.7,53.8,29.99,WNW,286,6.0,8.0,78,0.00,,---,0.00,VWS V14.01,2013-01-13 10:22:00,
2013-01-13 05:23:00,60.5,53.6,29.99,NW,323,5.0,10.0,78,0.00,,---,0.00,VWS V14.01,2013-01-13 10:23:00,
2013-01-13 05:24:00,60.5,53.6,29.99,WNW,289,2.0,10.0,78,0.00,,---,0.00,VWS V14.01,2013-01-13 10:24:00,
2013-01-13 05:25:00,60.5,53.6,29.99,WNW,289,0.0,10.0,78,0.00,,---,0.00,VWS V14.01,2013-01-13 10:25:00,
2013-01-13 05:26:00,60.5,53.6,29.99,NW,322,5.0,10.0,78,0.00,,---,0.00,VWS V14.01,2013-01-13 10:26:00,
2013-01-13 05:27:00,60.5,53.6,29.99,West,266,3.0,10.0,78,0.00,,---,0.00,VWS V14.01,2013-01-13 10:27:00,
2013-01-13 05:28:00,60.5,53.6,29.99,WNW,289,0.0,10.0,78,0.00,,---,0.00,VWS V14.01,2013-01-13 10:28:00,
2013-01-13 05:29:00,60.5,53.6,29.99,WNW,292,3.0,10.0,78,0.00,,---,0.00,VWS V14.01,2013-01-13 10:29:00,
2013-01-13 05:30:00,60.5,53.6,30.00,WNW,295,0.0,10.0,78,0.00,,---,0.00,VWS V14.01,2013-01-13 10:30:00,
2013-01-13 05:31:00,60.5,53.6,30.00,WNW,295,0.0,0.0,78,0.00,,---,0.00,VWS V14.01,2013-01-13 10:31:00,
2013-01-13 05:32:00,60.5,53.6,30.00,WNW,295,0.0,0.0,78,0.00,,---,0.00,VWS V14.01,2013-01-13 10:32:00,
2013-01-13 05:33:00,60.5,53.6,30.00,WNW,295,0.0,0.0,78,0.00,,---,0.00,VWS V14.01,2013-01-13 10:33:00,
2013-01-13 05:34:00,60.5,53.6,30.00,WNW,295,0.0,0.0,78,0.00,,---,0.00,VWS V14.01,2013-01-13 10:34:00,
2013-01-13 05:35:00,60.5,53.6,30.00,WNW,285,5.0,5.0,78,0.00,,---,0.00,VWS V14.01,2013-01-13 10:35:00,
2013-01-13 05:36:00,60.4,53.5,30.00,WNW,289,2.0,5.0,78,0.00,,---,0.00,VWS V14.01,2013-01-13 10:36:00,
2013-01-13 05:37:00,60.4,53.5,30.00,WNW,289,0.0,5.0,78,0.00,,---,0.00,VWS V14.01,2013-01-13 10:37:00,
2013-01-13 05:38:00,60.4,53.5,30.00,WNW,289,0.0,5.0,78,0.00,,---,0.00,VWS V14.01,2013-01-13 10:38:00,
2013-01-13 05:39:00,60.4,53.5,30.00,WNW,289,0.0,5.0,78,0.00,,---,0.00,VWS V14.01,2013-01-13 10:39:00,
2013-01-13 05:40:00,60.4,53.5,30.00,WNW,303,0.0,6.0,78,0.00,,---,0.00,VWS V14.01,2013-01-13 10:40:00,
2013-01-13 05:41:00,60.4,53.5,30.00,West,274,3.0,4.0,78,0.00,,---,0.00,VWS V14.01,2013-01-13 10:41:00,
2013-01-13 05:42:00,60.2,53.3,30.00,West,274,1.0,4.0,78,0.00,,---,0.00,VWS V14.01,2013-01-13 10:42:00,
2013-01-13 05:43:00,60.2,53.3,30.00,West,281,6.0,6.0,78,0.00,,---,0.00,VWS V14.01,2013-01-13 10:43:00,
2013-01-13 05:44:00,60.2,53.3,30.00,West,281,2.0,6.0,78,0.00,,---,0.00,VWS V14.01,2013-01-13 10:44:00,
2013-01-13 05:45:00,60.2,53.3,30.01,West,281,0.0,6.0,78,0.00,,---,0.00,VWS V14.01,2013-01-13 10:45:00,
2013-01-13 05:46:00,60.2,53.3,30.01,West,281,0.0,6.0,78,0.00,,---,0.00,VWS V14.01,2013-01-13 10:46:00,
2013-01-13 05:47:00,60.2,53.3,30.01,West,281,0.0,6.0,78,0.00,,---,0.00,VWS V14.01,2013-01-13 10:47:00,
2013-01-13 05:48:00,60.2,53.3,30.01,West,281,0.0,6.0,78,0.00,,---,0.00,VWS V14.01,2013-01-13 10:48:00,
2013-01-13 05:49:00,60.2,53.3,30.01,West,281,0.0,6.0,78,0.00,,---,0.00,VWS V14.01,2013-01-13 10:49:00,
2013-01-13 05:50:00,60.2,53.3,30.01,West,281,0.0,6.0,78,0.00,,---,0.00,VWS V14.01,2013-01-13 10:50:00,
2013-01-13 05:51:00,60.1,53.2,30.01,West,281,0.0,1.0,78,0.00,,---,0.00,VWS V14.01,2013-01-13 10:51:00,
2013-01-13 05:52:00,60.1,53.6,30.01,West,281,3.0,3.0,79,0.00,,---,0.00,VWS V14.01,2013-01-13 10:52:00,
2013-01-13 05:53:00,60.1,53.6,30.01,West,281,0.0,3.0,79,0.00,,---,0.00,VWS V14.01,2013-01-13 10:53:00,
2013-01-13 05:54:00,60.1,53.6,30.01,West,281,0.0,3.0,79,0.00,,---,0.00,VWS V14.01,2013-01-13 10:54:00,
2013-01-13 05:55:00,60.1,53.6,30.01,West,281,0.0,3.0,79,0.00,,---,0.00,VWS V14.01,2013-01-13 10:55:00,
2013-01-13 05:56:00,60.1,53.6,30.01,West,281,0.0,3.0,79,0.00,,---,0.00,VWS V14.01,2013-01-13 10:56:00,
2013-01-13 05:57:00,60.1,53.6,30.01,West,281,0.0,3.0,79,0.00,,---,0.00,VWS V14.01,2013-01-13 10:57:00,
2013-01-13 05:58:00,59.9,53.4,30.01,West,281,0.0,3.0,79,0.00,,---,0.00,VWS V14.01,2013-01-13 10:58:00,
2013-01-13 05:59:00,59.9,53.4,30.01,West,281,0.0,3.0,79,0.00,,---,0.00,VWS V14.01,2013-01-13 10:59:00,
2013-01-13 06:00:00,59.9,53.4,30.00,West,281,0.0,3.0,79,0.00,,---,0.00,VWS V14.01,2013-01-13 11:00:00,
2013-01-13 06:01:00,59.9,53.4,30.00,West,281,0.0,0.0,79,0.00,,---,0.00,VWS V14.01,2013-01-13 11:01:00,
2013-01-13 06:02:00,59.9,53.4,30.00,West,281,0.0,1.0,79,0.00,,---,0.00,VWS V14.01,2013-01-13 11:02:00,
2013-01-13 06:03:00,59.9,53.4,30.00,West,281,0.0,1.0,79,0.00,,---,0.00,VWS V14.01,2013-01-13 11:03:00,
2013-01-13 06:04:00,59.9,53.4,30.00,West,281,0.0,1.0,79,0.00,,---,0.00,VWS V14.01,2013-01-13 11:04:00,
2013-01-13 06:05:00,59.8,53.3,30.00,West,281,0.0,1.0,79,0.00,,---,0.00,VWS V14.01,2013-01-13 11:05:00,
2013-01-13 06:06:00,59.8,53.3,30.00,West,281,0.0,1.0,79,0.00,,---,0.00,VWS V14.01,2013-01-13 11:06:00,
2013-01-13 06:07:00,59.8,53.3,30.00,West,281,0.0,1.0,79,0.00,,---,0.00,VWS V14.01,2013-01-13 11:07:00,
2013-01-13 06:08:00,59.8,53.3,30.00,West,281,0.0,2.0,79,0.00,,---,0.00,VWS V14.01,2013-01-13 11:08:00,
2013-01-13 06:09:00,59.8,53.3,30.00,West,281,0.0,2.0,79,0.00,,---,0.00,VWS V14.01,2013-01-13 11:09:00,
2013-01-13 06:10:00,59.8,53.3,30.00,West,281,3.0,4.0,79,0.00,,---,0.00,VWS V14.01,2013-01-13 11:10:00,
2013-01-13 06:11:00,59.6,53.1,30.00,West,281,0.0,3.0,79,0.00,,---,0.00,VWS V14.01,2013-01-13 11:11:00,
2013-01-13 06:12:00,59.6,53.1,30.00,West,281,0.0,3.0,79,0.00,,---,0.00,VWS V14.01,2013-01-13 11:12:00,
2013-01-13 06:13:00,59.6,53.1,30.00,West,281,0.0,3.0,79,0.00,,---,0.00,VWS V14.01,2013-01-13 11:13:00,
2013-01-13 06:14:00,59.6,53.1,30.00,West,281,0.0,3.0,79,0.00,,---,0.00,VWS V14.01,2013-01-13 11:14:00,
2013-01-13 06:15:00,59.6,53.1,30.00,West,281,0.0,3.0,79,0.00,,---,0.00,VWS V14.01,2013-01-13 11:15:00,
2013-01-13 06:16:00,59.6,53.1,30.00,West,281,0.0,3.0,79,0.00,,---,0.00,VWS V14.01,2013-01-13 11:16:00,
2013-01-13 06:17:00,59.6,53.4,30.00,West,281,0.0,3.0,80,0.00,,---,0.00,VWS V14.01,2013-01-13 11:17:00,
2013-01-13 06:18:00,59.6,53.4,30.00,West,281,0.0,3.0,80,0.00,,---,0.00,VWS V14.01,2013-01-13 11:18:00,
2013-01-13 06:19:00,59.6,53.4,30.00,WNW,288,2.0,6.0,80,0.00,,---,0.00,VWS V14.01,2013-01-13 11:19:00,
2013-01-13 06:20:00,59.5,53.3,30.00,WNW,288,0.0,6.0,80,0.00,,---,0.00,VWS V14.01,2013-01-13 11:20:00,
2013-01-13 06:21:00,59.5,53.3,30.00,WNW,299,3.0,3.0,80,0.00,,---,0.00,VWS V14.01,2013-01-13 11:21:00,
2013-01-13 06:22:00,59.5,53.3,30.00,WNW,299,0.0,4.0,80,0.00,,---,0.00,VWS V14.01,2013-01-13 11:22:00,
2013-01-13 06:23:00,59.5,53.3,30.00,NW,312,1.0,4.0,80,0.00,,---,0.00,VWS V14.01,2013-01-13 11:23:00,
2013-01-13 06:24:00,59.5,53.3,30.00,NW,307,0.0,4.0,80,0.00,,---,0.00,VWS V14.01,2013-01-13 11:24:00,
2013-01-13 06:25:00,59.5,53.3,30.00,NW,307,0.0,4.0,80,0.00,,---,0.00,VWS V14.01,2013-01-13 11:25:00,
2013-01-13 06:26:00,59.5,53.3,30.00,NW,307,0.0,4.0,80,0.00,,---,0.00,VWS V14.01,2013-01-13 11:26:00,
2013-01-13 06:27:00,59.5,53.3,30.00,NW,307,0.0,4.0,80,0.00,,---,0.00,VWS V14.01,2013-01-13 11:27:00,
2013-01-13 06:28:00,59.5,53.3,30.00,NW,306,0.0,4.0,80,0.00,,---,0.00,VWS V14.01,2013-01-13 11:28:00,
2013-01-13 06:29:00,59.5,53.3,30.00,NW,307,0.0,4.0,80,0.00,,---,0.00,VWS V14.01,2013-01-13 11:29:00,
2013-01-13 06:30:00,59.5,53.3,30.00,NW,307,0.0,4.0,80,0.00,,---,0.00,VWS V14.01,2013-01-13 11:30:00,
2013-01-13 06:31:00,59.5,53.3,30.00,NW,307,0.0,0.0,80,0.00,,---,0.00,VWS V14.01,2013-01-13 11:31:00,
2013-01-13 06:32:00,59.5,53.3,30.00,NW,307,0.0,0.0,80,0.00,,---,0.00,VWS V14.01,2013-01-13 11:32:00,
2013-01-13 06:33:00,59.5,53.3,30.00,NW,307,0.0,0.0,80,0.00,,---,0.00,VWS V14.01,2013-01-13 11:33:00,
2013-01-13 06:34:00,59.3,53.1,30.00,NW,307,0.0,0.0,80,0.00,,---,0.00,VWS V14.01,2013-01-13 11:34:00,
2013-01-13 06:35:00,59.3,53.1,30.00,NW,307,0.0,0.0,80,0.00,,---,0.00,VWS V14.01,2013-01-13 11:35:00,
2013-01-13 06:36:00,59.3,53.1,30.00,NW,307,0.0,0.0,80,0.00,,---,0.00,VWS V14.01,2013-01-13 11:36:00,
2013-01-13 06:37:00,59.3,53.1,30.00,WNW,300,0.0,0.0,80,0.00,,---,0.00,VWS V14.01,2013-01-13 11:37:00,
2013-01-13 06:38:00,59.3,53.1,30.00,NW,307,0.0,0.0,80,0.00,,---,0.00,VWS V14.01,2013-01-13 11:38:00,
2013-01-13 06:39:00,59.3,53.1,30.00,NW,307,0.0,0.0,80,0.00,,---,0.00,VWS V14.01,2013-01-13 11:39:00,
2013-01-13 06:40:00,59.3,53.1,30.00,NW,306,0.0,0.0,80,0.00,,---,0.00,VWS V14.01,2013-01-13 11:40:00,
2013-01-13 06:41:00,59.3,53.1,30.00,NW,307,0.0,0.0,80,0.00,,---,0.00,VWS V14.01,2013-01-13 11:41:00,
2013-01-13 06:42:00,59.3,53.5,30.00,NW,307,0.0,0.0,81,0.00,,---,0.00,VWS V14.01,2013-01-13 11:42:00,
2013-01-13 06:43:00,59.3,53.5,30.00,NW,307,0.0,0.0,81,0.00,,---,0.00,VWS V14.01,2013-01-13 11:43:00,
2013-01-13 06:44:00,59.3,53.5,30.00,NW,307,0.0,0.0,81,0.00,,---,0.00,VWS V14.01,2013-01-13 11:44:00,
2013-01-13 06:45:00,59.2,53.4,30.01,NW,307,0.0,0.0,81,0.00,,---,0.00,VWS V14.01,2013-01-13 11:45:00,
2013-01-13 06:46:00,59.2,53.4,30.01,NW,307,0.0,0.0,81,0.00,,---,0.00,VWS V14.01,2013-01-13 11:46:00,
2013-01-13 06:47:00,59.2,53.4,30.01,NW,307,0.0,0.0,81,0.00,,---,0.00,VWS V14.01,2013-01-13 11:47:00,
2013-01-13 06:48:00,59.2,53.4,30.01,NW,307,0.0,0.0,81,0.00,,---,0.00,VWS V14.01,2013-01-13 11:48:00,
2013-01-13 06:49:00,59.2,53.4,30.01,NW,307,0.0,0.0,81,0.00,,---,0.00,VWS V14.01,2013-01-13 11:49:00,
2013-01-13 06:50:00,59.2,53.4,30.01,NW,307,0.0,0.0,81,0.00,,---,0.00,VWS V14.01,2013-01-13 11:50:00,
2013-01-13 06:51:00,59.2,53.4,30.01,NW,307,0.0,0.0,81,0.00,,---,0.00,VWS V14.01,2013-01-13 11:51:00,
2013-01-13 06:52:00,59.2,53.4,30.01,NW,307,0.0,0.0,81,0.00,,---,0.00,VWS V14.01,2013-01-13 11:52:00,
2013-01-13 06:53:00,59.2,53.4,30.01,NW,306,0.0,0.0,81,0.00,,---,0.00,VWS V14.01,2013-01-13 11:53:00,
2013-01-13 06:54:00,59.2,53.4,30.01,NW,307,0.0,0.0,81,0.00,,---,0.00,VWS V14.01,2013-01-13 11:54:00,
2013-01-13 06:55:00,59.0,53.2,30.01,NW,307,0.0,0.0,81,0.00,,---,0.00,VWS V14.01,2013-01-13 11:55:00,
2013-01-13 06:56:00,59.0,53.2,30.01,NW,307,0.0,0.0,81,0.00,,---,0.00,VWS V14.01,2013-01-13 11:56:00,
2013-01-13 06:57:00,59.0,53.2,30.01,NW,307,0.0,0.0,81,0.00,,---,0.00,VWS V14.01,2013-01-13 11:57:00,
2013-01-13 06:58:00,59.0,53.2,30.01,NW,307,0.0,0.0,81,0.00,,---,0.00,VWS V14.01,2013-01-13 11:58:00,
2013-01-13 06:59:00,59.0,53.2,30.01,NW,307,0.0,0.0,81,0.00,,---,0.00,VWS V14.01,2013-01-13 11:59:00,
2013-01-13 07:00:00,58.9,53.1,30.01,NW,307,0.0,0.0,81,0.00,,---,0.00,VWS V14.01,2013-01-13 12:00:00,
2013-01-13 07:01:00,58.9,53.1,30.01,NW,307,0.0,0.0,81,0.00,,---,0.00,VWS V14.01,2013-01-13 12:01:00,
2013-01-13 07:02:00,58.9,53.1,30.01,WNW,300,0.0,1.0,81,0.00,,---,0.00,VWS V14.01,2013-01-13 12:02:00,
2013-01-13 07:03:00,58.9,53.1,30.01,NW,307,0.0,1.0,81,0.00,,---,0.00,VWS V14.01,2013-01-13 12:03:00,
2013-01-13 07:04:00,58.9,53.4,30.01,NW,307,0.0,1.0,82,0.00,,---,0.00,VWS V14.01,2013-01-13 12:04:00,
2013-01-13 07:05:00,58.9,53.4,30.01,NW,307,0.0,1.0,82,0.00,,---,0.00,VWS V14.01,2013-01-13 12:05:00,
2013-01-13 07:06:00,58.9,53.4,30.01,NW,307,0.0,1.0,82,0.00,,---,0.00,VWS V14.01,2013-01-13 12:06:00,
2013-01-13 07:07:00,58.9,53.4,30.01,NW,307,0.0,1.0,82,0.00,,---,0.00,VWS V14.01,2013-01-13 12:07:00,
2013-01-13 07:08:00,58.9,53.4,30.01,NW,307,0.0,1.0,82,0.00,,---,0.00,VWS V14.01,2013-01-13 12:08:00,
2013-01-13 07:09:00,58.7,53.2,30.01,NW,307,0.0,1.0,82,0.00,,---,0.00,VWS V14.01,2013-01-13 12:09:00,
2013-01-13 07:10:00,58.7,53.2,30.01,NW,307,0.0,1.0,82,0.00,,---,0.00,VWS V14.01,2013-01-13 12:10:00,
2013-01-13 07:11:00,58.7,53.2,30.01,NW,307,0.0,0.0,82,0.00,,---,0.00,VWS V14.01,2013-01-13 12:11:00,
2013-01-13 07:12:00,58.7,53.2,30.01,NW,307,0.0,0.0,82,0.00,,---,0.00,VWS V14.01,2013-01-13 12:12:00,
2013-01-13 07:13:00,58.7,53.2,30.01,NW,307,0.0,0.0,82,0.00,,---,0.00,VWS V14.01,2013-01-13 12:13:00,
2013-01-13 07:14:00,58.7,53.2,30.01,NW,306,0.0,0.0,82,0.00,,---,0.00,VWS V14.01,2013-01-13 12:14:00,
2013-01-13 07:15:00,58.7,53.2,30.00,NW,307,0.0,0.0,82,0.00,,---,0.00,VWS V14.01,2013-01-13 12:15:00,
2013-01-13 07:16:00,58.7,53.2,30.00,NW,307,0.0,2.0,82,0.00,,---,0.00,VWS V14.01,2013-01-13 12:16:00,
2013-01-13 07:17:00,58.6,53.1,30.00,NW,307,0.0,2.0,82,0.00,,---,0.00,VWS V14.01,2013-01-13 12:17:00,
2013-01-13 07:18:00,58.6,53.1,30.00,NW,307,0.0,2.0,82,0.00,,---,0.00,VWS V14.01,2013-01-13 12:18:00,
2013-01-13 07:19:00,58.6,53.1,30.00,NW,307,0.0,2.0,82,0.00,,---,0.00,VWS V14.01,2013-01-13 12:19:00,
2013-01-13 07:20:00,58.6,53.1,30.00,NW,307,0.0,2.0,82,0.00,,---,0.00,VWS V14.01,2013-01-13 12:20:00,
2013-01-13 07:21:00,58.6,53.1,30.00,NW,307,0.0,0.0,82,0.00,,---,0.00,VWS V14.01,2013-01-13 12:21:00,
2013-01-13 07:22:00,58.6,53.1,30.00,NW,307,0.0,0.0,82,0.00,,---,0.00,VWS V14.01,2013-01-13 12:22:00,
2013-01-13 07:23:00,58.6,53.1,30.00,NW,307,0.0,0.0,82,0.00,,---,0.00,VWS V14.01,2013-01-13 12:23:00,
2013-01-13 07:24:00,58.6,53.1,30.00,NW,307,0.0,0.0,82,0.00,,---,0.00,VWS V14.01,2013-01-13 12:24:00,
2013-01-13 07:25:00,58.6,53.1,30.00,NW,307,0.0,0.0,82,0.00,,---,0.00,VWS V14.01,2013-01-13 12:25:00,
2013-01-13 07:26:00,58.4,52.9,30.00,NW,306,0.0,0.0,82,0.00,,---,0.00,VWS V14.01,2013-01-13 12:26:00,
2013-01-13 07:27:00,58.4,52.9,30.00,NW,306,0.0,0.0,82,0.00,,---,0.00,VWS V14.01,2013-01-13 12:27:00,
2013-01-13 07:28:00,58.4,52.9,30.00,NW,307,0.0,0.0,82,0.00,,---,0.00,VWS V14.01,2013-01-13 12:28:00,
2013-01-13 07:29:00,58.4,53.3,30.00,NW,307,0.0,0.0,83,0.00,,---,0.00,VWS V14.01,2013-01-13 12:29:00,
2013-01-13 07:30:00,58.4,53.3,30.00,NW,307,0.0,0.0,83,0.00,,---,0.00,VWS V14.01,2013-01-13 12:30:00,
2013-01-13 07:31:00,58.4,53.3,30.00,NW,307,0.0,0.0,83,0.00,,---,0.00,VWS V14.01,2013-01-13 12:31:00,
2013-01-13 07:32:00,58.4,53.3,30.00,NW,307,0.0,0.0,83,0.00,,---,0.00,VWS V14.01,2013-01-13 12:32:00,
2013-01-13 07:33:00,58.4,53.3,30.00,NW,307,0.0,0.0,83,0.00,,---,0.00,VWS V14.01,2013-01-13 12:33:00,
2013-01-13 07:34:00,58.4,53.3,30.00,NW,307,0.0,0.0,83,0.00,,---,0.00,VWS V14.01,2013-01-13 12:34:00,
2013-01-13 07:35:00,58.4,53.3,30.00,NW,307,0.0,0.0,83,0.00,,---,0.00,VWS V14.01,2013-01-13 12:35:00,
2013-01-13 07:36:00,58.3,53.2,30.00,NW,307,0.0,0.0,83,0.00,,---,0.00,VWS V14.01,2013-01-13 12:36:00,
2013-01-13 07:37:00,58.3,53.2,30.00,NW,307,0.0,0.0,83,0.00,,---,0.00,VWS V14.01,2013-01-13 12:37:00,
2013-01-13 07:38:00,58.3,53.2,30.00,NW,307,0.0,0.0,83,0.00,,---,0.00,VWS V14.01,2013-01-13 12:38:00,
2013-01-13 07:39:00,58.3,53.2,30.00,NW,307,0.0,0.0,83,0.00,,---,0.00,VWS V14.01,2013-01-13 12:39:00,
2013-01-13 07:40:00,58.3,53.2,30.00,NW,306,0.0,0.0,83,0.00,,---,0.00,VWS V14.01,2013-01-13 12:40:00,
2013-01-13 07:41:00,58.3,53.2,30.00,NW,307,0.0,0.0,83,0.00,,---,0.00,VWS V14.01,2013-01-13 12:41:00,
2013-01-13 07:42:00,58.3,53.2,30.00,NW,307,0.0,0.0,83,0.00,,---,0.00,VWS V14.01,2013-01-13 12:42:00,
2013-01-13 07:43:00,58.3,53.5,30.00,NW,307,0.0,0.0,84,0.00,,---,0.00,VWS V14.01,2013-01-13 12:43:00,
2013-01-13 07:44:00,58.3,53.5,30.00,NW,307,0.0,0.0,84,0.00,,---,0.00,VWS V14.01,2013-01-13 12:44:00,
2013-01-13 07:45:00,58.3,53.5,29.99,NW,307,0.0,0.0,84,0.00,,---,0.00,VWS V14.01,2013-01-13 12:45:00,
2013-01-13 07:46:00,58.3,53.5,29.99,NW,306,0.0,0.0,84,0.00,,---,0.00,VWS V14.01,2013-01-13 12:46:00,
2013-01-13 07:47:00,58.3,53.5,29.99,NW,307,0.0,0.0,84,0.00,,---,0.00,VWS V14.01,2013-01-13 12:47:00,
2013-01-13 07:48:00,58.1,53.3,29.99,NW,307,0.0,0.0,84,0.00,,---,0.00,VWS V14.01,2013-01-13 12:48:00,
2013-01-13 07:49:00,58.1,53.3,29.99,NW,307,0.0,0.0,84,0.00,,---,0.00,VWS V14.01,2013-01-13 12:49:00,
2013-01-13 07:50:00,58.1,53.3,29.99,NW,307,0.0,0.0,84,0.00,,---,0.00,VWS V14.01,2013-01-13 12:50:00,
2013-01-13 07:51:00,58.1,53.3,29.99,NW,307,0.0,0.0,84,0.00,,---,0.00,VWS V14.01,2013-01-13 12:51:00,
2013-01-13 07:52:00,58.1,53.3,29.99,NW,307,0.0,0.0,84,0.00,,---,0.00,VWS V14.01,2013-01-13 12:52:00,
2013-01-13 07:53:00,58.1,53.3,29.99,NW,307,0.0,0.0,84,0.00,,---,0.00,VWS V14.01,2013-01-13 12:53:00,
2013-01-13 07:54:00,58.1,53.3,29.99,NW,307,0.0,0.0,84,0.00,,---,0.00,VWS V14.01,2013-01-13 12:54:00,
2013-01-13 07:55:00,58.1,53.3,29.99,NW,307,0.0,0.0,84,0.00,,---,0.00,VWS V14.01,2013-01-13 12:55:00,
2013-01-13 07:56:00,58.1,53.6,29.99,NW,307,2.0,2.0,85,0.00,,---,0.00,VWS V14.01,2013-01-13 12:56:00,
2013-01-13 07:57:00,58.1,53.3,29.99,NW,307,0.0,2.0,84,0.00,,---,0.00,VWS V14.01,2013-01-13 12:57:00,
2013-01-13 07:58:00,58.1,53.3,29.99,NW,307,0.0,2.0,84,0.00,,---,0.00,VWS V14.01,2013-01-13 12:58:00,
2013-01-13 07:59:00,58.1,53.3,29.99,NW,307,0.0,2.0,84,0.00,,---,0.00,VWS V14.01,2013-01-13 12:59:00,
2013-01-13 08:00:00,58.0,53.2,29.99,NW,307,0.0,2.0,84,0.00,,---,0.00,VWS V14.01,2013-01-13 13:00:00,
2013-01-13 08:01:00,58.0,53.2,29.99,NW,307,0.0,0.0,84,0.00,,---,0.00,VWS V14.01,2013-01-13 13:01:00,
2013-01-13 08:02:00,58.0,53.2,29.99,NW,307,0.0,0.0,84,0.00,,---,0.00,VWS V14.01,2013-01-13 13:02:00,
2013-01-13 08:03:00,58.0,53.2,29.99,NW,307,0.0,0.0,84,0.00,,---,0.00,VWS V14.01,2013-01-13 13:03:00,
2013-01-13 08:04:00,58.0,53.2,29.99,NW,307,0.0,0.0,84,0.00,,---,0.00,VWS V14.01,2013-01-13 13:04:00,
2013-01-13 08:05:00,58.0,53.5,29.99,NW,307,0.0,0.0,85,0.00,,---,0.00,VWS V14.01,2013-01-13 13:05:00,
2013-01-13 08:06:00,58.0,53.5,29.99,NW,307,0.0,0.0,85,0.00,,---,0.00,VWS V14.01,2013-01-13 13:06:00,
2013-01-13 08:07:00,58.0,53.5,29.99,NW,307,0.0,0.0,85,0.00,,---,0.00,VWS V14.01,2013-01-13 13:07:00,
2013-01-13 08:08:00,58.0,53.5,29.99,NW,307,0.0,0.0,85,0.00,,---,0.00,VWS V14.01,2013-01-13 13:08:00,
2013-01-13 08:09:00,58.1,53.6,29.99,NW,307,0.0,0.0,85,0.00,,---,0.00,VWS V14.01,2013-01-13 13:09:00,
2013-01-13 08:10:00,58.1,53.6,29.99,NW,307,0.0,0.0,85,0.00,,---,0.00,VWS V14.01,2013-01-13 13:10:00,
2013-01-13 08:11:00,58.1,53.9,29.99,NW,307,0.0,0.0,86,0.00,,---,0.00,VWS V14.01,2013-01-13 13:11:00,
2013-01-13 08:12:00,58.1,53.6,29.99,NW,307,0.0,0.0,85,0.00,,---,0.00,VWS V14.01,2013-01-13 13:12:00,
2013-01-13 08:13:00,58.1,53.6,29.99,NW,307,0.0,0.0,85,0.00,,---,0.00,VWS V14.01,2013-01-13 13:13:00,
2013-01-13 08:14:00,58.0,53.5,29.99,NW,307,0.0,0.0,85,0.00,,---,0.00,VWS V14.01,2013-01-13 13:14:00,
2013-01-13 08:15:00,58.0,53.5,29.99,NW,307,0.0,0.0,85,0.00,,---,0.00,VWS V14.01,2013-01-13 13:15:00,
2013-01-13 08:16:00,58.0,53.5,29.99,NW,307,0.0,0.0,85,0.00,,---,0.00,VWS V14.01,2013-01-13 13:16:00,
2013-01-13 08:17:00,58.0,53.5,29.99,NW,307,0.0,0.0,85,0.00,,---,0.00,VWS V14.01,2013-01-13 13:17:00,
2013-01-13 08:18:00,58.0,53.5,29.99,NW,307,0.0,0.0,85,0.00,,---,0.00,VWS V14.01,2013-01-13 13:18:00,
2013-01-13 08:19:00,58.0,53.5,29.99,NW,307,0.0,0.0,85,0.00,,---,0.00,VWS V14.01,2013-01-13 13:19:00,
2013-01-13 08:20:00,58.0,53.5,29.99,NW,307,0.0,0.0,85,0.00,,---,0.00,VWS V14.01,2013-01-13 13:20:00,
2013-01-13 08:21:00,58.0,53.5,29.99,NW,307,0.0,0.0,85,0.00,,---,0.00,VWS V14.01,2013-01-13 13:21:00,
2013-01-13 08:22:00,58.0,53.5,29.99,NW,307,0.0,0.0,85,0.00,,---,0.00,VWS V14.01,2013-01-13 13:22:00,
2013-01-13 08:23:00,58.0,53.5,29.99,NW,307,0.0,0.0,85,0.00,,---,0.00,VWS V14.01,2013-01-13 13:23:00,
2013-01-13 08:24:00,58.0,53.8,29.99,NW,307,0.0,0.0,86,0.00,,---,0.00,VWS V14.01,2013-01-13 13:24:00,
2013-01-13 08:25:00,58.0,53.8,29.99,NW,307,0.0,0.0,86,0.00,,---,0.00,VWS V14.01,2013-01-13 13:25:00,
2013-01-13 08:26:00,58.0,53.8,29.99,NW,307,0.0,0.0,86,0.00,,---,0.00,VWS V14.01,2013-01-13 13:26:00,
2013-01-13 08:27:00,58.0,53.8,29.99,NW,307,0.0,0.0,86,0.00,,---,0.00,VWS V14.01,2013-01-13 13:27:00,
2013-01-13 08:28:00,58.0,53.8,29.99,NW,307,0.0,0.0,86,0.00,,---,0.00,VWS V14.01,2013-01-13 13:28:00,
2013-01-13 08:29:00,58.0,53.8,29.99,NW,307,0.0,0.0,86,0.00,,---,0.00,VWS V14.01,2013-01-13 13:29:00,
2013-01-13 08:30:00,58.0,53.8,29.99,NW,307,0.0,0.0,86,0.00,,---,0.00,VWS V14.01,2013-01-13 13:30:00,
2013-01-13 08:31:00,58.0,53.8,29.99,NW,307,0.0,0.0,86,0.00,,---,0.00,VWS V14.01,2013-01-13 13:31:00,
2013-01-13 08:32:00,58.0,53.8,29.99,NW,307,0.0,0.0,86,0.00,,---,0.00,VWS V14.01,2013-01-13 13:32:00,
2013-01-13 08:33:00,58.0,53.8,29.99,NW,307,0.0,0.0,86,0.00,,---,0.00,VWS V14.01,2013-01-13 13:33:00,
2013-01-13 08:34:00,58.0,53.8,29.99,NW,307,0.0,0.0,86,0.00,,---,0.00,VWS V14.01,2013-01-13 13:34:00,
2013-01-13 08:35:00,58.0,53.8,29.99,NW,307,0.0,0.0,86,0.00,,---,0.00,VWS V14.01,2013-01-13 13:35:00,
2013-01-13 08:36:00,58.1,53.9,29.99,NW,307,0.0,0.0,86,0.00,,---,0.00,VWS V14.01,2013-01-13 13:36:00,
2013-01-13 08:37:00,58.1,53.9,29.99,NW,307,0.0,0.0,86,0.00,,---,0.00,VWS V14.01,2013-01-13 13:37:00,
2013-01-13 08:38:00,58.1,53.9,29.99,WNW,299,3.0,3.0,86,0.00,,---,0.00,VWS V14.01,2013-01-13 13:38:00,
2013-01-13 08:39:00,58.3,54.5,29.99,WNW,299,0.0,3.0,87,0.00,,---,0.00,VWS V14.01,2013-01-13 13:39:00,
2013-01-13 08:40:00,58.3,54.5,29.99,WNW,299,0.0,3.0,87,0.00,,---,0.00,VWS V14.01,2013-01-13 13:40:00,
2013-01-13 08:41:00,58.3,54.5,29.99,WNW,299,0.0,0.0,87,0.00,,---,0.00,VWS V14.01,2013-01-13 13:41:00,
2013-01-13 08:42:00,58.3,54.5,29.99,WNW,299,0.0,0.0,87,0.00,,---,0.00,VWS V14.01,2013-01-13 13:42:00,
2013-01-13 08:43:00,58.3,54.5,29.99,WNW,299,0.0,0.0,87,0.00,,---,0.00,VWS V14.01,2013-01-13 13:43:00,
2013-01-13 08:44:00,58.3,54.5,29.99,WNW,299,0.0,0.0,87,0.00,,---,0.00,VWS V14.01,2013-01-13 13:44:00,
2013-01-13 08:45:00,58.3,54.5,30.00,WNW,299,0.0,0.0,87,0.00,,---,0.00,VWS V14.01,2013-01-13 13:45:00,
2013-01-13 08:46:00,58.3,54.5,30.00,WNW,299,0.0,0.0,87,0.00,,---,0.00,VWS V14.01,2013-01-13 13:46:00,
2013-01-13 08:47:00,58.3,54.5,30.00,WNW,299,0.0,0.0,87,0.00,,---,0.00,VWS V14.01,2013-01-13 13:47:00,
2013-01-13 08:48:00,58.3,54.5,30.00,WNW,299,0.0,0.0,87,0.00,,---,0.00,VWS V14.01,2013-01-13 13:48:00,
2013-01-13 08:49:00,58.3,54.5,30.00,WNW,299,0.0,0.0,87,0.00,,---,0.00,VWS V14.01,2013-01-13 13:49:00,
2013-01-13 08:50:00,58.3,54.5,30.00,WNW,299,0.0,0.0,87,0.00,,---,0.00,VWS V14.01,2013-01-13 13:50:00,
2013-01-13 08:51:00,58.4,54.5,30.00,WNW,299,0.0,0.0,87,0.00,,---,0.00,VWS V14.01,2013-01-13 13:51:00,
2013-01-13 08:52:00,58.4,54.5,30.00,WNW,299,0.0,0.0,87,0.00,,---,0.00,VWS V14.01,2013-01-13 13:52:00,
2013-01-13 08:53:00,58.4,54.5,30.00,WNW,299,0.0,0.0,87,0.00,,---,0.00,VWS V14.01,2013-01-13 13:53:00,
2013-01-13 08:54:00,58.4,54.5,30.00,WNW,299,0.0,0.0,87,0.00,,---,0.00,VWS V14.01,2013-01-13 13:54:00,
2013-01-13 08:55:00,58.4,54.5,30.00,WNW,299,0.0,0.0,87,0.00,,---,0.00,VWS V14.01,2013-01-13 13:55:00,
2013-01-13 08:56:00,58.4,54.5,30.00,WNW,299,0.0,0.0,87,0.00,,---,0.00,VWS V14.01,2013-01-13 13:56:00,
2013-01-13 08:57:00,58.4,54.5,30.00,WNW,299,0.0,0.0,87,0.00,,---,0.00,VWS V14.01,2013-01-13 13:57:00,
2013-01-13 08:58:00,58.4,54.5,30.00,WNW,299,0.0,0.0,87,0.00,,---,0.00,VWS V14.01,2013-01-13 13:58:00,
2013-01-13 08:59:00,58.4,54.5,30.00,WNW,299,0.0,0.0,87,0.00,,---,0.00,VWS V14.01,2013-01-13 13:59:00,
2013-01-13 09:00:00,58.4,54.5,29.99,WNW,299,0.0,0.0,87,0.00,,---,0.00,VWS V14.01,2013-01-13 14:00:00,
2013-01-13 09:01:00,58.4,54.5,29.99,WNW,299,0.0,0.0,87,0.00,,---,0.00,VWS V14.01,2013-01-13 14:01:00,
2013-01-13 09:02:00,58.4,54.5,29.99,WNW,299,0.0,0.0,87,0.00,,---,0.00,VWS V14.01,2013-01-13 14:02:00,
2013-01-13 09:03:00,58.4,54.5,29.99,WNW,299,0.0,0.0,87,0.00,,---,0.00,VWS V14.01,2013-01-13 14:03:00,
2013-01-13 09:04:00,58.4,54.5,29.99,WNW,299,0.0,0.0,87,0.00,,---,0.00,VWS V14.01,2013-01-13 14:04:00,
2013-01-13 09:05:00,58.4,54.5,29.99,WNW,299,0.0,0.0,87,0.00,,---,0.00,VWS V14.01,2013-01-13 14:05:00,
2013-01-13 09:06:00,58.4,54.5,29.99,WNW,299,0.0,0.0,87,0.00,,---,0.00,VWS V14.01,2013-01-13 14:06:00,
2013-01-13 09:07:00,58.4,54.5,29.99,WNW,299,0.0,0.0,87,0.00,,---,0.00,VWS V14.01,2013-01-13 14:07:00,
2013-01-13 09:08:00,58.4,54.5,29.99,WNW,299,0.0,0.0,87,0.00,,---,0.00,VWS V14.01,2013-01-13 14:08:00,
2013-01-13 09:09:00,58.4,54.5,29.99,WNW,299,0.0,0.0,87,0.00,,---,0.00,VWS V14.01,2013-01-13 14:09:00,
2013-01-13 09:10:00,58.4,54.5,29.99,WNW,299,0.0,0.0,87,0.00,,---,0.00,VWS V14.01,2013-01-13 14:10:00,
2013-01-13 09:11:00,58.6,54.8,29.99,WNW,299,0.0,0.0,87,0.00,,---,0.00,VWS V14.01,2013-01-13 14:11:00,
2013-01-13 09:12:00,58.6,54.8,29.99,WNW,299,0.0,0.0,87,0.00,,---,0.00,VWS V14.01,2013-01-13 14:12:00,
2013-01-13 09:13:00,58.6,54.8,29.99,WNW,299,0.0,0.0,87,0.00,,---,0.00,VWS V14.01,2013-01-13 14:13:00,
2013-01-13 09:14:00,58.6,54.8,29.99,WNW,299,0.0,0.0,87,0.00,,---,0.00,VWS V14.01,2013-01-13 14:14:00,
2013-01-13 09:15:00,58.6,54.8,29.99,WNW,299,0.0,0.0,87,0.00,,---,0.00,VWS V14.01,2013-01-13 14:15:00,
2013-01-13 09:16:00,58.6,54.8,29.99,WNW,299,0.0,0.0,87,0.00,,---,0.00,VWS V14.01,2013-01-13 14:16:00,
2013-01-13 09:17:00,58.6,54.8,29.99,WNW,299,0.0,0.0,87,0.00,,---,0.00,VWS V14.01,2013-01-13 14:17:00,
2013-01-13 09:18:00,58.6,54.8,29.99,WNW,299,0.0,0.0,87,0.00,,---,0.00,VWS V14.01,2013-01-13 14:18:00,
2013-01-13 09:19:00,58.6,54.8,29.99,WNW,299,0.0,0.0,87,0.00,,---,0.00,VWS V14.01,2013-01-13 14:19:00,
2013-01-13 09:20:00,58.6,54.8,29.99,WNW,299,0.0,0.0,87,0.00,,---,0.00,VWS V14.01,2013-01-13 14:20:00,
2013-01-13 09:21:00,58.6,54.8,29.99,WNW,299,0.0,0.0,87,0.00,,---,0.00,VWS V14.01,2013-01-13 14:21:00,
2013-01-13 09:22:00,58.6,54.8,29.99,WNW,299,0.0,1.0,87,0.00,,---,0.00,VWS V14.01,2013-01-13 14:22:00,
2013-01-13 09:23:00,58.6,54.8,29.99,WNW,299,0.0,1.0,87,0.00,,---,0.00,VWS V14.01,2013-01-13 14:23:00,
2013-01-13 09:24:00,58.6,54.8,29.99,WNW,299,0.0,1.0,87,0.00,,---,0.00,VWS V14.01,2013-01-13 14:24:00,
2013-01-13 09:25:00,58.6,54.8,29.99,WNW,299,0.0,1.0,87,0.00,,---,0.00,VWS V14.01,2013-01-13 14:25:00,
2013-01-13 09:26:00,58.6,54.8,29.99,WNW,299,0.0,1.0,87,0.00,,---,0.00,VWS V14.01,2013-01-13 14:26:00,
2013-01-13 09:27:00,58.6,54.8,29.99,WNW,299,0.0,1.0,87,0.00,,---,0.00,VWS V14.01,2013-01-13 14:27:00,
2013-01-13 09:28:00,58.6,54.8,29.99,WNW,299,0.0,1.0,87,0.00,,---,0.00,VWS V14.01,2013-01-13 14:28:00,
2013-01-13 09:29:00,58.6,54.8,29.99,WNW,299,0.0,1.0,87,0.00,,---,0.00,VWS V14.01,2013-01-13 14:29:00,
2013-01-13 09:30:00,58.6,54.8,29.99,WNW,299,0.0,1.0,87,0.00,,---,0.00,VWS V14.01,2013-01-13 14:30:00,
2013-01-13 09:31:00,58.6,54.8,29.99,WNW,299,0.0,0.0,87,0.00,,---,0.00,VWS V14.01,2013-01-13 14:31:00,
2013-01-13 09:32:00,58.6,54.8,29.99,WNW,299,0.0,0.0,87,0.00,,---,0.00,VWS V14.01,2013-01-13 14:32:00,
2013-01-13 09:33:00,58.6,54.8,29.99,WNW,299,0.0,0.0,87,0.00,,---,0.00,VWS V14.01,2013-01-13 14:33:00,
2013-01-13 09:34:00,58.6,54.8,29.99,WNW,299,0.0,0.0,87,0.00,,---,0.00,VWS V14.01,2013-01-13 14:34:00,
2013-01-13 09:35:00,58.6,54.8,29.99,WNW,299,0.0,0.0,87,0.00,,---,0.00,VWS V14.01,2013-01-13 14:35:00,
2013-01-13 09:36:00,58.6,54.8,29.99,WNW,299,0.0,0.0,87,0.00,,---,0.00,VWS V14.01,2013-01-13 14:36:00,
2013-01-13 09:37:00,58.6,54.8,29.99,WNW,299,0.0,0.0,87,0.00,,---,0.00,VWS V14.01,2013-01-13 14:37:00,
2013-01-13 09:38:00,58.6,54.8,29.99,WNW,299,0.0,0.0,87,0.00,,---,0.00,VWS V14.01,2013-01-13 14:38:00,
2013-01-13 09:39:00,58.6,54.8,29.99,WNW,299,0.0,0.0,87,0.00,,---,0.00,VWS V14.01,2013-01-13 14:39:00,
2013-01-13 09:40:00,58.6,54.8,29.99,WNW,299,0.0,0.0,87,0.00,,---,0.00,VWS V14.01,2013-01-13 14:40:00,
2013-01-13 09:41:00,58.6,54.8,29.99,WNW,299,0.0,0.0,87,0.00,,---,0.00,VWS V14.01,2013-01-13 14:41:00,
2013-01-13 09:42:00,58.6,54.8,29.99,WNW,299,0.0,0.0,87,0.00,,---,0.00,VWS V14.01,2013-01-13 14:42:00,
2013-01-13 09:43:00,58.6,54.8,29.99,WNW,299,0.0,0.0,87,0.00,,---,0.00,VWS V14.01,2013-01-13 14:43:00,
2013-01-13 09:44:00,58.6,54.8,29.99,WNW,299,0.0,0.0,87,0.00,,---,0.00,VWS V14.01,2013-01-13 14:44:00,
2013-01-13 09:45:00,58.6,54.8,29.99,WNW,299,0.0,0.0,87,0.00,,---,0.00,VWS V14.01,2013-01-13 14:45:00,
2013-01-13 09:46:00,58.6,54.8,29.99,WNW,299,0.0,0.0,87,0.00,,---,0.00,VWS V14.01,2013-01-13 14:46:00,
2013-01-13 09:47:00,58.6,54.8,29.99,WNW,299,0.0,0.0,87,0.00,,---,0.00,VWS V14.01,2013-01-13 14:47:00,
2013-01-13 09:48:00,58.6,54.8,29.99,WNW,299,0.0,0.0,87,0.00,,---,0.00,VWS V14.01,2013-01-13 14:48:00,
2013-01-13 09:49:00,58.7,54.8,29.99,WNW,299,0.0,0.0,87,0.00,,---,0.00,VWS V14.01,2013-01-13 14:49:00,
2013-01-13 09:50:00,58.7,54.8,29.99,WNW,299,0.0,0.0,87,0.00,,---,0.00,VWS V14.01,2013-01-13 14:50:00,
2013-01-13 09:51:00,58.7,55.2,29.99,WNW,299,0.0,0.0,88,0.00,,---,0.00,VWS V14.01,2013-01-13 14:51:00,
2013-01-13 09:52:00,58.7,55.2,29.99,WNW,299,0.0,0.0,88,0.00,,---,0.00,VWS V14.01,2013-01-13 14:52:00,
2013-01-13 09:53:00,58.7,55.2,29.99,WNW,299,0.0,0.0,88,0.00,,---,0.00,VWS V14.01,2013-01-13 14:53:00,
2013-01-13 09:54:00,58.7,55.2,29.99,WNW,299,0.0,1.0,88,0.00,,---,0.00,VWS V14.01,2013-01-13 14:54:00,
2013-01-13 09:55:00,58.7,55.2,29.99,WNW,299,0.0,1.0,88,0.00,,---,0.00,VWS V14.01,2013-01-13 14:55:00,
2013-01-13 09:56:00,58.7,55.2,29.99,WNW,299,0.0,1.0,88,0.00,,---,0.00,VWS V14.01,2013-01-13 14:56:00,
2013-01-13 09:57:00,58.9,55.4,29.99,WNW,299,0.0,1.0,88,0.00,,---,0.00,VWS V14.01,2013-01-13 14:57:00,
2013-01-13 09:58:00,58.9,55.4,29.99,WNW,299,0.0,1.0,88,0.00,,---,0.00,VWS V14.01,2013-01-13 14:58:00,
2013-01-13 09:59:00,58.9,55.4,29.99,WNW,299,2.0,2.0,88,0.00,,---,0.00,VWS V14.01,2013-01-13 14:59:00,
2013-01-13 10:00:00,58.9,55.4,29.98,WNW,299,0.0,3.0,88,0.00,,---,0.00,VWS V14.01,2013-01-13 15:00:00,
2013-01-13 10:01:00,58.9,55.4,29.98,WNW,299,0.0,0.0,88,0.00,,---,0.00,VWS V14.01,2013-01-13 15:01:00,
2013-01-13 10:02:00,58.9,55.4,29.98,WNW,299,0.0,0.0,88,0.00,,---,0.00,VWS V14.01,2013-01-13 15:02:00,
2013-01-13 10:03:00,58.9,55.4,29.98,NW,313,5.0,5.0,88,0.00,,---,0.00,VWS V14.01,2013-01-13 15:03:00,
2013-01-13 10:04:00,59.0,55.5,29.98,WNW,295,4.0,6.0,88,0.00,,---,0.00,VWS V14.01,2013-01-13 15:04:00,
2013-01-13 10:05:00,59.0,55.5,29.98,WNW,295,2.0,6.0,88,0.00,,---,0.00,VWS V14.01,2013-01-13 15:05:00,
2013-01-13 10:06:00,59.0,55.5,29.98,WNW,295,0.0,6.0,88,0.00,,---,0.00,VWS V14.01,2013-01-13 15:06:00,
2013-01-13 10:07:00,59.0,55.5,29.98,WNW,295,0.0,6.0,88,0.00,,---,0.00,VWS V14.01,2013-01-13 15:07:00,
2013-01-13 10:08:00,59.0,55.5,29.98,WNW,295,0.0,6.0,88,0.00,,---,0.00,VWS V14.01,2013-01-13 15:08:00,
2013-01-13 10:09:00,59.0,55.5,29.98,WNW,295,0.0,6.0,88,0.00,,---,0.00,VWS V14.01,2013-01-13 15:09:00,
2013-01-13 10:10:00,59.2,55.3,29.98,WNW,295,3.0,6.0,87,0.00,,---,0.00,VWS V14.01,2013-01-13 15:10:00,
2013-01-13 10:11:00,59.2,55.3,29.98,WNW,296,0.0,4.0,87,0.00,,---,0.00,VWS V14.01,2013-01-13 15:11:00,
2013-01-13 10:12:00,59.2,55.3,29.98,WNW,296,0.0,4.0,87,0.00,,---,0.00,VWS V14.01,2013-01-13 15:12:00,
2013-01-13 10:13:00,59.2,55.3,29.98,WNW,298,1.0,4.0,87,0.00,,---,0.00,VWS V14.01,2013-01-13 15:13:00,
2013-01-13 10:14:00,59.2,55.3,29.98,NW,319,3.0,8.0,87,0.00,,---,0.00,VWS V14.01,2013-01-13 15:14:00,
2013-01-13 10:15:00,59.2,55.3,29.98,NW,317,0.0,8.0,87,0.00,,---,0.00,VWS V14.01,2013-01-13 15:15:00,
2013-01-13 10:16:00,59.3,55.4,29.98,NW,317,0.0,8.0,87,0.00,,---,0.00,VWS V14.01,2013-01-13 15:16:00,
2013-01-13 10:17:00,59.3,55.4,29.98,NW,317,0.0,8.0,87,0.00,,---,0.00,VWS V14.01,2013-01-13 15:17:00,
2013-01-13 10:18:00,59.3,55.4,29.98,NW,317,0.0,8.0,87,0.00,,---,0.00,VWS V14.01,2013-01-13 15:18:00,
2013-01-13 10:19:00,59.3,55.4,29.98,WNW,295,5.0,8.0,87,0.00,,---,0.00,VWS V14.01,2013-01-13 15:19:00,
2013-01-13 10:20:00,59.3,55.4,29.98,WNW,296,0.0,8.0,87,0.00,,---,0.00,VWS V14.01,2013-01-13 15:20:00,
2013-01-13 10:21:00,59.3,55.4,29.98,North,357,7.0,7.0,87,0.00,,---,0.00,VWS V14.01,2013-01-13 15:21:00,
2013-01-13 10:22:00,59.5,55.6,29.98,North,357,0.0,7.0,87,0.00,,---,0.00,VWS V14.01,2013-01-13 15:22:00,
2013-01-13 10:23:00,59.5,55.6,29.98,North,357,0.0,7.0,87,0.00,,---,0.00,VWS V14.01,2013-01-13 15:23:00,
2013-01-13 10:24:00,59.5,55.6,29.98,North,357,0.0,7.0,87,0.00,,---,0.00,VWS V14.01,2013-01-13 15:24:00,
2013-01-13 10:25:00,59.6,55.7,29.98,North,357,0.0,7.0,87,0.00,,---,0.00,VWS V14.01,2013-01-13 15:25:00,
2013-01-13 10:26:00,59.6,55.7,29.98,NNW,340,2.0,7.0,87,0.00,,---,0.00,VWS V14.01,2013-01-13 15:26:00,
2013-01-13 10:27:00,59.6,55.7,29.98,NNW,340,0.0,7.0,87,0.00,,---,0.00,VWS V14.01,2013-01-13 15:27:00,
2013-01-13 10:28:00,59.6,55.7,29.98,NNW,340,0.0,7.0,87,0.00,,---,0.00,VWS V14.01,2013-01-13 15:28:00,
2013-01-13 10:29:00,59.6,55.7,29.98,NNW,340,0.0,7.0,87,0.00,,---,0.00,VWS V14.01,2013-01-13 15:29:00,
2013-01-13 10:30:00,59.6,55.7,29.98,NNW,340,2.0,7.0,87,0.00,,---,0.00,VWS V14.01,2013-01-13 15:30:00,
2013-01-13 10:31:00,59.8,55.6,29.98,NNW,331,2.0,6.0,86,0.00,,---,0.00,VWS V14.01,2013-01-13 15:31:00,
2013-01-13 10:32:00,59.8,55.6,29.98,WNW,303,1.0,6.0,86,0.00,,---,0.00,VWS V14.01,2013-01-13 15:32:00,
2013-01-13 10:33:00,59.8,55.6,29.98,NW,322,7.0,7.0,86,0.00,,---,0.00,VWS V14.01,2013-01-13 15:33:00,
2013-01-13 10:34:00,59.8,55.6,29.98,WNW,298,2.0,7.0,86,0.00,,---,0.00,VWS V14.01,2013-01-13 15:34:00,
2013-01-13 10:35:00,59.9,55.7,29.98,West,281,4.0,7.0,86,0.00,,---,0.00,VWS V14.01,2013-01-13 15:35:00,
2013-01-13 10:36:00,59.9,55.7,29.98,West,281,0.0,7.0,86,0.00,,---,0.00,VWS V14.01,2013-01-13 15:36:00,
2013-01-13 10:37:00,59.9,55.7,29.98,West,281,0.0,7.0,86,0.00,,---,0.00,VWS V14.01,2013-01-13 15:37:00,
2013-01-13 10:38:00,59.9,55.7,29.98,West,281,0.0,7.0,86,0.00,,---,0.00,VWS V14.01,2013-01-13 15:38:00,
2013-01-13 10:39:00,59.9,55.7,29.98,North,8,7.0,8.0,86,0.00,,---,0.00,VWS V14.01,2013-01-13 15:39:00,
2013-01-13 10:40:00,59.9,55.7,29.98,SW,231,0.0,8.0,86,0.00,,---,0.00,VWS V14.01,2013-01-13 15:40:00,
2013-01-13 10:41:00,59.9,55.7,29.98,SW,234,0.0,0.0,86,0.00,,---,0.00,VWS V14.01,2013-01-13 15:41:00,
2013-01-13 10:42:00,59.9,55.7,29.98,WNW,292,0.0,0.0,86,0.00,,---,0.00,VWS V14.01,2013-01-13 15:42:00,
2013-01-13 10:43:00,60.1,55.9,29.98,WNW,289,0.0,5.0,86,0.00,,---,0.00,VWS V14.01,2013-01-13 15:43:00,
2013-01-13 10:44:00,60.1,55.9,29.98,WNW,289,0.0,5.0,86,0.00,,---,0.00,VWS V14.01,2013-01-13 15:44:00,
2013-01-13 10:45:00,60.1,55.9,29.98,WNW,289,0.0,5.0,86,0.00,,---,0.00,VWS V14.01,2013-01-13 15:45:00,
2013-01-13 10:46:00,60.1,55.9,29.98,WNW,289,0.0,5.0,86,0.00,,---,0.00,VWS V14.01,2013-01-13 15:46:00,
2013-01-13 10:47:00,60.1,55.9,29.98,WNW,289,0.0,5.0,86,0.00,,---,0.00,VWS V14.01,2013-01-13 15:47:00,
2013-01-13 10:48:00,60.1,55.9,29.98,WNW,289,0.0,5.0,86,0.00,,---,0.00,VWS V14.01,2013-01-13 15:48:00,
2013-01-13 10:49:00,60.1,55.9,29.98,WNW,289,0.0,5.0,86,0.00,,---,0.00,VWS V14.01,2013-01-13 15:49:00,
2013-01-13 10:50:00,60.1,55.9,29.98,WNW,289,0.0,5.0,86,0.00,,---,0.00,VWS V14.01,2013-01-13 15:50:00,
2013-01-13 10:51:00,60.1,55.6,29.98,WNW,286,4.0,6.0,85,0.00,,---,0.00,VWS V14.01,2013-01-13 15:51:00,
2013-01-13 10:52:00,60.1,55.6,29.98,WNW,295,8.0,8.0,85,0.00,,---,0.00,VWS V14.01,2013-01-13 15:52:00,
2013-01-13 10:53:00,60.1,55.6,29.98,NW,317,10.0,10.0,85,0.00,,---,0.00,VWS V14.01,2013-01-13 15:53:00,
2013-01-13 10:54:00,60.1,55.6,29.98,WNW,286,5.0,12.0,85,0.00,,---,0.00,VWS V14.01,2013-01-13 15:54:00,
2013-01-13 10:55:00,60.2,55.7,29.98,NW,316,4.0,12.0,85,0.00,,---,0.00,VWS V14.01,2013-01-13 15:55:00,
2013-01-13 10:56:00,60.2,55.7,29.98,NNW,327,0.0,12.0,85,0.00,,---,0.00,VWS V14.01,2013-01-13 15:56:00,
2013-01-13 10:57:00,60.2,55.7,29.98,NW,312,0.0,12.0,85,0.00,,---,0.00,VWS V14.01,2013-01-13 15:57:00,
2013-01-13 10:58:00,60.2,55.7,29.98,NW,310,0.0,12.0,85,0.00,,---,0.00,VWS V14.01,2013-01-13 15:58:00,
2013-01-13 10:59:00,60.2,55.7,29.98,WNW,300,0.0,12.0,85,0.00,,---,0.00,VWS V14.01,2013-01-13 15:59:00,
2013-01-13 11:00:00,60.2,55.7,29.98,NW,320,3.0,12.0,85,0.00,,---,0.00,VWS V14.01,2013-01-13 16:00:00,
2013-01-13 11:01:00,60.4,55.9,29.98,WNW,293,2.0,4.0,85,0.00,,---,0.00,VWS V14.01,2013-01-13 16:01:00,
2013-01-13 11:02:00,60.4,55.9,29.98,WNW,290,3.0,4.0,85,0.00,,---,0.00,VWS V14.01,2013-01-13 16:02:00,
2013-01-13 11:03:00,60.4,55.9,29.98,WNW,290,0.0,4.0,85,0.00,,---,0.00,VWS V14.01,2013-01-13 16:03:00,
2013-01-13 11:04:00,60.4,55.9,29.98,NNE,26,3.0,5.0,85,0.00,,---,0.00,VWS V14.01,2013-01-13 16:04:00,
2013-01-13 11:05:00,60.4,55.9,29.98,NNE,26,0.0,5.0,85,0.00,,---,0.00,VWS V14.01,2013-01-13 16:05:00,
2013-01-13 11:06:00,60.4,55.9,29.98,WNW,289,2.0,5.0,85,0.00,,---,0.00,VWS V14.01,2013-01-13 16:06:00,
2013-01-13 11:07:00,60.4,55.9,29.98,WNW,283,2.0,5.0,85,0.00,,---,0.00,VWS V14.01,2013-01-13 16:07:00,
2013-01-13 11:08:00,60.4,55.9,29.98,WNW,285,0.0,5.0,85,0.00,,---,0.00,VWS V14.01,2013-01-13 16:08:00,
2013-01-13 11:09:00,60.4,55.9,29.98,WNW,285,3.0,5.0,85,0.00,,---,0.00,VWS V14.01,2013-01-13 16:09:00,
2013-01-13 11:10:00,60.4,55.9,29.98,WNW,285,0.0,5.0,85,0.00,,---,0.00,VWS V14.01,2013-01-13 16:10:00,
2013-01-13 11:11:00,60.4,55.9,29.98,WNW,285,0.0,0.0,85,0.00,,---,0.00,VWS V14.01,2013-01-13 16:11:00,
2013-01-13 11:12:00,60.4,55.9,29.98,West,276,0.0,0.0,85,0.00,,---,0.00,VWS V14.01,2013-01-13 16:12:00,
2013-01-13 11:13:00,60.4,55.9,29.98,WNW,285,0.0,0.0,85,0.00,,---,0.00,VWS V14.01,2013-01-13 16:13:00,
2013-01-13 11:14:00,60.4,55.9,29.98,WNW,285,0.0,0.0,85,0.00,,---,0.00,VWS V14.01,2013-01-13 16:14:00,
2013-01-13 11:15:00,60.4,55.5,29.97,WNW,285,0.0,0.0,84,0.00,,---,0.00,VWS V14.01,2013-01-13 16:15:00,
2013-01-13 11:16:00,60.4,55.5,29.97,WNW,285,0.0,0.0,84,0.00,,---,0.00,VWS V14.01,2013-01-13 16:16:00,
2013-01-13 11:17:00,60.4,55.5,29.97,WNW,285,2.0,2.0,84,0.00,,---,0.00,VWS V14.01,2013-01-13 16:17:00,
2013-01-13 11:18:00,60.4,55.5,29.97,WNW,285,2.0,2.0,84,0.00,,---,0.00,VWS V14.01,2013-01-13 16:18:00,
2013-01-13 11:19:00,60.4,55.9,29.97,WNW,285,0.0,2.0,85,0.00,,---,0.00,VWS V14.01,2013-01-13 16:19:00,
2013-01-13 11:20:00,60.4,55.9,29.97,NNW,333,7.0,7.0,85,0.00,,---,0.00,VWS V14.01,2013-01-13 16:20:00,
2013-01-13 11:21:00,60.4,55.9,29.97,NNW,346,5.0,7.0,85,0.00,,---,0.00,VWS V14.01,2013-01-13 16:21:00,
2013-01-13 11:22:00,60.4,55.9,29.97,North,10,0.0,7.0,85,0.00,,---,0.00,VWS V14.01,2013-01-13 16:22:00,
2013-01-13 11:23:00,60.4,55.9,29.97,North,10,0.0,7.0,85,0.00,,---,0.00,VWS V14.01,2013-01-13 16:23:00,
2013-01-13 11:24:00,60.4,55.9,29.97,North,10,0.0,7.0,85,0.00,,---,0.00,VWS V14.01,2013-01-13 16:24:00,
2013-01-13 11:25:00,60.4,55.9,29.97,North,10,0.0,7.0,85,0.00,,---,0.00,VWS V14.01,2013-01-13 16:25:00,
2013-01-13 11:26:00,60.4,55.9,29.97,North,10,0.0,7.0,85,0.00,,---,0.00,VWS V14.01,2013-01-13 16:26:00,
2013-01-13 11:27:00,60.4,55.9,29.97,North,10,0.0,7.0,85,0.00,,---,0.00,VWS V14.01,2013-01-13 16:27:00,
2013-01-13 11:28:00,60.4,55.9,29.97,North,10,0.0,7.0,85,0.00,,---,0.00,VWS V14.01,2013-01-13 16:28:00,
2013-01-13 11:29:00,60.4,55.9,29.97,North,10,0.0,7.0,85,0.00,,---,0.00,VWS V14.01,2013-01-13 16:29:00,
2013-01-13 11:30:00,60.4,55.9,29.97,North,10,0.0,7.0,85,0.00,,---,0.00,VWS V14.01,2013-01-13 16:30:00,
2013-01-13 11:31:00,60.4,55.9,29.97,North,10,0.0,0.0,85,0.00,,---,0.00,VWS V14.01,2013-01-13 16:31:00,
2013-01-13 11:32:00,60.4,55.9,29.97,North,10,0.0,0.0,85,0.00,,---,0.00,VWS V14.01,2013-01-13 16:32:00,
2013-01-13 11:33:00,60.4,55.9,29.97,North,10,0.0,0.0,85,0.00,,---,0.00,VWS V14.01,2013-01-13 16:33:00,
2013-01-13 11:34:00,60.4,55.9,29.97,North,10,0.0,0.0,85,0.00,,---,0.00,VWS V14.01,2013-01-13 16:34:00,
2013-01-13 11:35:00,60.4,55.9,29.97,North,10,0.0,0.0,85,0.00,,---,0.00,VWS V14.01,2013-01-13 16:35:00,
2013-01-13 11:36:00,60.4,55.9,29.97,North,10,0.0,0.0,85,0.00,,---,0.00,VWS V14.01,2013-01-13 16:36:00,
2013-01-13 11:37:00,60.4,55.9,29.97,North,10,0.0,0.0,85,0.00,,---,0.00,VWS V14.01,2013-01-13 16:37:00,
2013-01-13 11:38:00,60.4,55.9,29.97,North,10,0.0,0.0,85,0.00,,---,0.00,VWS V14.01,2013-01-13 16:38:00,
2013-01-13 11:39:00,60.4,55.9,29.97,North,10,0.0,0.0,85,0.00,,---,0.00,VWS V14.01,2013-01-13 16:39:00,
2013-01-13 11:40:00,60.4,55.9,29.97,North,10,0.0,0.0,85,0.00,,---,0.00,VWS V14.01,2013-01-13 16:40:00,
2013-01-13 11:41:00,60.4,55.9,29.97,North,10,0.0,0.0,85,0.00,,---,0.00,VWS V14.01,2013-01-13 16:41:00,
2013-01-13 11:42:00,60.4,55.9,29.97,North,10,0.0,0.0,85,0.00,,---,0.00,VWS V14.01,2013-01-13 16:42:00,
2013-01-13 11:43:00,60.4,55.9,29.97,North,10,0.0,0.0,85,0.00,,---,0.00,VWS V14.01,2013-01-13 16:43:00,
2013-01-13 11:44:00,60.4,55.9,29.97,North,10,0.0,0.0,85,0.00,,---,0.00,VWS V14.01,2013-01-13 16:44:00,
2013-01-13 11:45:00,60.4,55.9,29.97,North,8,0.0,0.0,85,0.00,,---,0.00,VWS V14.01,2013-01-13 16:45:00,
2013-01-13 11:46:00,60.4,55.9,29.97,North,8,0.0,0.0,85,0.00,,---,0.00,VWS V14.01,2013-01-13 16:46:00,
2013-01-13 11:47:00,60.4,55.9,29.97,North,8,0.0,0.0,85,0.00,,---,0.00,VWS V14.01,2013-01-13 16:47:00,
2013-01-13 11:48:00,60.4,55.9,29.97,North,8,0.0,0.0,85,0.00,,---,0.00,VWS V14.01,2013-01-13 16:48:00,
2013-01-13 11:49:00,60.2,55.7,29.97,North,8,0.0,0.0,85,0.00,,---,0.00,VWS V14.01,2013-01-13 16:49:00,
2013-01-13 11:50:00,60.2,56.0,29.97,North,8,0.0,0.0,86,0.00,,---,0.00,VWS V14.01,2013-01-13 16:50:00,
2013-01-13 11:51:00,60.2,56.0,29.97,North,8,0.0,0.0,86,0.00,,---,0.00,VWS V14.01,2013-01-13 16:51:00,
2013-01-13 11:52:00,60.2,56.0,29.97,North,8,0.0,0.0,86,0.00,,---,0.00,VWS V14.01,2013-01-13 16:52:00,
2013-01-13 11:53:00,60.2,56.0,29.97,North,8,0.0,0.0,86,0.00,,---,0.00,VWS V14.01,2013-01-13 16:53:00,
2013-01-13 11:54:00,60.2,56.0,29.97,North,8,0.0,0.0,86,0.00,,---,0.00,VWS V14.01,2013-01-13 16:54:00,
2013-01-13 11:55:00,60.2,56.0,29.97,North,8,0.0,0.0,86,0.00,,---,0.00,VWS V14.01,2013-01-13 16:55:00,
2013-01-13 11:56:00,60.2,56.0,29.97,North,8,0.0,0.0,86,0.00,,---,0.00,VWS V14.01,2013-01-13 16:56:00,
2013-01-13 11:57:00,60.2,56.0,29.97,North,8,0.0,0.0,86,0.00,,---,0.00,VWS V14.01,2013-01-13 16:57:00,
2013-01-13 11:58:00,60.2,56.0,29.97,North,8,0.0,0.0,86,0.00,,---,0.00,VWS V14.01,2013-01-13 16:58:00,
2013-01-13 11:59:00,60.2,56.0,29.97,North,8,0.0,0.0,86,0.00,,---,0.00,VWS V14.01,2013-01-13 16:59:00,
2013-01-13 12:00:00,60.2,56.0,29.98,North,8,0.0,0.0,86,0.00,,---,0.00,VWS V14.01,2013-01-13 17:00:00,
2013-01-13 12:01:00,60.1,55.9,29.98,North,8,0.0,0.0,86,0.00,,---,0.00,VWS V14.01,2013-01-13 17:01:00,
2013-01-13 12:02:00,60.1,56.2,29.98,WNW,298,2.0,5.0,87,0.00,,---,0.00,VWS V14.01,2013-01-13 17:02:00,
2013-01-13 12:03:00,60.1,56.2,29.98,WNW,298,0.0,5.0,87,0.00,,---,0.00,VWS V14.01,2013-01-13 17:03:00,
2013-01-13 12:04:00,60.1,56.2,29.98,WNW,298,0.0,5.0,87,0.00,,---,0.00,VWS V14.01,2013-01-13 17:04:00,
2013-01-13 12:05:00,60.1,56.2,29.98,WNW,298,0.0,5.0,87,0.00,,---,0.00,VWS V14.01,2013-01-13 17:05:00,
2013-01-13 12:06:00,60.1,56.2,29.98,WNW,298,0.0,5.0,87,0.00,,---,0.00,VWS V14.01,2013-01-13 17:06:00,
2013-01-13 12:07:00,60.1,56.2,29.98,WNW,298,0.0,5.0,87,0.01,,---,0.01,VWS V14.01,2013-01-13 17:07:00,
2013-01-13 12:08:00,60.1,56.2,29.98,WNW,298,0.0,5.0,87,0.01,,---,0.01,VWS V14.01,2013-01-13 17:08:00,
2013-01-13 12:09:00,59.9,56.0,29.98,WNW,298,0.0,5.0,87,0.01,,---,0.01,VWS V14.01,2013-01-13 17:09:00,
2013-01-13 12:10:00,59.9,56.0,29.98,WNW,298,0.0,5.0,87,0.01,,---,0.01,VWS V14.01,2013-01-13 17:10:00,
2013-01-13 12:11:00,59.9,56.3,29.98,WNW,298,0.0,0.0,88,0.01,,---,0.01,VWS V14.01,2013-01-13 17:11:00,
2013-01-13 12:12:00,59.9,56.3,29.98,WNW,298,0.0,0.0,88,0.01,,---,0.01,VWS V14.01,2013-01-13 17:12:00,
2013-01-13 12:13:00,59.9,56.3,29.98,WNW,298,0.0,0.0,88,0.01,,---,0.01,VWS V14.01,2013-01-13 17:13:00,
2013-01-13 12:14:00,59.9,56.3,29.98,WNW,298,0.0,0.0,88,0.01,,---,0.01,VWS V14.01,2013-01-13 17:14:00,
2013-01-13 12:15:00,59.8,56.2,29.98,WNW,298,0.0,0.0,88,0.01,,---,0.01,VWS V14.01,2013-01-13 17:15:00,
2013-01-13 12:16:00,59.8,56.2,29.98,WNW,298,0.0,0.0,88,0.01,,---,0.01,VWS V14.01,2013-01-13 17:16:00,
2013-01-13 12:17:00,59.8,56.2,29.98,WNW,298,0.0,0.0,88,0.01,,---,0.01,VWS V14.01,2013-01-13 17:17:00,
2013-01-13 12:18:00,59.8,56.2,29.98,WNW,298,0.0,0.0,88,0.01,,---,0.01,VWS V14.01,2013-01-13 17:18:00,
2013-01-13 12:19:00,59.8,56.2,29.98,WNW,298,0.0,0.0,88,0.01,,---,0.01,VWS V14.01,2013-01-13 17:19:00,
2013-01-13 12:20:00,59.8,56.2,29.98,WNW,298,0.0,0.0,88,0.01,,---,0.01,VWS V14.01,2013-01-13 17:20:00,
2013-01-13 12:21:00,59.8,56.2,29.98,WNW,296,0.0,0.0,88,0.01,,---,0.01,VWS V14.01,2013-01-13 17:21:00,
2013-01-13 12:22:00,59.6,56.0,29.98,WNW,298,0.0,1.0,88,0.01,,---,0.01,VWS V14.01,2013-01-13 17:22:00,
2013-01-13 12:23:00,59.6,56.0,29.98,WNW,298,0.0,1.0,88,0.01,,---,0.01,VWS V14.01,2013-01-13 17:23:00,
2013-01-13 12:24:00,59.6,56.0,29.98,WNW,298,0.0,1.0,88,0.01,,---,0.01,VWS V14.01,2013-01-13 17:24:00,
2013-01-13 12:25:00,59.6,56.4,29.98,WNW,298,0.0,1.0,89,0.02,,---,0.02,VWS V14.01,2013-01-13 17:25:00,
2013-01-13 12:26:00,59.6,56.4,29.98,WNW,298,0.0,1.0,89,0.02,,---,0.02,VWS V14.01,2013-01-13 17:26:00,
2013-01-13 12:27:00,59.6,56.4,29.98,WNW,298,0.0,1.0,89,0.02,,---,0.02,VWS V14.01,2013-01-13 17:27:00,
2013-01-13 12:28:00,59.6,56.4,29.98,WNW,298,0.0,1.0,89,0.02,,---,0.02,VWS V14.01,2013-01-13 17:28:00,
2013-01-13 12:29:00,59.5,56.3,29.98,WNW,298,0.0,1.0,89,0.02,,---,0.02,VWS V14.01,2013-01-13 17:29:00,
2013-01-13 12:30:00,59.5,56.3,29.98,WNW,298,0.0,1.0,89,0.02,,---,0.02,VWS V14.01,2013-01-13 17:30:00,
2013-01-13 12:31:00,59.5,56.3,29.98,WNW,298,0.0,0.0,89,0.02,,---,0.02,VWS V14.01,2013-01-13 17:31:00,
2013-01-13 12:32:00,59.5,56.3,29.98,WNW,298,0.0,0.0,89,0.02,,---,0.02,VWS V14.01,2013-01-13 17:32:00,
2013-01-13 12:33:00,59.5,56.3,29.98,WNW,298,2.0,2.0,89,0.02,,---,0.02,VWS V14.01,2013-01-13 17:33:00,
2013-01-13 12:34:00,59.5,56.3,29.98,WNW,298,0.0,2.0,89,0.02,,---,0.02,VWS V14.01,2013-01-13 17:34:00,
2013-01-13 12:35:00,59.5,56.3,29.98,WNW,298,0.0,2.0,89,0.02,,---,0.02,VWS V14.01,2013-01-13 17:35:00,
2013-01-13 12:36:00,59.5,56.3,29.98,WNW,298,2.0,2.0,89,0.02,,---,0.02,VWS V14.01,2013-01-13 17:36:00,
2013-01-13 12:37:00,59.5,56.3,29.98,WNW,298,0.0,2.0,89,0.02,,---,0.02,VWS V14.01,2013-01-13 17:37:00,
2013-01-13 12:38:00,59.3,56.1,29.98,West,278,2.0,3.0,89,0.02,,---,0.02,VWS V14.01,2013-01-13 17:38:00,
2013-01-13 12:39:00,59.3,56.1,29.98,West,278,0.0,3.0,89,0.02,,---,0.02,VWS V14.01,2013-01-13 17:39:00,
2013-01-13 12:40:00,59.3,56.4,29.98,West,279,0.0,3.0,90,0.02,,---,0.02,VWS V14.01,2013-01-13 17:40:00,
2013-01-13 12:41:00,59.3,56.4,29.98,West,279,0.0,0.0,90,0.02,,---,0.02,VWS V14.01,2013-01-13 17:41:00,
2013-01-13 12:42:00,59.3,56.4,29.98,West,279,0.0,0.0,90,0.02,,---,0.02,VWS V14.01,2013-01-13 17:42:00,
2013-01-13 12:43:00,59.3,56.4,29.98,West,279,1.0,1.0,90,0.02,,---,0.02,VWS V14.01,2013-01-13 17:43:00,
2013-01-13 12:44:00,59.3,56.4,29.98,West,279,0.0,2.0,90,0.02,,---,0.02,VWS V14.01,2013-01-13 17:44:00,
2013-01-13 12:45:00,59.2,56.3,29.99,West,279,0.0,2.0,90,0.02,,---,0.02,VWS V14.01,2013-01-13 17:45:00,
2013-01-13 12:46:00,59.2,56.3,29.99,West,279,0.0,2.0,90,0.02,,---,0.02,VWS V14.01,2013-01-13 17:46:00,
2013-01-13 12:47:00,59.2,56.3,29.99,West,279,2.0,2.0,90,0.02,,---,0.02,VWS V14.01,2013-01-13 17:47:00,
2013-01-13 12:48:00,59.2,56.3,29.99,West,279,3.0,3.0,90,0.03,,---,0.03,VWS V14.01,2013-01-13 17:48:00,
2013-01-13 12:49:00,59.2,56.3,29.99,WNW,299,5.0,5.0,90,0.03,,---,0.03,VWS V14.01,2013-01-13 17:49:00,
2013-01-13 12:50:00,59.2,56.3,29.99,WNW,299,2.0,5.0,90,0.03,,---,0.03,VWS V14.01,2013-01-13 17:50:00,
2013-01-13 12:51:00,59.2,56.3,29.99,WNW,299,0.0,2.0,90,0.03,,---,0.03,VWS V14.01,2013-01-13 17:51:00,
2013-01-13 12:52:00,59.2,56.3,29.99,WNW,299,0.0,2.0,90,0.03,,---,0.03,VWS V14.01,2013-01-13 17:52:00,
2013-01-13 12:53:00,59.2,56.6,29.99,WNW,299,0.0,2.0,91,0.03,,---,0.03,VWS V14.01,2013-01-13 17:53:00,
2013-01-13 12:54:00,59.2,56.6,29.99,WNW,299,0.0,2.0,91,0.03,,---,0.03,VWS V14.01,2013-01-13 17:54:00,
2013-01-13 12:55:00,59.2,56.6,29.99,WNW,299,0.0,2.0,91,0.03,,---,0.03,VWS V14.01,2013-01-13 17:55:00,
2013-01-13 12:56:00,59.2,56.6,29.99,WNW,299,0.0,2.0,91,0.03,,---,0.03,VWS V14.01,2013-01-13 17:56:00,
2013-01-13 12:57:00,59.0,56.4,29.99,WNW,299,0.0,2.0,91,0.03,,---,0.03,VWS V14.01,2013-01-13 17:57:00,
2013-01-13 12:58:00,59.0,56.4,29.99,WNW,299,0.0,2.0,91,0.03,,---,0.03,VWS V14.01,2013-01-13 17:58:00,
2013-01-13 12:59:00,59.0,56.4,29.99,WNW,299,0.0,2.0,91,0.03,,---,0.03,VWS V14.01,2013-01-13 17:59:00,
2013-01-13 13:00:00,59.0,56.4,29.98,WNW,299,0.0,2.0,91,0.03,,---,0.03,VWS V14.01,2013-01-13 18:00:00,
2013-01-13 13:01:00,59.0,56.4,29.98,WNW,299,0.0,0.0,91,0.03,,---,0.03,VWS V14.01,2013-01-13 18:01:00,
2013-01-13 13:02:00,59.0,56.4,29.98,WNW,299,0.0,1.0,91,0.03,,---,0.03,VWS V14.01,2013-01-13 18:02:00,
2013-01-13 13:03:00,59.0,56.4,29.98,WNW,299,0.0,1.0,91,0.03,,---,0.03,VWS V14.01,2013-01-13 18:03:00,
2013-01-13 13:04:00,59.0,56.4,29.98,WNW,299,0.0,1.0,91,0.03,,---,0.03,VWS V14.01,2013-01-13 18:04:00,
2013-01-13 13:05:00,59.0,56.4,29.98,WNW,289,6.0,6.0,91,0.04,,---,0.04,VWS V14.01,2013-01-13 18:05:00,
2013-01-13 13:06:00,59.0,56.4,29.98,WNW,289,0.0,6.0,91,0.04,,---,0.04,VWS V14.01,2013-01-13 18:06:00,
2013-01-13 13:07:00,59.0,56.4,29.98,WNW,292,5.0,6.0,91,0.04,,---,0.04,VWS V14.01,2013-01-13 18:07:00,
2013-01-13 13:08:00,59.0,56.4,29.98,WNW,293,0.0,6.0,91,0.04,,---,0.04,VWS V14.01,2013-01-13 18:08:00,
2013-01-13 13:09:00,59.0,56.4,29.98,WNW,293,0.0,6.0,91,0.04,,---,0.04,VWS V14.01,2013-01-13 18:09:00,
2013-01-13 13:10:00,58.9,56.3,29.98,WNW,293,0.0,6.0,91,0.04,,---,0.04,VWS V14.01,2013-01-13 18:10:00,
2013-01-13 13:11:00,58.9,56.3,29.98,WNW,293,0.0,0.0,91,0.03,,---,0.04,VWS V14.01,2013-01-13 18:11:00,
2013-01-13 13:12:00,58.9,56.3,29.98,West,279,6.0,6.0,91,0.03,,---,0.04,VWS V14.01,2013-01-13 18:12:00,
2013-01-13 13:13:00,58.9,56.6,29.98,West,279,2.0,7.0,92,0.03,,---,0.04,VWS V14.01,2013-01-13 18:13:00,
2013-01-13 13:14:00,58.9,56.6,29.98,WNW,303,3.0,7.0,92,0.03,,---,0.04,VWS V14.01,2013-01-13 18:14:00,
2013-01-13 13:15:00,58.9,56.6,29.98,WNW,289,0.0,7.0,92,0.03,,---,0.04,VWS V14.01,2013-01-13 18:15:00,
2013-01-13 13:16:00,58.9,56.6,29.98,WNW,290,2.0,7.0,92,0.03,,---,0.04,VWS V14.01,2013-01-13 18:16:00,
2013-01-13 13:17:00,58.9,56.6,29.98,WNW,290,0.0,7.0,92,0.03,,---,0.04,VWS V14.01,2013-01-13 18:17:00,
2013-01-13 13:18:00,58.9,56.6,29.98,WNW,290,0.0,7.0,92,0.03,,---,0.04,VWS V14.01,2013-01-13 18:18:00,
2013-01-13 13:19:00,58.9,56.6,29.98,WNW,290,2.0,7.0,92,0.03,,---,0.04,VWS V14.01,2013-01-13 18:19:00,
2013-01-13 13:20:00,58.9,56.6,29.98,WNW,290,0.0,7.0,92,0.03,,---,0.04,VWS V14.01,2013-01-13 18:20:00,
2013-01-13 13:21:00,58.9,56.6,29.98,WNW,290,0.0,0.0,92,0.03,,---,0.04,VWS V14.01,2013-01-13 18:21:00,
2013-01-13 13:22:00,58.9,56.6,29.98,WNW,290,0.0,0.0,92,0.03,,---,0.04,VWS V14.01,2013-01-13 18:22:00,
2013-01-13 13:23:00,58.9,56.6,29.98,WNW,290,0.0,2.0,92,0.04,,---,0.05,VWS V14.01,2013-01-13 18:23:00,
2013-01-13 13:24:00,58.9,56.6,29.98,WNW,290,0.0,2.0,92,0.04,,---,0.05,VWS V14.01,2013-01-13 18:24:00,
2013-01-13 13:25:00,58.9,56.6,29.98,WNW,290,0.0,5.0,92,0.04,,---,0.05,VWS V14.01,2013-01-13 18:25:00,
2013-01-13 13:26:00,58.9,56.6,29.98,WNW,290,0.0,5.0,92,0.04,,---,0.05,VWS V14.01,2013-01-13 18:26:00,
2013-01-13 13:27:00,58.9,56.6,29.98,WNW,290,0.0,5.0,92,0.04,,---,0.05,VWS V14.01,2013-01-13 18:27:00,
2013-01-13 13:28:00,58.9,56.6,29.98,WNW,290,0.0,5.0,92,0.04,,---,0.05,VWS V14.01,2013-01-13 18:28:00,
2013-01-13 13:29:00,58.9,56.6,29.98,WNW,290,2.0,5.0,92,0.04,,---,0.05,VWS V14.01,2013-01-13 18:29:00,
2013-01-13 13:30:00,58.9,56.6,29.98,WNW,290,0.0,5.0,92,0.04,,---,0.05,VWS V14.01,2013-01-13 18:30:00,
2013-01-13 13:31:00,58.9,56.6,29.98,WNW,290,0.0,0.0,92,0.03,,---,0.05,VWS V14.01,2013-01-13 18:31:00,
2013-01-13 13:32:00,58.9,56.6,29.98,WNW,290,0.0,1.0,92,0.03,,---,0.05,VWS V14.01,2013-01-13 18:32:00,
2013-01-13 13:33:00,58.9,56.6,29.98,WNW,290,2.0,5.0,92,0.04,,---,0.06,VWS V14.01,2013-01-13 18:33:00,
2013-01-13 13:34:00,58.9,56.6,29.98,WNW,290,3.0,5.0,92,0.04,,---,0.06,VWS V14.01,2013-01-13 18:34:00,
2013-01-13 13:35:00,58.9,56.6,29.98,WNW,290,2.0,5.0,92,0.04,,---,0.06,VWS V14.01,2013-01-13 18:35:00,
2013-01-13 13:36:00,58.9,56.6,29.98,WNW,290,1.0,5.0,92,0.04,,---,0.06,VWS V14.01,2013-01-13 18:36:00,
2013-01-13 13:37:00,58.9,56.6,29.98,WNW,290,0.0,5.0,92,0.04,,---,0.06,VWS V14.01,2013-01-13 18:37:00,
2013-01-13 13:38:00,58.7,56.4,29.98,WNW,290,0.0,5.0,92,0.04,,---,0.06,VWS V14.01,2013-01-13 18:38:00,
2013-01-13 13:39:00,58.7,56.4,29.98,WNW,290,0.0,5.0,92,0.04,,---,0.06,VWS V14.01,2013-01-13 18:39:00,
2013-01-13 13:40:00,58.7,56.4,29.98,WNW,290,0.0,5.0,92,0.04,,---,0.06,VWS V14.01,2013-01-13 18:40:00,
2013-01-13 13:41:00,58.7,56.4,29.98,WNW,290,0.0,0.0,92,0.04,,---,0.06,VWS V14.01,2013-01-13 18:41:00,
2013-01-13 13:42:00,58.7,56.4,29.98,WNW,290,0.0,0.0,92,0.04,,---,0.06,VWS V14.01,2013-01-13 18:42:00,
2013-01-13 13:43:00,58.7,56.4,29.98,WNW,290,0.0,0.0,92,0.04,,---,0.06,VWS V14.01,2013-01-13 18:43:00,
2013-01-13 13:44:00,58.7,56.4,29.98,WNW,290,0.0,1.0,92,0.04,,---,0.06,VWS V14.01,2013-01-13 18:44:00,
2013-01-13 13:45:00,58.7,56.4,29.98,WNW,290,0.0,1.0,92,0.04,,---,0.06,VWS V14.01,2013-01-13 18:45:00,
2013-01-13 13:46:00,58.7,56.4,29.98,WNW,290,0.0,1.0,92,0.05,,---,0.07,VWS V14.01,2013-01-13 18:46:00,
2013-01-13 13:47:00,58.7,56.4,29.98,WNW,290,0.0,1.0,92,0.05,,---,0.07,VWS V14.01,2013-01-13 18:47:00,
2013-01-13 13:48:00,58.7,56.4,29.98,WNW,290,0.0,1.0,92,0.05,,---,0.07,VWS V14.01,2013-01-13 18:48:00,
2013-01-13 13:49:00,58.7,56.4,29.98,WNW,290,0.0,1.0,92,0.05,,---,0.07,VWS V14.01,2013-01-13 18:49:00,
2013-01-13 13:50:00,58.7,56.4,29.98,WNW,290,2.0,5.0,92,0.05,,---,0.07,VWS V14.01,2013-01-13 18:50:00,
2013-01-13 13:51:00,58.7,56.4,29.98,WNW,290,4.0,5.0,92,0.04,,---,0.07,VWS V14.01,2013-01-13 18:51:00,
2013-01-13 13:52:00,58.7,56.4,29.98,WNW,295,2.0,6.0,92,0.04,,---,0.07,VWS V14.01,2013-01-13 18:52:00,
2013-01-13 13:53:00,58.7,56.4,29.98,WNW,295,2.0,6.0,92,0.04,,---,0.07,VWS V14.01,2013-01-13 18:53:00,
2013-01-13 13:54:00,58.7,56.4,29.98,NW,324,5.0,6.0,92,0.04,,---,0.07,VWS V14.01,2013-01-13 18:54:00,
2013-01-13 13:55:00,58.7,56.4,29.98,NW,307,5.0,6.0,92,0.04,,---,0.07,VWS V14.01,2013-01-13 18:55:00,
2013-01-13 13:56:00,58.7,56.4,29.98,WNW,283,6.0,7.0,92,0.04,,---,0.07,VWS V14.01,2013-01-13 18:56:00,
2013-01-13 13:57:00,58.7,56.7,29.98,WNW,288,5.0,7.0,93,0.05,,---,0.08,VWS V14.01,2013-01-13 18:57:00,
2013-01-13 13:58:00,58.7,56.7,29.98,WNW,288,3.0,7.0,93,0.05,,---,0.08,VWS V14.01,2013-01-13 18:58:00,
2013-01-13 13:59:00,58.7,56.7,29.98,WNW,299,6.0,7.0,93,0.05,,---,0.08,VWS V14.01,2013-01-13 18:59:00,
2013-01-13 14:00:00,58.7,56.7,30.00,West,266,5.0,7.0,93,0.05,,---,0.08,VWS V14.01,2013-01-13 19:00:00,
2013-01-13 14:01:00,58.7,56.7,30.00,West,266,2.0,3.0,93,0.05,,---,0.08,VWS V14.01,2013-01-13 19:01:00,
2013-01-13 14:02:00,58.7,56.7,30.00,WNW,289,4.0,8.0,93,0.05,,---,0.08,VWS V14.01,2013-01-13 19:02:00,
2013-01-13 14:03:00,58.7,56.7,30.00,WNW,283,3.0,8.0,93,0.05,,---,0.08,VWS V14.01,2013-01-13 19:03:00,
2013-01-13 14:04:00,58.7,56.7,30.00,West,278,5.0,8.0,93,0.05,,---,0.08,VWS V14.01,2013-01-13 19:04:00,
2013-01-13 14:05:00,58.7,56.7,30.00,West,279,7.0,8.0,93,0.05,,---,0.08,VWS V14.01,2013-01-13 19:05:00,
2013-01-13 14:06:00,58.7,56.7,30.00,WNW,283,2.0,8.0,93,0.05,,---,0.08,VWS V14.01,2013-01-13 19:06:00,
2013-01-13 14:07:00,58.7,56.7,30.00,WNW,283,3.0,8.0,93,0.06,,---,0.09,VWS V14.01,2013-01-13 19:07:00,
2013-01-13 14:08:00,58.7,56.7,30.00,WNW,283,6.0,8.0,93,0.06,,---,0.09,VWS V14.01,2013-01-13 19:08:00,
2013-01-13 14:09:00,58.6,56.6,30.00,WNW,285,2.0,8.0,93,0.06,,---,0.09,VWS V14.01,2013-01-13 19:09:00,
2013-01-13 14:10:00,58.6,56.6,30.00,WNW,285,7.0,8.0,93,0.06,,---,0.09,VWS V14.01,2013-01-13 19:10:00,
2013-01-13 14:11:00,58.6,56.6,30.00,WNW,286,0.0,6.0,93,0.05,,---,0.09,VWS V14.01,2013-01-13 19:11:00,
2013-01-13 14:12:00,58.6,56.6,30.00,WNW,292,2.0,6.0,93,0.05,,---,0.09,VWS V14.01,2013-01-13 19:12:00,
2013-01-13 14:13:00,58.6,56.6,30.00,WNW,292,5.0,6.0,93,0.05,,---,0.09,VWS V14.01,2013-01-13 19:13:00,
2013-01-13 14:14:00,58.6,56.6,30.00,WNW,292,2.0,6.0,93,0.06,,---,0.10,VWS V14.01,2013-01-13 19:14:00,
2013-01-13 14:15:00,58.6,56.6,29.99,WNW,292,0.0,6.0,93,0.06,,---,0.10,VWS V14.01,2013-01-13 19:15:00,
2013-01-13 14:16:00,58.6,56.6,29.99,WNW,292,0.0,6.0,93,0.06,,---,0.10,VWS V14.01,2013-01-13 19:16:00,
2013-01-13 14:17:00,58.6,56.6,29.99,WNW,292,1.0,6.0,93,0.06,,---,0.10,VWS V14.01,2013-01-13 19:17:00,
2013-01-13 14:18:00,58.6,56.6,29.99,WNW,293,0.0,6.0,93,0.06,,---,0.10,VWS V14.01,2013-01-13 19:18:00,
2013-01-13 14:19:00,58.6,56.6,29.99,WNW,293,0.0,6.0,93,0.06,,---,0.10,VWS V14.01,2013-01-13 19:19:00,
2013-01-13 14:20:00,58.6,56.6,29.99,WNW,293,0.0,6.0,93,0.06,,---,0.10,VWS V14.01,2013-01-13 19:20:00,
2013-01-13 14:21:00,58.6,56.6,29.99,WNW,293,0.0,0.0,93,0.07,,---,0.11,VWS V14.01,2013-01-13 19:21:00,
2013-01-13 14:22:00,58.6,56.6,29.99,WNW,293,0.0,0.0,93,0.07,,---,0.11,VWS V14.01,2013-01-13 19:22:00,
2013-01-13 14:23:00,58.6,56.6,29.99,WNW,293,0.0,0.0,93,0.07,,---,0.11,VWS V14.01,2013-01-13 19:23:00,
2013-01-13 14:24:00,58.6,56.6,29.99,WNW,293,0.0,0.0,93,0.07,,---,0.11,VWS V14.01,2013-01-13 19:24:00,
2013-01-13 14:25:00,58.4,56.4,29.99,WNW,293,0.0,0.0,93,0.07,,---,0.11,VWS V14.01,2013-01-13 19:25:00,
2013-01-13 14:26:00,58.4,56.4,29.99,WNW,293,0.0,0.0,93,0.07,,---,0.11,VWS V14.01,2013-01-13 19:26:00,
2013-01-13 14:27:00,58.4,56.4,29.99,WNW,293,0.0,0.0,93,0.07,,---,0.11,VWS V14.01,2013-01-13 19:27:00,
2013-01-13 14:28:00,58.4,56.4,29.99,WNW,293,0.0,0.0,93,0.07,,---,0.11,VWS V14.01,2013-01-13 19:28:00,
2013-01-13 14:29:00,58.4,56.4,29.99,WNW,293,0.0,0.0,93,0.07,,---,0.11,VWS V14.01,2013-01-13 19:29:00,
2013-01-13 14:30:00,58.4,56.4,30.00,WNW,293,0.0,0.0,93,0.07,,---,0.11,VWS V14.01,2013-01-13 19:30:00,
2013-01-13 14:31:00,58.4,56.4,30.00,WNW,293,0.0,0.0,93,0.06,,---,0.11,VWS V14.01,2013-01-13 19:31:00,
2013-01-13 14:32:00,58.4,56.4,30.00,WNW,293,0.0,0.0,93,0.06,,---,0.11,VWS V14.01,2013-01-13 19:32:00,
2013-01-13 14:33:00,58.4,56.4,30.00,WNW,293,0.0,0.0,93,0.06,,---,0.11,VWS V14.01,2013-01-13 19:33:00,
2013-01-13 14:34:00,58.4,56.4,30.00,WNW,293,0.0,0.0,93,0.06,,---,0.11,VWS V14.01,2013-01-13 19:34:00,
2013-01-13 14:35:00,58.4,56.4,30.00,WNW,293,0.0,0.0,93,0.06,,---,0.11,VWS V14.01,2013-01-13 19:35:00,
2013-01-13 14:36:00,58.4,56.4,30.00,WNW,293,0.0,1.0,93,0.07,,---,0.12,VWS V14.01,2013-01-13 19:36:00,
2013-01-13 14:37:00,58.4,56.4,30.00,WNW,293,0.0,2.0,93,0.07,,---,0.12,VWS V14.01,2013-01-13 19:37:00,
2013-01-13 14:38:00,58.4,56.4,30.00,WNW,293,0.0,2.0,93,0.07,,---,0.12,VWS V14.01,2013-01-13 19:38:00,
2013-01-13 14:39:00,58.4,56.4,30.00,WNW,293,0.0,2.0,93,0.07,,---,0.12,VWS V14.01,2013-01-13 19:39:00,
2013-01-13 14:40:00,58.4,56.4,30.00,WNW,293,0.0,2.0,93,0.07,,---,0.12,VWS V14.01,2013-01-13 19:40:00,
2013-01-13 14:41:00,58.4,56.4,30.00,WNW,293,0.0,0.0,93,0.06,,---,0.12,VWS V14.01,2013-01-13 19:41:00,
2013-01-13 14:42:00,58.4,56.4,30.00,WNW,293,0.0,0.0,93,0.06,,---,0.12,VWS V14.01,2013-01-13 19:42:00,
2013-01-13 14:43:00,58.4,56.4,30.00,WNW,293,0.0,0.0,93,0.07,,---,0.13,VWS V14.01,2013-01-13 19:43:00,
2013-01-13 14:44:00,58.4,56.4,30.00,WNW,293,0.0,0.0,93,0.07,,---,0.13,VWS V14.01,2013-01-13 19:44:00,
2013-01-13 14:45:00,58.3,56.3,30.00,WNW,293,0.0,0.0,93,0.07,,---,0.13,VWS V14.01,2013-01-13 19:45:00,
2013-01-13 14:46:00,58.3,56.3,30.00,WNW,293,0.0,0.0,93,0.07,,---,0.13,VWS V14.01,2013-01-13 19:46:00,
2013-01-13 14:47:00,58.3,56.3,30.00,WNW,293,0.0,0.0,93,0.07,,---,0.13,VWS V14.01,2013-01-13 19:47:00,
2013-01-13 14:48:00,58.3,56.3,30.00,WNW,293,0.0,0.0,93,0.07,,---,0.13,VWS V14.01,2013-01-13 19:48:00,
2013-01-13 14:49:00,58.3,56.3,30.00,NW,324,1.0,2.0,93,0.07,,---,0.13,VWS V14.01,2013-01-13 19:49:00,
2013-01-13 14:50:00,58.3,56.3,30.00,NW,324,0.0,2.0,93,0.07,,---,0.13,VWS V14.01,2013-01-13 19:50:00,
2013-01-13 14:51:00,58.3,56.3,30.00,NW,324,0.0,0.0,93,0.06,,---,0.13,VWS V14.01,2013-01-13 19:51:00,
2013-01-13 14:52:00,58.3,56.3,30.00,NW,324,0.0,0.0,93,0.07,,---,0.14,VWS V14.01,2013-01-13 19:52:00,
2013-01-13 14:53:00,58.3,56.3,30.00,NW,324,0.0,0.0,93,0.07,,---,0.14,VWS V14.01,2013-01-13 19:53:00,
2013-01-13 14:54:00,58.3,56.3,30.00,NW,324,0.0,0.0,93,0.07,,---,0.14,VWS V14.01,2013-01-13 19:54:00,
2013-01-13 14:55:00,58.3,56.3,30.00,NW,324,0.0,0.0,93,0.07,,---,0.14,VWS V14.01,2013-01-13 19:55:00,
2013-01-13 14:56:00,58.3,56.3,30.00,NW,324,0.0,0.0,93,0.07,,---,0.14,VWS V14.01,2013-01-13 19:56:00,
2013-01-13 14:57:00,58.3,56.3,30.00,NW,324,0.0,0.0,93,0.07,,---,0.14,VWS V14.01,2013-01-13 19:57:00,
2013-01-13 14:58:00,58.3,56.3,30.00,NW,324,0.0,0.0,93,0.07,,---,0.14,VWS V14.01,2013-01-13 19:58:00,
2013-01-13 14:59:00,58.3,56.3,30.00,NW,324,0.0,0.0,93,0.07,,---,0.14,VWS V14.01,2013-01-13 19:59:00,
2013-01-13 15:00:00,58.3,56.3,30.00,NW,324,0.0,0.0,93,0.08,,---,0.15,VWS V14.01,2013-01-13 20:00:00,
2013-01-13 15:01:00,58.3,56.3,30.00,NW,324,0.0,0.0,93,0.07,,---,0.15,VWS V14.01,2013-01-13 20:01:00,
2013-01-13 15:02:00,58.3,56.3,30.00,NW,324,0.0,0.0,93,0.07,,---,0.15,VWS V14.01,2013-01-13 20:02:00,
2013-01-13 15:03:00,58.3,56.3,30.00,NW,324,0.0,0.0,93,0.07,,---,0.15,VWS V14.01,2013-01-13 20:03:00,
2013-01-13 15:04:00,58.3,56.3,30.00,NW,324,0.0,0.0,93,0.07,,---,0.15,VWS V14.01,2013-01-13 20:04:00,
2013-01-13 15:05:00,58.3,56.3,30.00,NW,324,0.0,0.0,93,0.07,,---,0.15,VWS V14.01,2013-01-13 20:05:00,
2013-01-13 15:06:00,58.3,56.3,30.00,NW,324,0.0,0.0,93,0.07,,---,0.15,VWS V14.01,2013-01-13 20:06:00,
2013-01-13 15:07:00,58.1,56.1,30.00,NW,324,0.0,0.0,93,0.07,,---,0.15,VWS V14.01,2013-01-13 20:07:00,
2013-01-13 15:08:00,58.1,56.1,30.00,NW,324,0.0,0.0,93,0.07,,---,0.15,VWS V14.01,2013-01-13 20:08:00,
2013-01-13 15:09:00,58.1,56.1,30.00,NW,324,0.0,0.0,93,0.07,,---,0.15,VWS V14.01,2013-01-13 20:09:00,
2013-01-13 15:10:00,58.1,56.1,30.00,NW,324,0.0,0.0,93,0.08,,---,0.16,VWS V14.01,2013-01-13 20:10:00,
2013-01-13 15:11:00,58.1,56.1,30.00,NW,324,0.0,0.0,93,0.07,,---,0.16,VWS V14.01,2013-01-13 20:11:00,
2013-01-13 15:12:00,58.1,56.1,30.00,NW,324,0.0,0.0,93,0.07,,---,0.16,VWS V14.01,2013-01-13 20:12:00,
2013-01-13 15:13:00,58.1,56.1,30.00,NW,324,0.0,0.0,93,0.07,,---,0.16,VWS V14.01,2013-01-13 20:13:00,
2013-01-13 15:14:00,58.1,56.1,30.00,NW,324,0.0,0.0,93,0.07,,---,0.16,VWS V14.01,2013-01-13 20:14:00,
2013-01-13 15:15:00,58.1,56.1,29.99,NW,324,0.0,0.0,93,0.07,,---,0.16,VWS V14.01,2013-01-13 20:15:00,
2013-01-13 15:16:00,58.1,56.1,29.99,NW,324,0.0,0.0,93,0.07,,---,0.16,VWS V14.01,2013-01-13 20:16:00,
2013-01-13 15:17:00,58.1,56.1,29.99,NW,324,0.0,0.0,93,0.07,,---,0.16,VWS V14.01,2013-01-13 20:17:00,
2013-01-13 15:18:00,58.1,56.1,29.99,NW,324,0.0,0.0,93,0.07,,---,0.16,VWS V14.01,2013-01-13 20:18:00,
2013-01-13 15:19:00,58.1,56.1,29.99,NW,324,0.0,0.0,93,0.08,,---,0.17,VWS V14.01,2013-01-13 20:19:00,
2013-01-13 15:20:00,58.1,56.1,29.99,NW,324,0.0,0.0,93,0.07,,---,0.17,VWS V14.01,2013-01-13 20:20:00,
2013-01-13 15:21:00,58.1,56.1,29.99,NW,324,0.0,0.0,93,0.07,,---,0.17,VWS V14.01,2013-01-13 20:21:00,
2013-01-13 15:22:00,58.1,56.1,29.99,NW,324,0.0,0.0,93,0.07,,---,0.17,VWS V14.01,2013-01-13 20:22:00,
2013-01-13 15:23:00,58.1,56.1,29.99,NW,324,0.0,0.0,93,0.07,,---,0.17,VWS V14.01,2013-01-13 20:23:00,
2013-01-13 15:24:00,58.1,56.1,29.99,NW,324,0.0,0.0,93,0.07,,---,0.17,VWS V14.01,2013-01-13 20:24:00,
2013-01-13 15:25:00,58.1,56.1,29.99,NW,324,0.0,0.0,93,0.07,,---,0.17,VWS V14.01,2013-01-13 20:25:00,
2013-01-13 15:26:00,58.1,56.4,29.99,NW,324,0.0,0.0,94,0.07,,---,0.17,VWS V14.01,2013-01-13 20:26:00,
2013-01-13 15:27:00,58.1,56.4,29.99,NW,324,0.0,0.0,94,0.07,,---,0.17,VWS V14.01,2013-01-13 20:27:00,
2013-01-13 15:28:00,58.1,56.1,29.99,NW,324,0.0,0.0,93,0.07,,---,0.17,VWS V14.01,2013-01-13 20:28:00,
2013-01-13 15:29:00,58.1,56.4,29.99,NW,324,0.0,0.0,94,0.07,,---,0.17,VWS V14.01,2013-01-13 20:29:00,
2013-01-13 15:30:00,58.1,56.4,29.98,NW,324,0.0,0.0,94,0.08,,---,0.18,VWS V14.01,2013-01-13 20:30:00,
2013-01-13 15:31:00,58.1,56.1,29.98,NW,324,0.0,0.0,93,0.07,,---,0.18,VWS V14.01,2013-01-13 20:31:00,
2013-01-13 15:32:00,58.1,56.1,29.98,NW,324,0.0,0.0,93,0.07,,---,0.18,VWS V14.01,2013-01-13 20:32:00,
2013-01-13 15:33:00,58.1,56.1,29.98,NW,324,0.0,0.0,93,0.07,,---,0.18,VWS V14.01,2013-01-13 20:33:00,
2013-01-13 15:34:00,58.0,56.3,29.98,NW,324,0.0,0.0,94,0.07,,---,0.18,VWS V14.01,2013-01-13 20:34:00,
2013-01-13 15:35:00,58.0,56.3,29.98,NW,324,0.0,0.0,94,0.07,,---,0.18,VWS V14.01,2013-01-13 20:35:00,
2013-01-13 15:36:00,58.0,56.3,29.98,NW,324,0.0,0.0,94,0.07,,---,0.18,VWS V14.01,2013-01-13 20:36:00,
2013-01-13 15:37:00,58.0,56.3,29.98,NW,324,0.0,0.0,94,0.07,,---,0.18,VWS V14.01,2013-01-13 20:37:00,
2013-01-13 15:38:00,58.0,56.3,29.98,NW,324,0.0,0.0,94,0.07,,---,0.18,VWS V14.01,2013-01-13 20:38:00,
2013-01-13 15:39:00,58.0,56.3,29.98,NW,324,0.0,0.0,94,0.07,,---,0.18,VWS V14.01,2013-01-13 20:39:00,
2013-01-13 15:40:00,58.0,56.3,29.98,NW,324,0.0,0.0,94,0.07,,---,0.18,VWS V14.01,2013-01-13 20:40:00,
2013-01-13 15:41:00,58.0,56.3,29.98,NW,324,0.0,0.0,94,0.07,,---,0.19,VWS V14.01,2013-01-13 20:41:00,
2013-01-13 15:42:00,58.0,56.3,29.98,NW,324,0.0,0.0,94,0.07,,---,0.19,VWS V14.01,2013-01-13 20:42:00,
2013-01-13 15:43:00,58.0,56.3,29.98,NW,324,0.0,0.0,94,0.07,,---,0.19,VWS V14.01,2013-01-13 20:43:00,
2013-01-13 15:44:00,58.0,56.3,29.98,NW,324,0.0,0.0,94,0.07,,---,0.19,VWS V14.01,2013-01-13 20:44:00,
2013-01-13 15:45:00,58.0,56.3,29.98,NW,324,0.0,0.0,94,0.07,,---,0.19,VWS V14.01,2013-01-13 20:45:00,
2013-01-13 15:46:00,58.0,56.3,29.98,NW,324,0.0,0.0,94,0.07,,---,0.19,VWS V14.01,2013-01-13 20:46:00,
2013-01-13 15:47:00,58.0,56.3,29.98,NW,324,0.0,0.0,94,0.07,,---,0.19,VWS V14.01,2013-01-13 20:47:00,
2013-01-13 15:48:00,58.0,56.3,29.98,NW,324,0.0,0.0,94,0.07,,---,0.19,VWS V14.01,2013-01-13 20:48:00,
2013-01-13 15:49:00,58.0,56.3,29.98,NW,324,0.0,0.0,94,0.07,,---,0.19,VWS V14.01,2013-01-13 20:49:00,
2013-01-13 15:50:00,57.8,56.1,29.98,NW,324,0.0,0.0,94,0.07,,---,0.19,VWS V14.01,2013-01-13 20:50:00,
2013-01-13 15:51:00,57.8,56.1,29.98,NW,324,0.0,0.0,94,0.06,,---,0.19,VWS V14.01,2013-01-13 20:51:00,
2013-01-13 15:52:00,57.8,56.1,29.98,NW,324,0.0,0.0,94,0.06,,---,0.19,VWS V14.01,2013-01-13 20:52:00,
2013-01-13 15:53:00,57.8,56.1,29.98,NW,324,0.0,0.0,94,0.06,,---,0.19,VWS V14.01,2013-01-13 20:53:00,
2013-01-13 15:54:00,57.8,56.1,29.98,NW,324,0.0,0.0,94,0.07,,---,0.20,VWS V14.01,2013-01-13 20:54:00,
2013-01-13 15:55:00,57.8,56.1,29.98,NW,324,0.0,0.0,94,0.07,,---,0.20,VWS V14.01,2013-01-13 20:55:00,
2013-01-13 15:56:00,57.8,56.1,29.98,NW,324,0.0,0.0,94,0.07,,---,0.20,VWS V14.01,2013-01-13 20:56:00,
2013-01-13 15:57:00,57.8,56.1,29.98,NW,324,0.0,0.0,94,0.07,,---,0.20,VWS V14.01,2013-01-13 20:57:00,
2013-01-13 15:58:00,57.8,56.1,29.98,NW,324,0.0,0.0,94,0.07,,---,0.20,VWS V14.01,2013-01-13 20:58:00,
2013-01-13 15:59:00,57.8,56.1,29.98,NW,324,0.0,0.0,94,0.07,,---,0.20,VWS V14.01,2013-01-13 20:59:00,
2013-01-13 16:00:00,57.8,56.1,29.98,NW,324,0.0,0.0,94,0.07,,---,0.20,VWS V14.01,2013-01-13 21:00:00,
2013-01-13 16:01:00,57.8,56.1,29.98,NW,324,0.0,0.0,94,0.05,,---,0.20,VWS V14.01,2013-01-13 21:01:00,
2013-01-13 16:02:00,57.8,56.1,29.98,NW,324,0.0,0.0,94,0.05,,---,0.20,VWS V14.01,2013-01-13 21:02:00,
2013-01-13 16:03:00,57.8,56.1,29.98,NW,324,0.0,0.0,94,0.05,,---,0.20,VWS V14.01,2013-01-13 21:03:00,
2013-01-13 16:04:00,57.8,56.1,29.98,NW,324,0.0,0.0,94,0.05,,---,0.20,VWS V14.01,2013-01-13 21:04:00,
2013-01-13 16:05:00,57.8,56.1,29.98,NW,324,0.0,0.0,94,0.05,,---,0.20,VWS V14.01,2013-01-13 21:05:00,
2013-01-13 16:06:00,57.8,56.1,29.98,NW,324,0.0,0.0,94,0.05,,---,0.20,VWS V14.01,2013-01-13 21:06:00,
2013-01-13 16:07:00,57.8,56.1,29.98,NW,324,0.0,0.0,94,0.05,,---,0.20,VWS V14.01,2013-01-13 21:07:00,
2013-01-13 16:08:00,57.8,56.1,29.98,NW,324,0.0,0.0,94,0.06,,---,0.21,VWS V14.01,2013-01-13 21:08:00,
2013-01-13 16:09:00,57.8,56.1,29.98,NW,324,0.0,0.0,94,0.06,,---,0.21,VWS V14.01,2013-01-13 21:09:00,
2013-01-13 16:10:00,57.8,56.1,29.98,NW,324,0.0,0.0,94,0.06,,---,0.21,VWS V14.01,2013-01-13 21:10:00,
2013-01-13 16:11:00,57.8,56.1,29.98,NW,324,0.0,0.0,94,0.05,,---,0.21,VWS V14.01,2013-01-13 21:11:00,
2013-01-13 16:12:00,57.8,56.1,29.98,NW,320,0.0,0.0,94,0.05,,---,0.21,VWS V14.01,2013-01-13 21:12:00,
2013-01-13 16:13:00,57.8,56.1,29.98,NW,324,0.0,0.0,94,0.05,,---,0.21,VWS V14.01,2013-01-13 21:13:00,
2013-01-13 16:14:00,57.6,55.9,29.98,NW,324,0.0,0.0,94,0.05,,---,0.21,VWS V14.01,2013-01-13 21:14:00,
2013-01-13 16:15:00,57.8,56.1,29.98,NW,324,2.0,3.0,94,0.05,,---,0.21,VWS V14.01,2013-01-13 21:15:00,
2013-01-13 16:16:00,57.8,56.1,29.98,NW,324,0.0,3.0,94,0.05,,---,0.21,VWS V14.01,2013-01-13 21:16:00,
2013-01-13 16:17:00,57.8,56.1,29.98,NW,324,3.0,3.0,94,0.05,,---,0.21,VWS V14.01,2013-01-13 21:17:00,
2013-01-13 16:18:00,57.6,55.9,29.98,NW,324,0.0,4.0,94,0.05,,---,0.21,VWS V14.01,2013-01-13 21:18:00,
2013-01-13 16:19:00,57.6,55.9,29.98,NW,324,0.0,4.0,94,0.05,,---,0.21,VWS V14.01,2013-01-13 21:19:00,
2013-01-13 16:20:00,57.8,56.1,29.98,NW,324,0.0,4.0,94,0.05,,---,0.21,VWS V14.01,2013-01-13 21:20:00,
2013-01-13 16:21:00,57.8,56.1,29.98,NW,324,0.0,3.0,94,0.04,,---,0.21,VWS V14.01,2013-01-13 21:21:00,
2013-01-13 16:22:00,57.8,56.1,29.98,NW,324,0.0,3.0,94,0.04,,---,0.21,VWS V14.01,2013-01-13 21:22:00,
2013-01-13 16:23:00,57.8,56.1,29.98,NW,324,0.0,3.0,94,0.04,,---,0.21,VWS V14.01,2013-01-13 21:23:00,
2013-01-13 16:24:00,57.8,56.1,29.98,NW,324,0.0,3.0,94,0.04,,---,0.21,VWS V14.01,2013-01-13 21:24:00,
2013-01-13 16:25:00,57.8,56.1,29.98,NW,324,0.0,3.0,94,0.04,,---,0.21,VWS V14.01,2013-01-13 21:25:00,
2013-01-13 16:26:00,57.8,56.1,29.98,NW,324,0.0,3.0,94,0.04,,---,0.21,VWS V14.01,2013-01-13 21:26:00,
2013-01-13 16:27:00,57.8,56.1,29.98,NW,324,0.0,3.0,94,0.05,,---,0.22,VWS V14.01,2013-01-13 21:27:00,
2013-01-13 16:28:00,57.8,56.1,29.98,NW,324,0.0,3.0,94,0.05,,---,0.22,VWS V14.01,2013-01-13 21:28:00,
2013-01-13 16:29:00,57.8,56.1,29.98,NW,324,0.0,3.0,94,0.05,,---,0.22,VWS V14.01,2013-01-13 21:29:00,
2013-01-13 16:30:00,57.8,56.1,29.97,NW,324,0.0,3.0,94,0.05,,---,0.22,VWS V14.01,2013-01-13 21:30:00,
2013-01-13 16:31:00,57.8,56.1,29.97,NW,324,0.0,0.0,94,0.04,,---,0.22,VWS V14.01,2013-01-13 21:31:00,
2013-01-13 16:32:00,57.8,56.1,29.97,NW,324,0.0,0.0,94,0.04,,---,0.22,VWS V14.01,2013-01-13 21:32:00,
2013-01-13 16:33:00,57.8,56.1,29.97,NW,324,0.0,0.0,94,0.04,,---,0.22,VWS V14.01,2013-01-13 21:33:00,
2013-01-13 16:34:00,57.8,56.1,29.97,NW,324,0.0,0.0,94,0.04,,---,0.22,VWS V14.01,2013-01-13 21:34:00,
2013-01-13 16:35:00,57.8,56.1,29.97,NW,324,0.0,0.0,94,0.04,,---,0.22,VWS V14.01,2013-01-13 21:35:00,
2013-01-13 16:36:00,57.8,56.1,29.97,NW,324,0.0,0.0,94,0.04,,---,0.22,VWS V14.01,2013-01-13 21:36:00,
2013-01-13 16:37:00,57.8,56.1,29.97,NW,324,0.0,0.0,94,0.04,,---,0.22,VWS V14.01,2013-01-13 21:37:00,
2013-01-13 16:38:00,57.8,56.1,29.97,NW,324,0.0,0.0,94,0.04,,---,0.22,VWS V14.01,2013-01-13 21:38:00,
2013-01-13 16:39:00,57.8,56.1,29.97,NW,324,0.0,0.0,94,0.04,,---,0.22,VWS V14.01,2013-01-13 21:39:00,
2013-01-13 16:40:00,57.8,56.1,29.97,NW,324,0.0,0.0,94,0.04,,---,0.22,VWS V14.01,2013-01-13 21:40:00,
2013-01-13 16:41:00,57.8,56.1,29.97,NW,324,0.0,0.0,94,0.04,,---,0.22,VWS V14.01,2013-01-13 21:41:00,
2013-01-13 16:42:00,57.8,56.1,29.97,NW,324,0.0,0.0,94,0.04,,---,0.22,VWS V14.01,2013-01-13 21:42:00,
2013-01-13 16:43:00,57.8,56.1,29.97,NW,324,0.0,0.0,94,0.04,,---,0.22,VWS V14.01,2013-01-13 21:43:00,
2013-01-13 16:44:00,57.8,56.1,29.97,NW,324,3.0,3.0,94,0.04,,---,0.22,VWS V14.01,2013-01-13 21:44:00,
2013-01-13 16:45:00,57.8,56.1,29.97,NW,324,2.0,3.0,94,0.05,,---,0.23,VWS V14.01,2013-01-13 21:45:00,
2013-01-13 16:46:00,57.8,56.1,29.97,NW,324,0.0,3.0,94,0.05,,---,0.23,VWS V14.01,2013-01-13 21:46:00,
2013-01-13 16:47:00,57.8,56.1,29.97,NW,324,0.0,3.0,94,0.05,,---,0.23,VWS V14.01,2013-01-13 21:47:00,
2013-01-13 16:48:00,58.0,56.3,29.97,NW,324,0.0,3.0,94,0.05,,---,0.23,VWS V14.01,2013-01-13 21:48:00,
2013-01-13 16:49:00,58.0,56.3,29.97,NW,324,0.0,3.0,94,0.05,,---,0.23,VWS V14.01,2013-01-13 21:49:00,
2013-01-13 16:50:00,58.0,56.3,29.97,NW,324,0.0,3.0,94,0.05,,---,0.23,VWS V14.01,2013-01-13 21:50:00,
2013-01-13 16:51:00,58.0,56.3,29.97,NW,324,0.0,0.0,94,0.04,,---,0.23,VWS V14.01,2013-01-13 21:51:00,
2013-01-13 16:52:00,58.0,56.3,29.97,NW,307,3.0,5.0,94,0.04,,---,0.23,VWS V14.01,2013-01-13 21:52:00,
2013-01-13 16:53:00,58.0,56.3,29.97,NW,322,6.0,6.0,94,0.04,,---,0.23,VWS V14.01,2013-01-13 21:53:00,
2013-01-13 16:54:00,58.0,56.3,29.97,NW,320,0.0,6.0,94,0.04,,---,0.23,VWS V14.01,2013-01-13 21:54:00,
2013-01-13 16:55:00,58.0,56.3,29.97,NW,320,0.0,6.0,94,0.04,,---,0.23,VWS V14.01,2013-01-13 21:55:00,
2013-01-13 16:56:00,58.0,56.3,29.97,NW,320,0.0,6.0,94,0.04,,---,0.23,VWS V14.01,2013-01-13 21:56:00,
2013-01-13 16:57:00,58.0,56.3,29.97,NW,320,3.0,6.0,94,0.04,,---,0.23,VWS V14.01,2013-01-13 21:57:00,
2013-01-13 16:58:00,58.0,56.3,29.97,NW,320,0.0,6.0,94,0.04,,---,0.23,VWS V14.01,2013-01-13 21:58:00,
2013-01-13 16:59:00,58.0,56.3,29.97,NW,320,0.0,6.0,94,0.04,,---,0.23,VWS V14.01,2013-01-13 21:59:00,
2013-01-13 17:00:00,58.0,56.3,29.97,NW,320,0.0,6.0,94,0.04,,---,0.23,VWS V14.01,2013-01-13 22:00:00,
2013-01-13 17:01:00,58.0,56.3,29.97,NW,320,2.0,3.0,94,0.03,,---,0.23,VWS V14.01,2013-01-13 22:01:00,
2013-01-13 17:02:00,58.1,56.4,29.97,NW,320,0.0,3.0,94,0.03,,---,0.23,VWS V14.01,2013-01-13 22:02:00,
2013-01-13 17:03:00,58.1,56.4,29.97,NW,320,0.0,3.0,94,0.03,,---,0.23,VWS V14.01,2013-01-13 22:03:00,
2013-01-13 17:04:00,58.1,56.4,29.97,NW,320,0.0,3.0,94,0.03,,---,0.23,VWS V14.01,2013-01-13 22:04:00,
2013-01-13 17:05:00,58.1,56.4,29.97,NW,320,0.0,3.0,94,0.03,,---,0.23,VWS V14.01,2013-01-13 22:05:00,
2013-01-13 17:06:00,58.1,56.4,29.97,NW,320,0.0,3.0,94,0.03,,---,0.23,VWS V14.01,2013-01-13 22:06:00,
2013-01-13 17:07:00,58.1,56.4,29.97,NW,320,0.0,3.0,94,0.03,,---,0.23,VWS V14.01,2013-01-13 22:07:00,
2013-01-13 17:08:00,58.1,56.4,29.97,NW,320,0.0,3.0,94,0.04,,---,0.24,VWS V14.01,2013-01-13 22:08:00,
2013-01-13 17:09:00,58.1,56.4,29.97,NW,320,0.0,3.0,94,0.04,,---,0.24,VWS V14.01,2013-01-13 22:09:00,
2013-01-13 17:10:00,58.1,56.4,29.97,NW,320,0.0,3.0,94,0.04,,---,0.24,VWS V14.01,2013-01-13 22:10:00,
2013-01-13 17:11:00,58.1,56.4,29.97,NW,320,0.0,0.0,94,0.03,,---,0.24,VWS V14.01,2013-01-13 22:11:00,
2013-01-13 17:12:00,58.1,56.4,29.97,NW,320,0.0,0.0,94,0.03,,---,0.24,VWS V14.01,2013-01-13 22:12:00,
2013-01-13 17:13:00,58.1,56.4,29.97,NW,320,0.0,0.0,94,0.03,,---,0.24,VWS V14.01,2013-01-13 22:13:00,
2013-01-13 17:14:00,58.1,56.4,29.97,NW,320,0.0,0.0,94,0.03,,---,0.24,VWS V14.01,2013-01-13 22:14:00,
2013-01-13 17:15:00,58.1,56.4,29.96,NW,320,0.0,0.0,94,0.03,,---,0.24,VWS V14.01,2013-01-13 22:15:00,
2013-01-13 17:16:00,58.0,56.3,29.96,NW,320,0.0,0.0,94,0.03,,---,0.24,VWS V14.01,2013-01-13 22:16:00,
2013-01-13 17:17:00,58.0,56.3,29.96,NW,320,0.0,0.0,94,0.03,,---,0.24,VWS V14.01,2013-01-13 22:17:00,
2013-01-13 17:18:00,58.0,56.3,29.96,NW,320,0.0,0.0,94,0.03,,---,0.24,VWS V14.01,2013-01-13 22:18:00,
2013-01-13 17:19:00,58.0,56.3,29.96,NW,320,0.0,0.0,94,0.03,,---,0.24,VWS V14.01,2013-01-13 22:19:00,
2013-01-13 17:20:00,58.0,56.3,29.96,NW,320,0.0,3.0,94,0.03,,---,0.24,VWS V14.01,2013-01-13 22:20:00,
2013-01-13 17:21:00,58.0,56.3,29.96,NW,320,0.0,0.0,94,0.03,,---,0.24,VWS V14.01,2013-01-13 22:21:00,
2013-01-13 17:22:00,58.0,56.3,29.96,NW,320,0.0,0.0,94,0.03,,---,0.24,VWS V14.01,2013-01-13 22:22:00,
2013-01-13 17:23:00,58.0,56.3,29.96,NW,320,0.0,0.0,94,0.03,,---,0.24,VWS V14.01,2013-01-13 22:23:00,
2013-01-13 17:24:00,58.0,56.3,29.96,NW,320,0.0,0.0,94,0.03,,---,0.24,VWS V14.01,2013-01-13 22:24:00,
2013-01-13 17:25:00,58.0,56.3,29.96,NW,320,0.0,0.0,94,0.03,,---,0.24,VWS V14.01,2013-01-13 22:25:00,
2013-01-13 17:26:00,58.0,56.3,29.96,NW,320,0.0,0.0,94,0.03,,---,0.24,VWS V14.01,2013-01-13 22:26:00,
2013-01-13 17:27:00,58.0,56.3,29.96,NW,320,0.0,0.0,94,0.03,,---,0.24,VWS V14.01,2013-01-13 22:27:00,
2013-01-13 17:28:00,58.0,56.3,29.96,NW,320,0.0,0.0,94,0.03,,---,0.24,VWS V14.01,2013-01-13 22:28:00,
2013-01-13 17:29:00,58.0,56.3,29.96,NW,320,0.0,0.0,94,0.04,,---,0.25,VWS V14.01,2013-01-13 22:29:00,
2013-01-13 17:30:00,58.0,56.3,29.97,NW,320,0.0,0.0,94,0.04,,---,0.25,VWS V14.01,2013-01-13 22:30:00,
2013-01-13 17:31:00,58.0,56.3,29.97,NW,320,0.0,0.0,94,0.03,,---,0.25,VWS V14.01,2013-01-13 22:31:00,
2013-01-13 17:32:00,58.0,56.3,29.97,NW,320,0.0,0.0,94,0.03,,---,0.25,VWS V14.01,2013-01-13 22:32:00,
2013-01-13 17:33:00,58.0,56.3,29.97,NW,320,0.0,0.0,94,0.03,,---,0.25,VWS V14.01,2013-01-13 22:33:00,
2013-01-13 17:34:00,58.0,56.3,29.97,NW,320,0.0,0.0,94,0.03,,---,0.25,VWS V14.01,2013-01-13 22:34:00,
2013-01-13 17:35:00,58.0,56.3,29.97,NW,320,0.0,0.0,94,0.03,,---,0.25,VWS V14.01,2013-01-13 22:35:00,
2013-01-13 17:36:00,58.0,56.3,29.97,NW,320,0.0,0.0,94,0.03,,---,0.25,VWS V14.01,2013-01-13 22:36:00,
2013-01-13 17:37:00,58.0,56.3,29.97,NW,320,0.0,0.0,94,0.03,,---,0.25,VWS V14.01,2013-01-13 22:37:00,
2013-01-13 17:38:00,58.0,56.3,29.97,NW,320,0.0,0.0,94,0.03,,---,0.25,VWS V14.01,2013-01-13 22:38:00,
2013-01-13 17:39:00,58.0,56.3,29.97,NW,320,0.0,0.0,94,0.03,,---,0.25,VWS V14.01,2013-01-13 22:39:00,
2013-01-13 17:40:00,58.0,56.3,29.97,NW,320,0.0,0.0,94,0.03,,---,0.25,VWS V14.01,2013-01-13 22:40:00,
2013-01-13 17:41:00,58.0,56.3,29.97,NW,320,0.0,0.0,94,0.03,,---,0.25,VWS V14.01,2013-01-13 22:41:00,
2013-01-13 17:42:00,58.0,56.3,29.97,NW,320,0.0,0.0,94,0.03,,---,0.25,VWS V14.01,2013-01-13 22:42:00,
2013-01-13 17:43:00,58.0,56.3,29.97,NW,320,0.0,0.0,94,0.03,,---,0.25,VWS V14.01,2013-01-13 22:43:00,
2013-01-13 17:44:00,58.0,56.3,29.97,NW,320,0.0,0.0,94,0.03,,---,0.25,VWS V14.01,2013-01-13 22:44:00,
2013-01-13 17:45:00,58.0,56.3,29.96,NW,320,0.0,0.0,94,0.03,,---,0.25,VWS V14.01,2013-01-13 22:45:00,
2013-01-13 17:46:00,58.0,56.3,29.96,NW,320,0.0,0.0,94,0.03,,---,0.25,VWS V14.01,2013-01-13 22:46:00,
2013-01-13 17:47:00,58.0,56.3,29.96,NW,320,0.0,0.0,94,0.03,,---,0.25,VWS V14.01,2013-01-13 22:47:00,
2013-01-13 17:48:00,58.0,56.3,29.96,NW,320,0.0,0.0,94,0.03,,---,0.25,VWS V14.01,2013-01-13 22:48:00,
2013-01-13 17:49:00,58.0,56.3,29.96,NW,320,0.0,0.0,94,0.03,,---,0.25,VWS V14.01,2013-01-13 22:49:00,
2013-01-13 17:50:00,58.0,56.3,29.96,NW,320,0.0,0.0,94,0.03,,---,0.25,VWS V14.01,2013-01-13 22:50:00,
2013-01-13 17:51:00,58.0,56.3,29.96,NW,320,0.0,0.0,94,0.02,,---,0.25,VWS V14.01,2013-01-13 22:51:00,
2013-01-13 17:52:00,58.0,56.3,29.96,NW,320,0.0,0.0,94,0.02,,---,0.25,VWS V14.01,2013-01-13 22:52:00,
2013-01-13 17:53:00,58.0,56.3,29.96,NW,320,0.0,0.0,94,0.02,,---,0.25,VWS V14.01,2013-01-13 22:53:00,
2013-01-13 17:54:00,58.0,56.3,29.96,NW,320,0.0,0.0,94,0.02,,---,0.25,VWS V14.01,2013-01-13 22:54:00,
2013-01-13 17:55:00,58.0,56.3,29.96,NW,320,0.0,0.0,94,0.02,,---,0.25,VWS V14.01,2013-01-13 22:55:00,
2013-01-13 17:56:00,58.0,56.3,29.96,NW,320,0.0,0.0,94,0.02,,---,0.25,VWS V14.01,2013-01-13 22:56:00,
2013-01-13 17:57:00,58.0,56.3,29.96,NW,320,0.0,0.0,94,0.02,,---,0.25,VWS V14.01,2013-01-13 22:57:00,
2013-01-13 17:58:00,58.0,56.3,29.96,NW,320,0.0,0.0,94,0.02,,---,0.25,VWS V14.01,2013-01-13 22:58:00,
2013-01-13 17:59:00,58.0,56.3,29.96,NW,320,0.0,0.0,94,0.02,,---,0.25,VWS V14.01,2013-01-13 22:59:00,
2013-01-13 18:00:00,58.0,56.6,29.97,NW,320,0.0,0.0,95,0.03,,---,0.26,VWS V14.01,2013-01-13 23:00:00,
2013-01-13 18:01:00,58.0,56.6,29.97,NW,320,0.0,0.0,95,0.03,,---,0.26,VWS V14.01,2013-01-13 23:01:00,
2013-01-13 18:02:00,58.0,56.6,29.97,NW,320,0.0,0.0,95,0.03,,---,0.26,VWS V14.01,2013-01-13 23:02:00,
2013-01-13 18:03:00,58.0,56.6,29.97,NW,320,0.0,0.0,95,0.03,,---,0.26,VWS V14.01,2013-01-13 23:03:00,
2013-01-13 18:04:00,58.0,56.6,29.97,NW,320,0.0,0.0,95,0.03,,---,0.26,VWS V14.01,2013-01-13 23:04:00,
2013-01-13 18:05:00,58.0,56.6,29.97,NW,320,0.0,0.0,95,0.03,,---,0.26,VWS V14.01,2013-01-13 23:05:00,
2013-01-13 18:06:00,58.0,56.6,29.97,NW,320,0.0,0.0,95,0.03,,---,0.26,VWS V14.01,2013-01-13 23:06:00,
2013-01-13 18:07:00,58.0,56.6,29.97,NW,320,0.0,0.0,95,0.03,,---,0.26,VWS V14.01,2013-01-13 23:07:00,
2013-01-13 18:08:00,58.0,56.6,29.97,NW,320,0.0,2.0,95,0.03,,---,0.26,VWS V14.01,2013-01-13 23:08:00,
2013-01-13 18:09:00,58.0,56.6,29.97,NW,320,0.0,2.0,95,0.03,,---,0.26,VWS V14.01,2013-01-13 23:09:00,
2013-01-13 18:10:00,58.0,56.6,29.97,NW,320,0.0,2.0,95,0.03,,---,0.26,VWS V14.01,2013-01-13 23:10:00,
2013-01-13 18:11:00,58.0,56.3,29.97,NW,320,0.0,0.0,94,0.02,,---,0.26,VWS V14.01,2013-01-13 23:11:00,
2013-01-13 18:12:00,58.0,56.6,29.97,NW,320,0.0,0.0,95,0.02,,---,0.26,VWS V14.01,2013-01-13 23:12:00,
2013-01-13 18:13:00,58.0,56.3,29.97,NW,320,0.0,0.0,94,0.02,,---,0.26,VWS V14.01,2013-01-13 23:13:00,
2013-01-13 18:14:00,58.0,56.6,29.97,NW,320,0.0,0.0,95,0.02,,---,0.26,VWS V14.01,2013-01-13 23:14:00,
2013-01-13 18:15:00,58.0,56.6,29.98,NW,320,0.0,0.0,95,0.02,,---,0.26,VWS V14.01,2013-01-13 23:15:00,
2013-01-13 18:16:00,58.0,56.6,29.98,NW,320,0.0,0.0,95,0.02,,---,0.26,VWS V14.01,2013-01-13 23:16:00,
2013-01-13 18:17:00,58.0,56.6,29.98,NW,320,0.0,0.0,95,0.02,,---,0.26,VWS V14.01,2013-01-13 23:17:00,
2013-01-13 18:18:00,58.0,56.6,29.98,NW,320,0.0,0.0,95,0.02,,---,0.26,VWS V14.01,2013-01-13 23:18:00,
2013-01-13 18:19:00,58.0,56.6,29.98,NW,320,0.0,0.0,95,0.02,,---,0.26,VWS V14.01,2013-01-13 23:19:00,
2013-01-13 18:20:00,58.0,56.6,29.98,NW,320,0.0,0.0,95,0.02,,---,0.26,VWS V14.01,2013-01-13 23:20:00,
2013-01-13 18:21:00,58.0,56.6,29.98,NW,320,0.0,0.0,95,0.02,,---,0.26,VWS V14.01,2013-01-13 23:21:00,
2013-01-13 18:22:00,58.0,56.6,29.98,NW,320,0.0,0.0,95,0.02,,---,0.26,VWS V14.01,2013-01-13 23:22:00,
2013-01-13 18:23:00,58.0,56.6,29.98,NW,320,0.0,0.0,95,0.02,,---,0.26,VWS V14.01,2013-01-13 23:23:00,
2013-01-13 18:24:00,58.0,56.6,29.98,NW,320,0.0,0.0,95,0.02,,---,0.26,VWS V14.01,2013-01-13 23:24:00,
2013-01-13 18:25:00,58.0,56.6,29.98,NW,320,0.0,0.0,95,0.02,,---,0.26,VWS V14.01,2013-01-13 23:25:00,
2013-01-13 18:26:00,58.0,56.6,29.98,NW,320,0.0,0.0,95,0.02,,---,0.26,VWS V14.01,2013-01-13 23:26:00,
2013-01-13 18:27:00,58.0,56.6,29.98,NW,320,0.0,0.0,95,0.02,,---,0.26,VWS V14.01,2013-01-13 23:27:00,
2013-01-13 18:28:00,58.0,56.6,29.98,NW,320,0.0,0.0,95,0.02,,---,0.26,VWS V14.01,2013-01-13 23:28:00,
2013-01-13 18:29:00,58.0,56.6,29.98,NW,320,0.0,0.0,95,0.02,,---,0.26,VWS V14.01,2013-01-13 23:29:00,
2013-01-13 18:30:00,58.0,56.6,29.98,NW,320,0.0,0.0,95,0.02,,---,0.26,VWS V14.01,2013-01-13 23:30:00,
2013-01-13 18:31:00,58.0,56.6,29.98,NW,320,0.0,0.0,95,0.01,,---,0.26,VWS V14.01,2013-01-13 23:31:00,
2013-01-13 18:32:00,58.0,56.6,29.98,NW,320,0.0,0.0,95,0.01,,---,0.26,VWS V14.01,2013-01-13 23:32:00,
2013-01-13 18:33:00,58.0,56.6,29.98,NW,320,0.0,0.0,95,0.01,,---,0.26,VWS V14.01,2013-01-13 23:33:00,
2013-01-13 18:34:00,58.0,56.6,29.98,NW,320,0.0,0.0,95,0.01,,---,0.26,VWS V14.01,2013-01-13 23:34:00,
2013-01-13 18:35:00,58.0,56.6,29.98,NW,320,0.0,0.0,95,0.01,,---,0.26,VWS V14.01,2013-01-13 23:35:00,
2013-01-13 18:36:00,58.0,56.6,29.98,NW,320,0.0,0.0,95,0.01,,---,0.26,VWS V14.01,2013-01-13 23:36:00,
2013-01-13 18:37:00,58.0,56.6,29.98,NW,320,0.0,0.0,95,0.01,,---,0.26,VWS V14.01,2013-01-13 23:37:00,
2013-01-13 18:38:00,58.0,56.6,29.98,NW,320,0.0,0.0,95,0.01,,---,0.26,VWS V14.01,2013-01-13 23:38:00,
2013-01-13 18:39:00,58.0,56.6,29.98,NW,320,0.0,0.0,95,0.01,,---,0.26,VWS V14.01,2013-01-13 23:39:00,
2013-01-13 18:40:00,58.0,56.6,29.98,NW,320,0.0,0.0,95,0.01,,---,0.26,VWS V14.01,2013-01-13 23:40:00,
2013-01-13 18:41:00,58.0,56.6,29.98,NW,320,0.0,0.0,95,0.01,,---,0.26,VWS V14.01,2013-01-13 23:41:00,
2013-01-13 18:42:00,58.0,56.6,29.98,NW,320,0.0,0.0,95,0.01,,---,0.26,VWS V14.01,2013-01-13 23:42:00,
2013-01-13 18:43:00,58.0,56.6,29.98,NW,320,0.0,0.0,95,0.01,,---,0.26,VWS V14.01,2013-01-13 23:43:00,
2013-01-13 18:44:00,58.0,56.6,29.98,NW,320,0.0,0.0,95,0.01,,---,0.26,VWS V14.01,2013-01-13 23:44:00,
2013-01-13 18:45:00,58.0,56.6,29.99,NW,320,0.0,0.0,95,0.01,,---,0.26,VWS V14.01,2013-01-13 23:45:00,
2013-01-13 18:46:00,58.0,56.6,29.99,NW,320,0.0,0.0,95,0.01,,---,0.26,VWS V14.01,2013-01-13 23:46:00,
2013-01-13 18:47:00,58.0,56.6,29.99,NW,320,0.0,0.0,95,0.01,,---,0.26,VWS V14.01,2013-01-13 23:47:00,
2013-01-13 18:48:00,58.0,56.6,29.99,NW,320,0.0,0.0,95,0.01,,---,0.26,VWS V14.01,2013-01-13 23:48:00,
2013-01-13 18:49:00,58.0,56.6,29.99,NW,320,0.0,0.0,95,0.01,,---,0.26,VWS V14.01,2013-01-13 23:49:00,
2013-01-13 18:50:00,58.0,56.6,29.99,NW,320,0.0,1.0,95,0.01,,---,0.26,VWS V14.01,2013-01-13 23:50:00,
2013-01-13 18:51:00,58.0,56.6,29.99,NW,320,0.0,0.0,95,0.01,,---,0.26,VWS V14.01,2013-01-13 23:51:00,
2013-01-13 18:52:00,58.0,56.6,29.99,NW,320,0.0,0.0,95,0.01,,---,0.26,VWS V14.01,2013-01-13 23:52:00,
2013-01-13 18:53:00,58.0,56.6,29.99,NW,320,0.0,0.0,95,0.01,,---,0.26,VWS V14.01,2013-01-13 23:53:00,
2013-01-13 18:54:00,58.0,56.6,29.99,NW,320,0.0,0.0,95,0.01,,---,0.26,VWS V14.01,2013-01-13 23:54:00,
2013-01-13 18:55:00,58.0,56.6,29.99,NW,320,0.0,0.0,95,0.01,,---,0.26,VWS V14.01,2013-01-13 23:55:00,
2013-01-13 18:56:00,58.0,56.6,29.99,NW,320,0.0,0.0,95,0.01,,---,0.26,VWS V14.01,2013-01-13 23:56:00,
2013-01-13 18:57:00,58.0,56.6,29.99,NW,320,0.0,0.0,95,0.01,,---,0.26,VWS V14.01,2013-01-13 23:57:00,
2013-01-13 18:58:00,58.0,56.6,29.99,NW,320,0.0,0.0,95,0.01,,---,0.26,VWS V14.01,2013-01-13 23:58:00,
2013-01-13 18:59:00,58.0,56.6,29.99,NW,320,0.0,0.0,95,0.01,,---,0.26,VWS V14.01,2013-01-13 23:59:00,
2013-01-13 19:00:00,58.0,56.6,29.99,NW,320,0.0,0.0,95,0.01,,---,0.26,VWS V14.01,2013-01-14 00:00:00,
2013-01-13 19:01:00,58.0,56.6,29.99,NW,320,0.0,0.0,95,0.00,,---,0.26,VWS V14.01,2013-01-14 00:01:00,
2013-01-13 19:02:00,58.0,56.6,29.99,NW,320,0.0,0.0,95,0.00,,---,0.26,VWS V14.01,2013-01-14 00:02:00,
2013-01-13 19:03:00,58.0,56.6,29.99,NW,320,0.0,0.0,95,0.00,,---,0.26,VWS V14.01,2013-01-14 00:03:00,
2013-01-13 19:04:00,58.0,56.6,29.99,NW,320,0.0,0.0,95,0.00,,---,0.26,VWS V14.01,2013-01-14 00:04:00,
2013-01-13 19:05:00,58.0,56.6,29.99,NW,320,0.0,0.0,95,0.00,,---,0.26,VWS V14.01,2013-01-14 00:05:00,
2013-01-13 19:06:00,58.0,56.6,29.99,NW,320,2.0,2.0,95,0.00,,---,0.26,VWS V14.01,2013-01-14 00:06:00,
2013-01-13 19:07:00,58.0,56.6,29.99,NW,320,0.0,3.0,95,0.00,,---,0.26,VWS V14.01,2013-01-14 00:07:00,
2013-01-13 19:08:00,58.0,56.6,29.99,NW,320,0.0,3.0,95,0.00,,---,0.26,VWS V14.01,2013-01-14 00:08:00,
2013-01-13 19:09:00,58.0,56.6,29.99,NW,320,0.0,3.0,95,0.00,,---,0.26,VWS V14.01,2013-01-14 00:09:00,
2013-01-13 19:10:00,58.0,56.6,29.99,NW,320,0.0,3.0,95,0.00,,---,0.26,VWS V14.01,2013-01-14 00:10:00,
2013-01-13 19:11:00,58.0,56.6,29.99,NW,320,0.0,0.0,95,0.00,,---,0.26,VWS V14.01,2013-01-14 00:11:00,
2013-01-13 19:12:00,58.0,56.6,29.99,NW,320,0.0,0.0,95,0.00,,---,0.26,VWS V14.01,2013-01-14 00:12:00,
2013-01-13 19:13:00,58.0,56.6,29.99,NW,320,0.0,0.0,95,0.00,,---,0.26,VWS V14.01,2013-01-14 00:13:00,
2013-01-13 19:14:00,58.0,56.6,29.99,NW,320,0.0,0.0,95,0.00,,---,0.26,VWS V14.01,2013-01-14 00:14:00,
2013-01-13 19:15:00,58.1,56.7,29.99,NW,320,0.0,0.0,95,0.00,,---,0.26,VWS V14.01,2013-01-14 00:15:00,
2013-01-13 19:16:00,58.1,56.7,29.99,NW,320,0.0,1.0,95,0.00,,---,0.26,VWS V14.01,2013-01-14 00:16:00,
2013-01-13 19:17:00,58.1,56.7,29.99,NW,320,0.0,1.0,95,0.00,,---,0.26,VWS V14.01,2013-01-14 00:17:00,
2013-01-13 19:18:00,58.1,56.7,29.99,NW,320,0.0,1.0,95,0.00,,---,0.26,VWS V14.01,2013-01-14 00:18:00,
2013-01-13 19:19:00,58.1,56.7,29.99,NW,320,0.0,1.0,95,0.00,,---,0.26,VWS V14.01,2013-01-14 00:19:00,
2013-01-13 19:20:00,58.1,56.7,29.99,NW,320,0.0,1.0,95,0.00,,---,0.26,VWS V14.01,2013-01-14 00:20:00,
2013-01-13 19:21:00,58.1,56.7,29.99,NW,320,0.0,0.0,95,0.00,,---,0.26,VWS V14.01,2013-01-14 00:21:00,
2013-01-13 19:22:00,58.1,56.7,29.99,NW,320,1.0,2.0,95,0.00,,---,0.26,VWS V14.01,2013-01-14 00:22:00,
2013-01-13 19:23:00,58.1,56.7,29.99,NW,320,0.0,2.0,95,0.00,,---,0.26,VWS V14.01,2013-01-14 00:23:00,
2013-01-13 19:24:00,58.1,56.7,29.99,NW,320,0.0,2.0,95,0.00,,---,0.26,VWS V14.01,2013-01-14 00:24:00,
2013-01-13 19:25:00,58.1,56.7,29.99,NW,320,0.0,2.0,95,0.00,,---,0.26,VWS V14.01,2013-01-14 00:25:00,
2013-01-13 19:26:00,58.1,56.7,29.99,NW,320,0.0,2.0,95,0.00,,---,0.26,VWS V14.01,2013-01-14 00:26:00,
2013-01-13 19:27:00,58.1,56.7,29.99,NW,320,0.0,2.0,95,0.00,,---,0.26,VWS V14.01,2013-01-14 00:27:00,
2013-01-13 19:28:00,58.1,56.7,29.99,NW,320,0.0,2.0,95,0.00,,---,0.26,VWS V14.01,2013-01-14 00:28:00,
2013-01-13 19:29:00,58.1,56.7,29.99,NW,320,0.0,2.0,95,0.00,,---,0.26,VWS V14.01,2013-01-14 00:29:00,
2013-01-13 19:30:00,58.1,56.7,29.99,NW,320,0.0,2.0,95,0.00,,---,0.26,VWS V14.01,2013-01-14 00:30:00,
2013-01-13 19:31:00,58.1,56.7,29.99,NW,320,0.0,0.0,95,0.00,,---,0.26,VWS V14.01,2013-01-14 00:31:00,
2013-01-13 19:32:00,58.1,56.7,29.99,NW,320,0.0,0.0,95,0.00,,---,0.26,VWS V14.01,2013-01-14 00:32:00,
2013-01-13 19:33:00,58.1,56.7,29.99,NW,320,0.0,0.0,95,0.00,,---,0.26,VWS V14.01,2013-01-14 00:33:00,
2013-01-13 19:34:00,58.1,56.7,29.99,NW,320,0.0,0.0,95,0.00,,---,0.26,VWS V14.01,2013-01-14 00:34:00,
2013-01-13 19:35:00,58.1,56.7,29.99,NW,320,2.0,2.0,95,0.00,,---,0.26,VWS V14.01,2013-01-14 00:35:00,
2013-01-13 19:36:00,58.1,56.7,29.99,NW,320,2.0,5.0,95,0.00,,---,0.26,VWS V14.01,2013-01-14 00:36:00,
2013-01-13 19:37:00,58.1,56.7,29.99,NW,320,0.0,5.0,95,0.00,,---,0.26,VWS V14.01,2013-01-14 00:37:00,
2013-01-13 19:38:00,58.1,56.7,29.99,NW,320,0.0,5.0,95,0.00,,---,0.26,VWS V14.01,2013-01-14 00:38:00,
2013-01-13 19:39:00,58.1,56.7,29.99,NW,320,0.0,5.0,95,0.00,,---,0.26,VWS V14.01,2013-01-14 00:39:00,
2013-01-13 19:40:00,58.1,56.7,29.99,NW,320,0.0,5.0,95,0.00,,---,0.26,VWS V14.01,2013-01-14 00:40:00,
2013-01-13 19:41:00,58.1,56.7,29.99,NW,320,0.0,0.0,95,0.01,,---,0.27,VWS V14.01,2013-01-14 00:41:00,
2013-01-13 19:42:00,58.1,56.7,29.99,NW,320,0.0,0.0,95,0.01,,---,0.27,VWS V14.01,2013-01-14 00:42:00,
2013-01-13 19:43:00,58.1,56.7,29.99,NW,320,0.0,0.0,95,0.01,,---,0.27,VWS V14.01,2013-01-14 00:43:00,
2013-01-13 19:44:00,58.1,56.7,29.99,NW,320,0.0,0.0,95,0.01,,---,0.27,VWS V14.01,2013-01-14 00:44:00,
2013-01-13 19:45:00,58.1,56.7,30.00,NW,320,0.0,0.0,95,0.01,,---,0.27,VWS V14.01,2013-01-14 00:45:00,
2013-01-13 19:46:00,58.1,56.7,30.00,NW,320,0.0,0.0,95,0.01,,---,0.27,VWS V14.01,2013-01-14 00:46:00,
2013-01-13 19:47:00,58.1,56.7,30.00,NW,320,0.0,0.0,95,0.01,,---,0.27,VWS V14.01,2013-01-14 00:47:00,
2013-01-13 19:48:00,58.1,56.7,30.00,NW,320,0.0,0.0,95,0.01,,---,0.27,VWS V14.01,2013-01-14 00:48:00,
2013-01-13 19:49:00,58.1,56.7,30.00,NW,320,0.0,0.0,95,0.01,,---,0.27,VWS V14.01,2013-01-14 00:49:00,
2013-01-13 19:50:00,58.1,56.7,30.00,NW,320,0.0,0.0,95,0.01,,---,0.27,VWS V14.01,2013-01-14 00:50:00,
2013-01-13 19:51:00,58.1,56.7,30.00,NW,320,0.0,0.0,95,0.01,,---,0.27,VWS V14.01,2013-01-14 00:51:00,
2013-01-13 19:52:00,58.1,56.7,30.00,NW,320,0.0,0.0,95,0.01,,---,0.27,VWS V14.01,2013-01-14 00:52:00,
2013-01-13 19:53:00,58.1,56.7,30.00,NW,320,0.0,0.0,95,0.01,,---,0.27,VWS V14.01,2013-01-14 00:53:00,
2013-01-13 19:54:00,58.1,56.7,30.00,NW,320,0.0,0.0,95,0.01,,---,0.27,VWS V14.01,2013-01-14 00:54:00,
2013-01-13 19:55:00,58.1,56.7,30.00,NW,320,0.0,0.0,95,0.01,,---,0.27,VWS V14.01,2013-01-14 00:55:00,
2013-01-13 19:56:00,58.1,56.7,30.00,NW,320,0.0,0.0,95,0.01,,---,0.27,VWS V14.01,2013-01-14 00:56:00,
2013-01-13 19:57:00,58.1,56.7,30.00,NW,320,0.0,0.0,95,0.01,,---,0.27,VWS V14.01,2013-01-14 00:57:00,
2013-01-13 19:58:00,58.1,56.7,30.00,NW,320,0.0,0.0,95,0.01,,---,0.27,VWS V14.01,2013-01-14 00:58:00,
2013-01-13 19:59:00,58.1,56.7,30.00,NW,320,0.0,0.0,95,0.01,,---,0.27,VWS V14.01,2013-01-14 00:59:00,
2013-01-13 20:00:00,58.1,56.7,30.01,NW,320,0.0,0.0,95,0.01,,---,0.27,VWS V14.01,2013-01-14 01:00:00,
2013-01-13 20:01:00,58.1,56.7,30.01,NW,320,0.0,2.0,95,0.01,,---,0.27,VWS V14.01,2013-01-14 01:01:00,
2013-01-13 20:02:00,58.1,56.7,30.01,NW,320,0.0,2.0,95,0.01,,---,0.27,VWS V14.01,2013-01-14 01:02:00,
2013-01-13 20:03:00,58.1,56.7,30.01,NW,320,0.0,2.0,95,0.01,,---,0.27,VWS V14.01,2013-01-14 01:03:00,
2013-01-13 20:04:00,58.1,56.7,30.01,NW,320,0.0,2.0,95,0.01,,---,0.27,VWS V14.01,2013-01-14 01:04:00,
2013-01-13 20:05:00,58.1,56.7,30.01,NW,320,0.0,2.0,95,0.01,,---,0.27,VWS V14.01,2013-01-14 01:05:00,
2013-01-13 20:06:00,58.1,56.7,30.01,NW,320,0.0,2.0,95,0.01,,---,0.27,VWS V14.01,2013-01-14 01:06:00,
2013-01-13 20:07:00,58.1,56.7,30.01,NW,320,0.0,2.0,95,0.01,,---,0.27,VWS V14.01,2013-01-14 01:07:00,
2013-01-13 20:08:00,58.1,56.7,30.01,NW,320,0.0,2.0,95,0.01,,---,0.27,VWS V14.01,2013-01-14 01:08:00,
2013-01-13 20:09:00,58.1,56.7,30.01,NW,320,0.0,2.0,95,0.01,,---,0.27,VWS V14.01,2013-01-14 01:09:00,
2013-01-13 20:10:00,58.1,56.7,30.01,NW,320,0.0,2.0,95,0.01,,---,0.27,VWS V14.01,2013-01-14 01:10:00,
2013-01-13 20:11:00,58.1,56.7,30.01,NW,320,0.0,0.0,95,0.01,,---,0.27,VWS V14.01,2013-01-14 01:11:00,
2013-01-13 20:12:00,58.1,56.7,30.01,NW,320,0.0,0.0,95,0.01,,---,0.27,VWS V14.01,2013-01-14 01:12:00,
2013-01-13 20:13:00,58.1,56.7,30.01,NW,320,0.0,0.0,95,0.01,,---,0.27,VWS V14.01,2013-01-14 01:13:00,
2013-01-13 20:14:00,58.1,56.7,30.01,NW,320,0.0,0.0,95,0.01,,---,0.27,VWS V14.01,2013-01-14 01:14:00,
2013-01-13 20:15:00,58.1,56.7,30.01,NW,320,0.0,0.0,95,0.01,,---,0.27,VWS V14.01,2013-01-14 01:15:00,
2013-01-13 20:16:00,58.1,56.7,30.01,NW,320,0.0,0.0,95,0.01,,---,0.27,VWS V14.01,2013-01-14 01:16:00,
2013-01-13 20:17:00,58.1,56.7,30.01,NW,320,0.0,0.0,95,0.01,,---,0.27,VWS V14.01,2013-01-14 01:17:00,
2013-01-13 20:18:00,58.1,56.7,30.01,NW,320,0.0,0.0,95,0.01,,---,0.27,VWS V14.01,2013-01-14 01:18:00,
2013-01-13 20:19:00,58.1,56.7,30.01,NW,320,0.0,0.0,95,0.01,,---,0.27,VWS V14.01,2013-01-14 01:19:00,
2013-01-13 20:20:00,58.1,56.7,30.01,NW,320,0.0,0.0,95,0.01,,---,0.27,VWS V14.01,2013-01-14 01:20:00,
2013-01-13 20:21:00,58.1,56.7,30.01,NW,320,0.0,0.0,95,0.01,,---,0.27,VWS V14.01,2013-01-14 01:21:00,
2013-01-13 20:22:00,58.1,56.7,30.01,NW,320,0.0,0.0,95,0.01,,---,0.27,VWS V14.01,2013-01-14 01:22:00,
2013-01-13 20:23:00,58.1,56.7,30.01,NW,320,0.0,0.0,95,0.01,,---,0.27,VWS V14.01,2013-01-14 01:23:00,
2013-01-13 20:24:00,58.1,56.7,30.01,NW,320,0.0,0.0,95,0.01,,---,0.27,VWS V14.01,2013-01-14 01:24:00,
2013-01-13 20:25:00,58.1,56.7,30.01,NW,320,0.0,0.0,95,0.01,,---,0.27,VWS V14.01,2013-01-14 01:25:00,
2013-01-13 20:26:00,58.1,56.7,30.01,NW,320,0.0,0.0,95,0.01,,---,0.27,VWS V14.01,2013-01-14 01:26:00,
2013-01-13 20:27:00,58.1,56.7,30.01,NW,320,0.0,0.0,95,0.01,,---,0.27,VWS V14.01,2013-01-14 01:27:00,
2013-01-13 20:28:00,58.1,56.7,30.01,NW,320,0.0,0.0,95,0.01,,---,0.27,VWS V14.01,2013-01-14 01:28:00,
2013-01-13 20:29:00,58.1,56.7,30.01,NW,320,0.0,0.0,95,0.01,,---,0.27,VWS V14.01,2013-01-14 01:29:00,
2013-01-13 20:30:00,58.1,56.7,30.01,NW,320,0.0,0.0,95,0.01,,---,0.27,VWS V14.01,2013-01-14 01:30:00,
2013-01-13 20:31:00,58.1,56.7,30.01,NW,320,0.0,0.0,95,0.01,,---,0.27,VWS V14.01,2013-01-14 01:31:00,
2013-01-13 20:32:00,58.1,56.7,30.01,NW,320,0.0,0.0,95,0.01,,---,0.27,VWS V14.01,2013-01-14 01:32:00,
2013-01-13 20:33:00,58.1,56.7,30.01,NW,320,0.0,0.0,95,0.01,,---,0.27,VWS V14.01,2013-01-14 01:33:00,
2013-01-13 20:34:00,58.1,56.7,30.01,NW,320,0.0,0.0,95,0.01,,---,0.27,VWS V14.01,2013-01-14 01:34:00,
2013-01-13 20:35:00,58.3,56.9,30.01,NW,320,2.0,3.0,95,0.01,,---,0.27,VWS V14.01,2013-01-14 01:35:00,
2013-01-13 20:36:00,58.3,56.9,30.01,NW,320,1.0,3.0,95,0.01,,---,0.27,VWS V14.01,2013-01-14 01:36:00,
2013-01-13 20:37:00,58.3,56.9,30.01,NW,320,0.0,3.0,95,0.01,,---,0.27,VWS V14.01,2013-01-14 01:37:00,
2013-01-13 20:38:00,58.3,56.9,30.01,NW,320,0.0,3.0,95,0.01,,---,0.27,VWS V14.01,2013-01-14 01:38:00,
2013-01-13 20:39:00,58.3,56.9,30.01,NW,320,0.0,3.0,95,0.01,,---,0.27,VWS V14.01,2013-01-14 01:39:00,
2013-01-13 20:40:00,58.3,56.9,30.01,NW,320,0.0,3.0,95,0.01,,---,0.27,VWS V14.01,2013-01-14 01:40:00,
2013-01-13 20:41:00,58.3,56.9,30.01,NW,320,0.0,1.0,95,0.01,,---,0.27,VWS V14.01,2013-01-14 01:41:00,
2013-01-13 20:42:00,58.3,56.9,30.01,NW,320,0.0,1.0,95,0.01,,---,0.27,VWS V14.01,2013-01-14 01:42:00,
2013-01-13 20:43:00,58.3,56.9,30.01,NW,320,0.0,1.0,95,0.01,,---,0.27,VWS V14.01,2013-01-14 01:43:00,
2013-01-13 20:44:00,58.3,56.9,30.01,NW,320,0.0,1.0,95,0.01,,---,0.27,VWS V14.01,2013-01-14 01:44:00,
2013-01-13 20:45:00,58.3,56.9,30.02,NW,320,0.0,1.0,95,0.01,,---,0.27,VWS V14.01,2013-01-14 01:45:00,
2013-01-13 20:46:00,58.3,56.9,30.02,NW,320,0.0,1.0,95,0.01,,---,0.27,VWS V14.01,2013-01-14 01:46:00,
2013-01-13 20:47:00,58.3,56.9,30.02,NW,316,0.0,1.0,95,0.01,,---,0.27,VWS V14.01,2013-01-14 01:47:00,
2013-01-13 20:48:00,58.3,56.9,30.02,NW,320,0.0,1.0,95,0.01,,---,0.27,VWS V14.01,2013-01-14 01:48:00,
2013-01-13 20:49:00,58.3,56.9,30.02,NW,320,0.0,1.0,95,0.01,,---,0.27,VWS V14.01,2013-01-14 01:49:00,
2013-01-13 20:50:00,58.3,56.9,30.02,NW,320,0.0,3.0,95,0.01,,---,0.27,VWS V14.01,2013-01-14 01:50:00,
2013-01-13 20:51:00,58.3,56.9,30.02,NW,320,0.0,0.0,95,0.00,,---,0.27,VWS V14.01,2013-01-14 01:51:00,
2013-01-13 20:52:00,58.3,56.9,30.02,NW,320,0.0,0.0,95,0.00,,---,0.27,VWS V14.01,2013-01-14 01:52:00,
2013-01-13 20:53:00,58.3,56.9,30.02,NW,320,0.0,0.0,95,0.00,,---,0.27,VWS V14.01,2013-01-14 01:53:00,
2013-01-13 20:54:00,58.3,56.9,30.02,NW,320,0.0,0.0,95,0.00,,---,0.27,VWS V14.01,2013-01-14 01:54:00,
2013-01-13 20:55:00,58.3,56.9,30.02,NW,320,0.0,0.0,95,0.00,,---,0.27,VWS V14.01,2013-01-14 01:55:00,
2013-01-13 20:56:00,58.3,56.9,30.02,NW,320,3.0,3.0,95,0.00,,---,0.27,VWS V14.01,2013-01-14 01:56:00,
2013-01-13 20:57:00,58.3,56.9,30.02,NW,320,0.0,3.0,95,0.00,,---,0.27,VWS V14.01,2013-01-14 01:57:00,
2013-01-13 20:58:00,58.3,56.9,30.02,NW,320,0.0,3.0,95,0.00,,---,0.27,VWS V14.01,2013-01-14 01:58:00,
2013-01-13 20:59:00,58.3,56.9,30.02,NW,320,0.0,3.0,95,0.00,,---,0.27,VWS V14.01,2013-01-14 01:59:00,
2013-01-13 21:00:00,58.3,56.9,30.02,NW,320,0.0,3.0,95,0.00,,---,0.27,VWS V14.01,2013-01-14 02:00:00,
2013-01-13 21:01:00,58.3,56.9,30.02,NW,320,0.0,0.0,95,0.00,,---,0.27,VWS V14.01,2013-01-14 02:01:00,
2013-01-13 21:02:00,58.3,56.9,30.02,NW,320,0.0,0.0,95,0.00,,---,0.27,VWS V14.01,2013-01-14 02:02:00,
2013-01-13 21:03:00,58.3,56.9,30.02,NW,320,0.0,0.0,95,0.00,,---,0.27,VWS V14.01,2013-01-14 02:03:00,
2013-01-13 21:04:00,58.3,56.9,30.02,NW,320,2.0,3.0,95,0.00,,---,0.27,VWS V14.01,2013-01-14 02:04:00,
2013-01-13 21:05:00,58.3,56.9,30.02,NW,320,0.0,3.0,95,0.00,,---,0.27,VWS V14.01,2013-01-14 02:05:00,
2013-01-13 21:06:00,58.3,56.9,30.02,NW,320,2.0,3.0,95,0.00,,---,0.27,VWS V14.01,2013-01-14 02:06:00,
2013-01-13 21:07:00,58.3,56.9,30.02,NW,320,0.0,3.0,95,0.00,,---,0.27,VWS V14.01,2013-01-14 02:07:00,
2013-01-13 21:08:00,58.3,56.9,30.02,NW,320,0.0,3.0,95,0.00,,---,0.27,VWS V14.01,2013-01-14 02:08:00,
2013-01-13 21:09:00,58.3,56.9,30.02,NW,320,2.0,3.0,95,0.00,,---,0.27,VWS V14.01,2013-01-14 02:09:00,
2013-01-13 21:10:00,58.3,56.9,30.02,NW,320,0.0,3.0,95,0.00,,---,0.27,VWS V14.01,2013-01-14 02:10:00,
2013-01-13 21:11:00,58.3,56.9,30.02,NW,320,0.0,0.0,95,0.00,,---,0.27,VWS V14.01,2013-01-14 02:11:00,
2013-01-13 21:12:00,58.3,56.9,30.02,NW,320,0.0,0.0,95,0.00,,---,0.27,VWS V14.01,2013-01-14 02:12:00,
2013-01-13 21:13:00,58.3,56.9,30.02,NW,320,0.0,0.0,95,0.00,,---,0.27,VWS V14.01,2013-01-14 02:13:00,
2013-01-13 21:14:00,58.3,56.9,30.02,NW,320,0.0,0.0,95,0.00,,---,0.27,VWS V14.01,2013-01-14 02:14:00,
2013-01-13 21:15:00,58.3,56.9,30.03,NW,320,0.0,0.0,95,0.00,,---,0.27,VWS V14.01,2013-01-14 02:15:00,
2013-01-13 21:16:00,58.3,56.9,30.03,NW,320,0.0,0.0,95,0.00,,---,0.27,VWS V14.01,2013-01-14 02:16:00,
2013-01-13 21:17:00,58.3,56.9,30.03,NW,320,0.0,0.0,95,0.00,,---,0.27,VWS V14.01,2013-01-14 02:17:00,
2013-01-13 21:18:00,58.3,56.9,30.03,NW,320,0.0,0.0,95,0.00,,---,0.27,VWS V14.01,2013-01-14 02:18:00,
2013-01-13 21:19:00,58.3,56.9,30.03,NW,320,0.0,0.0,95,0.00,,---,0.27,VWS V14.01,2013-01-14 02:19:00,
2013-01-13 21:20:00,58.3,56.9,30.03,NW,320,1.0,2.0,95,0.00,,---,0.27,VWS V14.01,2013-01-14 02:20:00,
2013-01-13 21:21:00,58.3,56.9,30.03,NW,320,0.0,1.0,95,0.00,,---,0.27,VWS V14.01,2013-01-14 02:21:00,
2013-01-13 21:22:00,58.3,56.9,30.03,NW,320,0.0,1.0,95,0.00,,---,0.27,VWS V14.01,2013-01-14 02:22:00,
2013-01-13 21:23:00,58.3,56.9,30.03,NW,320,0.0,1.0,95,0.00,,---,0.27,VWS V14.01,2013-01-14 02:23:00,
2013-01-13 21:24:00,58.3,56.9,30.03,NW,320,0.0,2.0,95,0.00,,---,0.27,VWS V14.01,2013-01-14 02:24:00,
2013-01-13 21:25:00,58.3,56.9,30.03,NW,320,0.0,2.0,95,0.00,,---,0.27,VWS V14.01,2013-01-14 02:25:00,
2013-01-13 21:26:00,58.3,56.9,30.03,NW,320,0.0,2.0,95,0.00,,---,0.27,VWS V14.01,2013-01-14 02:26:00,
2013-01-13 21:27:00,58.3,56.9,30.03,NW,320,0.0,2.0,95,0.01,,---,0.28,VWS V14.01,2013-01-14 02:27:00,
2013-01-13 21:28:00,58.3,56.9,30.03,NW,320,0.0,2.0,95,0.01,,---,0.28,VWS V14.01,2013-01-14 02:28:00,
2013-01-13 21:29:00,58.3,56.9,30.03,NW,320,0.0,2.0,95,0.01,,---,0.28,VWS V14.01,2013-01-14 02:29:00,
2013-01-13 21:30:00,58.3,56.9,30.03,NW,320,0.0,2.0,95,0.01,,---,0.28,VWS V14.01,2013-01-14 02:30:00,
2013-01-13 21:31:00,58.3,56.9,30.03,NW,320,0.0,0.0,95,0.01,,---,0.28,VWS V14.01,2013-01-14 02:31:00,
2013-01-13 21:32:00,58.3,56.9,30.03,NW,320,0.0,0.0,95,0.01,,---,0.28,VWS V14.01,2013-01-14 02:32:00,
2013-01-13 21:33:00,58.3,56.9,30.03,NW,320,3.0,4.0,95,0.01,,---,0.28,VWS V14.01,2013-01-14 02:33:00,
2013-01-13 21:34:00,58.3,56.9,30.03,NW,320,0.0,4.0,95,0.01,,---,0.28,VWS V14.01,2013-01-14 02:34:00,
2013-01-13 21:35:00,58.3,56.9,30.03,NW,320,0.0,4.0,95,0.01,,---,0.28,VWS V14.01,2013-01-14 02:35:00,
2013-01-13 21:36:00,58.4,57.0,30.03,NW,320,0.0,4.0,95,0.01,,---,0.28,VWS V14.01,2013-01-14 02:36:00,
2013-01-13 21:37:00,58.4,57.0,30.03,NW,320,2.0,4.0,95,0.01,,---,0.28,VWS V14.01,2013-01-14 02:37:00,
2013-01-13 21:38:00,58.4,57.0,30.03,NW,320,0.0,4.0,95,0.01,,---,0.28,VWS V14.01,2013-01-14 02:38:00,
2013-01-13 21:39:00,58.4,57.0,30.03,NW,320,0.0,4.0,95,0.01,,---,0.28,VWS V14.01,2013-01-14 02:39:00,
2013-01-13 21:40:00,58.4,57.0,30.03,NW,320,0.0,4.0,95,0.01,,---,0.28,VWS V14.01,2013-01-14 02:40:00,
2013-01-13 21:41:00,58.4,57.0,30.03,NW,320,0.0,0.0,95,0.01,,---,0.28,VWS V14.01,2013-01-14 02:41:00,
2013-01-13 21:42:00,58.4,57.0,30.03,NW,320,0.0,0.0,95,0.01,,---,0.28,VWS V14.01,2013-01-14 02:42:00,
2013-01-13 21:43:00,58.4,57.0,30.03,NW,320,0.0,0.0,95,0.01,,---,0.28,VWS V14.01,2013-01-14 02:43:00,
2013-01-13 21:44:00,58.4,57.0,30.03,NW,320,0.0,0.0,95,0.01,,---,0.28,VWS V14.01,2013-01-14 02:44:00,
2013-01-13 21:45:00,58.4,57.0,30.03,NW,320,0.0,0.0,95,0.01,,---,0.28,VWS V14.01,2013-01-14 02:45:00,
2013-01-13 21:46:00,58.4,57.0,30.03,NW,320,0.0,0.0,95,0.01,,---,0.28,VWS V14.01,2013-01-14 02:46:00,
2013-01-13 21:47:00,58.4,57.0,30.03,NW,320,0.0,0.0,95,0.01,,---,0.28,VWS V14.01,2013-01-14 02:47:00,
2013-01-13 21:48:00,58.4,57.0,30.03,NW,320,0.0,0.0,95,0.01,,---,0.28,VWS V14.01,2013-01-14 02:48:00,
2013-01-13 21:49:00,58.4,57.0,30.03,NW,320,0.0,0.0,95,0.01,,---,0.28,VWS V14.01,2013-01-14 02:49:00,
2013-01-13 21:50:00,58.4,57.0,30.03,NW,320,2.0,3.0,95,0.01,,---,0.28,VWS V14.01,2013-01-14 02:50:00,
2013-01-13 21:51:00,58.4,57.0,30.03,NW,320,2.0,3.0,95,0.01,,---,0.28,VWS V14.01,2013-01-14 02:51:00,
2013-01-13 21:52:00,58.4,57.0,30.03,West,268,6.0,6.0,95,0.01,,---,0.28,VWS V14.01,2013-01-14 02:52:00,
2013-01-13 21:53:00,58.4,57.0,30.03,West,268,0.0,6.0,95,0.01,,---,0.28,VWS V14.01,2013-01-14 02:53:00,
2013-01-13 21:54:00,58.4,57.0,30.03,West,268,2.0,6.0,95,0.01,,---,0.28,VWS V14.01,2013-01-14 02:54:00,
2013-01-13 21:55:00,58.4,57.0,30.03,West,268,0.0,6.0,95,0.01,,---,0.28,VWS V14.01,2013-01-14 02:55:00,
2013-01-13 21:56:00,58.4,57.0,30.03,West,268,0.0,6.0,95,0.01,,---,0.28,VWS V14.01,2013-01-14 02:56:00,
2013-01-13 21:57:00,58.4,57.0,30.03,West,268,2.0,6.0,95,0.01,,---,0.28,VWS V14.01,2013-01-14 02:57:00,
2013-01-13 21:58:00,58.6,57.2,30.03,West,268,0.0,6.0,95,0.01,,---,0.28,VWS V14.01,2013-01-14 02:58:00,
2013-01-13 21:59:00,58.6,57.2,30.03,West,268,0.0,6.0,95,0.01,,---,0.28,VWS V14.01,2013-01-14 02:59:00,
2013-01-13 22:00:00,58.6,57.2,30.04,West,268,0.0,6.0,95,0.01,,---,0.28,VWS V14.01,2013-01-14 03:00:00,
2013-01-13 22:01:00,58.6,57.2,30.04,West,268,0.0,0.0,95,0.01,,---,0.28,VWS V14.01,2013-01-14 03:01:00,
2013-01-13 22:02:00,58.6,57.2,30.04,WNW,282,3.0,5.0,95,0.01,,---,0.28,VWS V14.01,2013-01-14 03:02:00,
2013-01-13 22:03:00,58.6,57.2,30.04,WNW,282,0.0,5.0,95,0.01,,---,0.28,VWS V14.01,2013-01-14 03:03:00,
2013-01-13 22:04:00,58.6,57.2,30.04,WNW,282,0.0,5.0,95,0.01,,---,0.28,VWS V14.01,2013-01-14 03:04:00,
2013-01-13 22:05:00,58.6,57.2,30.04,WNW,282,0.0,5.0,95,0.01,,---,0.28,VWS V14.01,2013-01-14 03:05:00,
2013-01-13 22:06:00,58.6,57.2,30.04,WNW,282,0.0,5.0,95,0.01,,---,0.28,VWS V14.01,2013-01-14 03:06:00,
2013-01-13 22:07:00,58.6,57.2,30.04,WNW,282,0.0,5.0,95,0.01,,---,0.28,VWS V14.01,2013-01-14 03:07:00,
2013-01-13 22:08:00,58.6,57.2,30.04,WNW,282,0.0,5.0,95,0.01,,---,0.28,VWS V14.01,2013-01-14 03:08:00,
2013-01-13 22:09:00,58.6,57.2,30.04,WNW,282,2.0,5.0,95,0.01,,---,0.28,VWS V14.01,2013-01-14 03:09:00,
2013-01-13 22:10:00,58.6,57.2,30.04,WNW,282,2.0,5.0,95,0.02,,---,0.29,VWS V14.01,2013-01-14 03:10:00,
2013-01-13 22:11:00,58.6,57.2,30.04,WNW,282,1.0,3.0,95,0.02,,---,0.29,VWS V14.01,2013-01-14 03:11:00,
2013-01-13 22:12:00,58.6,57.2,30.04,WNW,282,1.0,3.0,95,0.02,,---,0.29,VWS V14.01,2013-01-14 03:12:00,
2013-01-13 22:13:00,58.6,57.2,30.04,WNW,282,2.0,5.0,95,0.02,,---,0.29,VWS V14.01,2013-01-14 03:13:00,
2013-01-13 22:14:00,58.6,57.2,30.04,WNW,282,2.0,5.0,95,0.02,,---,0.29,VWS V14.01,2013-01-14 03:14:00,
2013-01-13 22:15:00,58.6,57.2,30.04,WNW,282,0.0,5.0,95,0.02,,---,0.29,VWS V14.01,2013-01-14 03:15:00,
2013-01-13 22:16:00,58.6,57.2,30.04,WNW,282,1.0,5.0,95,0.02,,---,0.29,VWS V14.01,2013-01-14 03:16:00,
2013-01-13 22:17:00,58.6,57.2,30.04,WNW,282,0.0,5.0,95,0.02,,---,0.29,VWS V14.01,2013-01-14 03:17:00,
2013-01-13 22:18:00,58.6,57.2,30.04,WNW,282,0.0,5.0,95,0.02,,---,0.29,VWS V14.01,2013-01-14 03:18:00,
2013-01-13 22:19:00,58.6,57.2,30.04,WNW,282,0.0,5.0,95,0.02,,---,0.29,VWS V14.01,2013-01-14 03:19:00,
2013-01-13 22:20:00,58.6,57.2,30.04,WNW,282,0.0,5.0,95,0.02,,---,0.29,VWS V14.01,2013-01-14 03:20:00,
2013-01-13 22:21:00,58.6,57.2,30.04,WNW,282,0.0,0.0,95,0.02,,---,0.29,VWS V14.01,2013-01-14 03:21:00,
2013-01-13 22:22:00,58.6,57.2,30.04,WNW,282,0.0,0.0,95,0.02,,---,0.29,VWS V14.01,2013-01-14 03:22:00,
2013-01-13 22:23:00,58.6,57.2,30.04,WNW,282,0.0,0.0,95,0.02,,---,0.29,VWS V14.01,2013-01-14 03:23:00,
2013-01-13 22:24:00,58.6,57.2,30.04,WNW,282,0.0,0.0,95,0.02,,---,0.29,VWS V14.01,2013-01-14 03:24:00,
2013-01-13 22:25:00,58.6,57.2,30.04,WNW,282,0.0,0.0,95,0.02,,---,0.29,VWS V14.01,2013-01-14 03:25:00,
2013-01-13 22:26:00,58.6,57.2,30.04,WNW,282,0.0,0.0,95,0.02,,---,0.29,VWS V14.01,2013-01-14 03:26:00,
2013-01-13 22:27:00,58.6,57.2,30.04,WNW,282,0.0,0.0,95,0.02,,---,0.29,VWS V14.01,2013-01-14 03:27:00,
2013-01-13 22:28:00,58.6,57.2,30.04,WNW,282,0.0,0.0,95,0.02,,---,0.29,VWS V14.01,2013-01-14 03:28:00,
2013-01-13 22:29:00,58.6,57.2,30.04,WNW,282,0.0,0.0,95,0.02,,---,0.29,VWS V14.01,2013-01-14 03:29:00,
2013-01-13 22:30:00,58.6,57.2,30.03,WNW,282,0.0,0.0,95,0.02,,---,0.29,VWS V14.01,2013-01-14 03:30:00,
2013-01-13 22:31:00,58.6,57.2,30.03,WNW,282,0.0,0.0,95,0.01,,---,0.29,VWS V14.01,2013-01-14 03:31:00,
2013-01-13 22:32:00,58.6,57.2,30.03,WNW,282,0.0,0.0,95,0.01,,---,0.29,VWS V14.01,2013-01-14 03:32:00,
2013-01-13 22:33:00,58.6,57.2,30.03,WNW,282,0.0,0.0,95,0.01,,---,0.29,VWS V14.01,2013-01-14 03:33:00,
2013-01-13 22:34:00,58.6,57.2,30.03,WNW,282,0.0,0.0,95,0.01,,---,0.29,VWS V14.01,2013-01-14 03:34:00,
2013-01-13 22:35:00,58.6,57.2,30.03,WNW,282,0.0,0.0,95,0.01,,---,0.29,VWS V14.01,2013-01-14 03:35:00,
2013-01-13 22:36:00,58.6,57.2,30.03,WNW,282,0.0,0.0,95,0.01,,---,0.29,VWS V14.01,2013-01-14 03:36:00,
2013-01-13 22:37:00,58.6,57.2,30.03,WNW,282,0.0,0.0,95,0.01,,---,0.29,VWS V14.01,2013-01-14 03:37:00,
2013-01-13 22:38:00,58.6,57.2,30.03,WNW,282,0.0,0.0,95,0.01,,---,0.29,VWS V14.01,2013-01-14 03:38:00,
2013-01-13 22:39:00,58.6,57.2,30.03,WNW,282,0.0,0.0,95,0.01,,---,0.29,VWS V14.01,2013-01-14 03:39:00,
2013-01-13 22:40:00,58.6,57.2,30.03,WNW,282,0.0,0.0,95,0.01,,---,0.29,VWS V14.01,2013-01-14 03:40:00,
2013-01-13 22:41:00,58.6,57.2,30.03,WNW,282,0.0,0.0,95,0.01,,---,0.29,VWS V14.01,2013-01-14 03:41:00,
2013-01-13 22:42:00,58.6,57.2,30.03,WNW,282,0.0,0.0,95,0.01,,---,0.29,VWS V14.01,2013-01-14 03:42:00,
2013-01-13 22:43:00,58.6,57.2,30.03,WNW,282,0.0,0.0,95,0.01,,---,0.29,VWS V14.01,2013-01-14 03:43:00,
2013-01-13 22:44:00,58.6,57.2,30.03,WNW,282,0.0,0.0,95,0.01,,---,0.29,VWS V14.01,2013-01-14 03:44:00,
2013-01-13 22:45:00,58.6,57.2,30.02,WNW,282,0.0,0.0,95,0.02,,---,0.30,VWS V14.01,2013-01-14 03:45:00,
2013-01-13 22:46:00,58.6,57.2,30.02,WNW,282,0.0,0.0,95,0.02,,---,0.30,VWS V14.01,2013-01-14 03:46:00,
2013-01-13 22:47:00,58.6,57.2,30.02,WNW,282,0.0,0.0,95,0.02,,---,0.30,VWS V14.01,2013-01-14 03:47:00,
2013-01-13 22:48:00,58.6,57.2,30.02,WNW,282,0.0,0.0,95,0.02,,---,0.30,VWS V14.01,2013-01-14 03:48:00,
2013-01-13 22:49:00,58.6,57.2,30.02,WNW,282,0.0,0.0,95,0.02,,---,0.30,VWS V14.01,2013-01-14 03:49:00,
2013-01-13 22:50:00,58.6,57.2,30.02,WNW,282,0.0,0.0,95,0.02,,---,0.30,VWS V14.01,2013-01-14 03:50:00,
2013-01-13 22:51:00,58.6,57.2,30.02,WNW,282,0.0,0.0,95,0.02,,---,0.30,VWS V14.01,2013-01-14 03:51:00,
2013-01-13 22:52:00,58.6,57.2,30.02,West,275,0.0,0.0,95,0.02,,---,0.30,VWS V14.01,2013-01-14 03:52:00,
2013-01-13 22:53:00,58.6,57.2,30.02,WNW,282,0.0,0.0,95,0.02,,---,0.30,VWS V14.01,2013-01-14 03:53:00,
2013-01-13 22:54:00,58.6,57.2,30.02,WNW,282,0.0,0.0,95,0.02,,---,0.30,VWS V14.01,2013-01-14 03:54:00,
2013-01-13 22:55:00,58.6,57.2,30.02,WNW,282,0.0,0.0,95,0.02,,---,0.30,VWS V14.01,2013-01-14 03:55:00,
2013-01-13 22:56:00,58.6,57.2,30.02,WNW,282,0.0,0.0,95,0.02,,---,0.30,VWS V14.01,2013-01-14 03:56:00,
2013-01-13 22:57:00,58.6,57.2,30.02,WNW,282,0.0,0.0,95,0.02,,---,0.30,VWS V14.01,2013-01-14 03:57:00,
2013-01-13 22:58:00,58.6,57.2,30.02,WNW,282,0.0,0.0,95,0.02,,---,0.30,VWS V14.01,2013-01-14 03:58:00,
2013-01-13 22:59:00,58.6,57.2,30.02,WNW,282,0.0,0.0,95,0.02,,---,0.30,VWS V14.01,2013-01-14 03:59:00,
2013-01-13 23:00:00,58.6,57.2,30.02,WNW,282,0.0,0.0,95,0.02,,---,0.30,VWS V14.01,2013-01-14 04:00:00,
2013-01-13 23:01:00,58.6,57.2,30.02,WNW,282,0.0,0.0,95,0.02,,---,0.30,VWS V14.01,2013-01-14 04:01:00,
2013-01-13 23:02:00,58.6,57.2,30.02,WNW,282,1.0,1.0,95,0.02,,---,0.30,VWS V14.01,2013-01-14 04:02:00,
2013-01-13 23:03:00,58.6,57.2,30.02,WNW,282,0.0,2.0,95,0.02,,---,0.30,VWS V14.01,2013-01-14 04:03:00,
2013-01-13 23:04:00,58.6,57.2,30.02,WNW,282,0.0,2.0,95,0.02,,---,0.30,VWS V14.01,2013-01-14 04:04:00,
2013-01-13 23:05:00,58.7,57.3,30.02,WNW,282,0.0,2.0,95,0.02,,---,0.30,VWS V14.01,2013-01-14 04:05:00,
2013-01-13 23:06:00,58.7,57.3,30.02,WNW,282,0.0,2.0,95,0.02,,---,0.30,VWS V14.01,2013-01-14 04:06:00,
2013-01-13 23:07:00,58.7,57.3,30.02,WNW,282,0.0,2.0,95,0.02,,---,0.30,VWS V14.01,2013-01-14 04:07:00,
2013-01-13 23:08:00,58.7,57.3,30.02,WNW,282,0.0,2.0,95,0.02,,---,0.30,VWS V14.01,2013-01-14 04:08:00,
2013-01-13 23:09:00,58.7,57.3,30.02,WNW,282,0.0,2.0,95,0.02,,---,0.30,VWS V14.01,2013-01-14 04:09:00,
2013-01-13 23:10:00,58.7,57.3,30.02,WNW,282,2.0,3.0,95,0.02,,---,0.30,VWS V14.01,2013-01-14 04:10:00,
2013-01-13 23:11:00,58.7,57.3,30.02,WNW,282,1.0,2.0,95,0.01,,---,0.30,VWS V14.01,2013-01-14 04:11:00,
2013-01-13 23:12:00,58.7,57.3,30.02,WNW,282,2.0,2.0,95,0.01,,---,0.30,VWS V14.01,2013-01-14 04:12:00,
2013-01-13 23:13:00,58.7,57.3,30.02,WNW,282,0.0,2.0,95,0.01,,---,0.30,VWS V14.01,2013-01-14 04:13:00,
2013-01-13 23:14:00,58.7,57.3,30.02,WNW,282,0.0,2.0,95,0.01,,---,0.30,VWS V14.01,2013-01-14 04:14:00,
2013-01-13 23:15:00,58.7,57.3,30.02,WNW,282,0.0,2.0,95,0.01,,---,0.30,VWS V14.01,2013-01-14 04:15:00,
2013-01-13 23:16:00,58.7,57.3,30.02,WNW,282,0.0,2.0,95,0.01,,---,0.30,VWS V14.01,2013-01-14 04:16:00,
2013-01-13 23:17:00,58.7,57.3,30.02,West,275,0.0,2.0,95,0.01,,---,0.30,VWS V14.01,2013-01-14 04:17:00,
2013-01-13 23:18:00,58.7,57.3,30.02,WNW,282,1.0,2.0,95,0.01,,---,0.30,VWS V14.01,2013-01-14 04:18:00,
2013-01-13 23:19:00,58.7,57.3,30.02,WNW,282,0.0,2.0,95,0.01,,---,0.30,VWS V14.01,2013-01-14 04:19:00,
2013-01-13 23:20:00,58.7,57.3,30.02,WNW,282,2.0,3.0,95,0.01,,---,0.30,VWS V14.01,2013-01-14 04:20:00,
2013-01-13 23:21:00,58.7,57.3,30.02,WNW,282,0.0,2.0,95,0.01,,---,0.30,VWS V14.01,2013-01-14 04:21:00,
2013-01-13 23:22:00,58.7,57.3,30.02,WNW,282,0.0,2.0,95,0.01,,---,0.30,VWS V14.01,2013-01-14 04:22:00,
2013-01-13 23:23:00,58.7,57.3,30.02,WNW,282,0.0,2.0,95,0.02,,---,0.31,VWS V14.01,2013-01-14 04:23:00,
2013-01-13 23:24:00,58.7,57.3,30.02,WNW,282,0.0,2.0,95,0.02,,---,0.31,VWS V14.01,2013-01-14 04:24:00,
2013-01-13 23:25:00,58.7,57.3,30.02,WNW,282,0.0,2.0,95,0.02,,---,0.31,VWS V14.01,2013-01-14 04:25:00,
2013-01-13 23:26:00,58.7,57.3,30.02,WNW,282,0.0,2.0,95,0.02,,---,0.31,VWS V14.01,2013-01-14 04:26:00,
2013-01-13 23:27:00,58.7,57.3,30.02,WNW,282,0.0,2.0,95,0.02,,---,0.31,VWS V14.01,2013-01-14 04:27:00,
2013-01-13 23:28:00,58.7,57.3,30.02,WNW,282,0.0,2.0,95,0.02,,---,0.31,VWS V14.01,2013-01-14 04:28:00,
2013-01-13 23:29:00,58.9,57.5,30.02,WNW,282,0.0,2.0,95,0.02,,---,0.31,VWS V14.01,2013-01-14 04:29:00,
2013-01-13 23:30:00,58.9,57.5,30.01,WNW,282,0.0,2.0,95,0.02,,---,0.31,VWS V14.01,2013-01-14 04:30:00,
2013-01-13 23:31:00,58.9,57.5,30.01,WNW,282,0.0,0.0,95,0.02,,---,0.31,VWS V14.01,2013-01-14 04:31:00,
2013-01-13 23:32:00,58.9,57.5,30.01,WNW,282,0.0,0.0,95,0.02,,---,0.31,VWS V14.01,2013-01-14 04:32:00,
2013-01-13 23:33:00,58.9,57.5,30.01,WNW,282,0.0,0.0,95,0.02,,---,0.31,VWS V14.01,2013-01-14 04:33:00,
2013-01-13 23:34:00,58.9,57.5,30.01,WNW,282,0.0,0.0,95,0.02,,---,0.31,VWS V14.01,2013-01-14 04:34:00,
2013-01-13 23:35:00,58.9,57.5,30.01,WNW,282,0.0,0.0,95,0.02,,---,0.31,VWS V14.01,2013-01-14 04:35:00,
2013-01-13 23:36:00,58.9,57.5,30.01,WNW,282,0.0,0.0,95,0.02,,---,0.31,VWS V14.01,2013-01-14 04:36:00,
2013-01-13 23:37:00,58.9,57.5,30.01,WNW,282,0.0,0.0,95,0.02,,---,0.31,VWS V14.01,2013-01-14 04:37:00,
2013-01-13 23:38:00,58.9,57.5,30.01,WNW,282,0.0,0.0,95,0.02,,---,0.31,VWS V14.01,2013-01-14 04:38:00,
2013-01-13 23:39:00,58.9,57.5,30.01,WNW,282,0.0,0.0,95,0.02,,---,0.31,VWS V14.01,2013-01-14 04:39:00,
2013-01-13 23:40:00,58.9,57.5,30.01,WNW,282,0.0,0.0,95,0.02,,---,0.31,VWS V14.01,2013-01-14 04:40:00,
2013-01-13 23:41:00,58.9,57.5,30.01,WNW,282,0.0,0.0,95,0.02,,---,0.31,VWS V14.01,2013-01-14 04:41:00,
2013-01-13 23:42:00,58.9,57.5,30.01,WNW,282,0.0,0.0,95,0.02,,---,0.31,VWS V14.01,2013-01-14 04:42:00,
2013-01-13 23:43:00,58.9,57.5,30.01,WNW,282,0.0,0.0,95,0.02,,---,0.31,VWS V14.01,2013-01-14 04:43:00,
2013-01-13 23:44:00,58.9,57.5,30.01,WNW,282,0.0,0.0,95,0.02,,---,0.31,VWS V14.01,2013-01-14 04:44:00,
2013-01-13 23:45:00,58.9,57.5,30.00,WNW,282,0.0,0.0,95,0.02,,---,0.31,VWS V14.01,2013-01-14 04:45:00,
2013-01-13 23:46:00,58.9,57.5,30.00,WNW,282,0.0,0.0,95,0.02,,---,0.31,VWS V14.01,2013-01-14 04:46:00,
2013-01-13 23:47:00,58.9,57.5,30.00,WNW,282,0.0,0.0,95,0.02,,---,0.31,VWS V14.01,2013-01-14 04:47:00,
2013-01-13 23:48:00,58.9,57.5,30.00,WNW,282,0.0,0.0,95,0.02,,---,0.31,VWS V14.01,2013-01-14 04:48:00,
2013-01-13 23:49:00,58.9,57.5,30.00,WNW,282,0.0,0.0,95,0.02,,---,0.31,VWS V14.01,2013-01-14 04:49:00,
2013-01-13 23:50:00,59.0,57.6,30.00,WNW,282,0.0,0.0,95,0.02,,---,0.31,VWS V14.01,2013-01-14 04:50:00,
2013-01-13 23:51:00,59.0,57.6,30.00,WNW,282,0.0,0.0,95,0.01,,---,0.31,VWS V14.01,2013-01-14 04:51:00,
2013-01-13 23:52:00,59.0,57.6,30.00,WNW,282,0.0,0.0,95,0.01,,---,0.31,VWS V14.01,2013-01-14 04:52:00,
2013-01-13 23:53:00,59.0,57.6,30.00,WNW,282,0.0,0.0,95,0.02,,---,0.32,VWS V14.01,2013-01-14 04:53:00,
2013-01-13 23:54:00,59.0,57.6,30.00,WNW,282,0.0,0.0,95,0.02,,---,0.32,VWS V14.01,2013-01-14 04:54:00,
2013-01-13 23:55:00,59.0,57.6,30.00,WNW,282,0.0,0.0,95,0.02,,---,0.32,VWS V14.01,2013-01-14 04:55:00,
2013-01-13 23:56:00,59.0,57.6,30.00,WNW,282,0.0,0.0,95,0.02,,---,0.32,VWS V14.01,2013-01-14 04:56:00,
2013-01-13 23:57:00,59.0,57.6,30.00,WNW,282,0.0,0.0,95,0.02,,---,0.32,VWS V14.01,2013-01-14 04:57:00,
2013-01-13 23:58:00,59.0,57.6,30.00,WNW,282,0.0,0.0,95,0.02,,---,0.32,VWS V14.01,2013-01-14 04:58:00,
2013-01-13 23:59:00,59.0,57.6,30.00,WNW,282,0.0,0.0,95,0.02,,---,0.32,VWS V14.01,2013-01-14 04:59:00,